<?xml version="1.0" encoding="UTF-8" standalone="no" ?>
<gpx xmlns="http://www.topografix.com/GPX/1/1" xmlns:xsi="http://www.w3.org/2001/XMLSchema-instance" xsi:schemaLocation="http://www.topografix.com/GPX/1/1 http://www.topografix.com/GPX/1/1/gpx.xsd" version="1.1" creator="VisuGPX - https://www.visugpx.com">
  <metadata>
    <name>chambon,thaury,saint sornin</name>
    <desc><![CDATA[depart du parking de l office du tourisme,direction evaux apres le pont prendre la route de barbeyrat,direction thaury puis saint sornin]]></desc>
  </metadata>
  <trk>
    <name><![CDATA[chambon,thaury,saint sornin_1]]></name>
    <trkseg>
      <trkpt lat="46.18848" lon="2.42548">
        <ele>323</ele>
        <time>2017-04-08T12:56:25Z</time>
      </trkpt>
      <trkpt lat="46.18841" lon="2.42586">
        <ele>322</ele>
        <time>2017-04-08T12:56:53Z</time>
      </trkpt>
      <trkpt lat="46.1884" lon="2.42592">
        <ele>321</ele>
        <time>2017-04-08T12:56:56Z</time>
      </trkpt>
      <trkpt lat="46.1884" lon="2.42597">
        <ele>321</ele>
        <time>2017-04-08T12:56:59Z</time>
      </trkpt>
      <trkpt lat="46.18839" lon="2.42601">
        <ele>321</ele>
        <time>2017-04-08T12:57:02Z</time>
      </trkpt>
      <trkpt lat="46.1884" lon="2.42606">
        <ele>321</ele>
        <time>2017-04-08T12:57:06Z</time>
      </trkpt>
      <trkpt lat="46.18838" lon="2.42611">
        <ele>321</ele>
        <time>2017-04-08T12:57:10Z</time>
      </trkpt>
      <trkpt lat="46.18836" lon="2.42616">
        <ele>321</ele>
        <time>2017-04-08T12:57:14Z</time>
      </trkpt>
      <trkpt lat="46.18834" lon="2.4262">
        <ele>321</ele>
        <time>2017-04-08T12:57:17Z</time>
      </trkpt>
      <trkpt lat="46.18832" lon="2.42626">
        <ele>324</ele>
        <time>2017-04-08T12:57:20Z</time>
      </trkpt>
      <trkpt lat="46.18832" lon="2.42633">
        <ele>326</ele>
        <time>2017-04-08T12:57:25Z</time>
      </trkpt>
      <trkpt lat="46.18831" lon="2.42639">
        <ele>326</ele>
        <time>2017-04-08T12:57:28Z</time>
      </trkpt>
      <trkpt lat="46.18832" lon="2.42644">
        <ele>326</ele>
        <time>2017-04-08T12:57:31Z</time>
      </trkpt>
      <trkpt lat="46.18833" lon="2.42653">
        <ele>326</ele>
        <time>2017-04-08T12:57:35Z</time>
      </trkpt>
      <trkpt lat="46.18833" lon="2.42661">
        <ele>326</ele>
        <time>2017-04-08T12:57:39Z</time>
      </trkpt>
      <trkpt lat="46.18832" lon="2.42668">
        <ele>326</ele>
        <time>2017-04-08T12:57:42Z</time>
      </trkpt>
      <trkpt lat="46.18832" lon="2.42675">
        <ele>326</ele>
        <time>2017-04-08T12:57:45Z</time>
      </trkpt>
      <trkpt lat="46.18831" lon="2.42682">
        <ele>326</ele>
        <time>2017-04-08T12:57:49Z</time>
      </trkpt>
      <trkpt lat="46.1883" lon="2.42686">
        <ele>326</ele>
        <time>2017-04-08T12:57:52Z</time>
      </trkpt>
      <trkpt lat="46.1883" lon="2.42689">
        <ele>325</ele>
        <time>2017-04-08T12:57:55Z</time>
      </trkpt>
      <trkpt lat="46.18827" lon="2.42695">
        <ele>324</ele>
        <time>2017-04-08T12:57:59Z</time>
      </trkpt>
      <trkpt lat="46.18824" lon="2.427">
        <ele>324</ele>
        <time>2017-04-08T12:58:03Z</time>
      </trkpt>
      <trkpt lat="46.18821" lon="2.42706">
        <ele>322</ele>
        <time>2017-04-08T12:58:07Z</time>
      </trkpt>
      <trkpt lat="46.18818" lon="2.42711">
        <ele>322</ele>
        <time>2017-04-08T12:58:10Z</time>
      </trkpt>
      <trkpt lat="46.18816" lon="2.42716">
        <ele>322</ele>
        <time>2017-04-08T12:58:13Z</time>
      </trkpt>
      <trkpt lat="46.18816" lon="2.42722">
        <ele>322</ele>
        <time>2017-04-08T12:58:16Z</time>
      </trkpt>
      <trkpt lat="46.18815" lon="2.4273">
        <ele>322</ele>
        <time>2017-04-08T12:58:21Z</time>
      </trkpt>
      <trkpt lat="46.18815" lon="2.42736">
        <ele>322</ele>
        <time>2017-04-08T12:58:24Z</time>
      </trkpt>
      <trkpt lat="46.18814" lon="2.42742">
        <ele>322</ele>
        <time>2017-04-08T12:58:27Z</time>
      </trkpt>
      <trkpt lat="46.18813" lon="2.42751">
        <ele>322</ele>
        <time>2017-04-08T12:58:31Z</time>
      </trkpt>
      <trkpt lat="46.18812" lon="2.42759">
        <ele>322</ele>
        <time>2017-04-08T12:58:35Z</time>
      </trkpt>
      <trkpt lat="46.18811" lon="2.42765">
        <ele>322</ele>
        <time>2017-04-08T12:58:38Z</time>
      </trkpt>
      <trkpt lat="46.18809" lon="2.42773">
        <ele>322</ele>
        <time>2017-04-08T12:58:41Z</time>
      </trkpt>
      <trkpt lat="46.18808" lon="2.4278">
        <ele>322</ele>
        <time>2017-04-08T12:58:45Z</time>
      </trkpt>
      <trkpt lat="46.18807" lon="2.42786">
        <ele>322</ele>
        <time>2017-04-08T12:58:48Z</time>
      </trkpt>
      <trkpt lat="46.18804" lon="2.42791">
        <ele>322</ele>
        <time>2017-04-08T12:58:52Z</time>
      </trkpt>
      <trkpt lat="46.18802" lon="2.42797">
        <ele>322</ele>
        <time>2017-04-08T12:58:57Z</time>
      </trkpt>
      <trkpt lat="46.188" lon="2.42803">
        <ele>322</ele>
        <time>2017-04-08T12:59:00Z</time>
      </trkpt>
      <trkpt lat="46.18796" lon="2.42812">
        <ele>322</ele>
        <time>2017-04-08T12:59:04Z</time>
      </trkpt>
      <trkpt lat="46.18792" lon="2.42819">
        <ele>322</ele>
        <time>2017-04-08T12:59:08Z</time>
      </trkpt>
      <trkpt lat="46.18787" lon="2.42827">
        <ele>322</ele>
        <time>2017-04-08T12:59:13Z</time>
      </trkpt>
      <trkpt lat="46.18783" lon="2.42831">
        <ele>322</ele>
        <time>2017-04-08T12:59:17Z</time>
      </trkpt>
      <trkpt lat="46.18779" lon="2.42834">
        <ele>322</ele>
        <time>2017-04-08T12:59:20Z</time>
      </trkpt>
      <trkpt lat="46.18775" lon="2.42837">
        <ele>322</ele>
        <time>2017-04-08T12:59:23Z</time>
      </trkpt>
      <trkpt lat="46.18771" lon="2.4284">
        <ele>322</ele>
        <time>2017-04-08T12:59:26Z</time>
      </trkpt>
      <trkpt lat="46.18767" lon="2.42842">
        <ele>322</ele>
        <time>2017-04-08T12:59:29Z</time>
      </trkpt>
      <trkpt lat="46.18763" lon="2.42847">
        <ele>322</ele>
        <time>2017-04-08T12:59:33Z</time>
      </trkpt>
      <trkpt lat="46.18759" lon="2.42849">
        <ele>322</ele>
        <time>2017-04-08T12:59:36Z</time>
      </trkpt>
      <trkpt lat="46.18755" lon="2.42852">
        <ele>322</ele>
        <time>2017-04-08T12:59:39Z</time>
      </trkpt>
      <trkpt lat="46.1875" lon="2.42858">
        <ele>322</ele>
        <time>2017-04-08T12:59:44Z</time>
      </trkpt>
      <trkpt lat="46.18745" lon="2.42862">
        <ele>322</ele>
        <time>2017-04-08T12:59:48Z</time>
      </trkpt>
      <trkpt lat="46.18741" lon="2.42866">
        <ele>322</ele>
        <time>2017-04-08T12:59:52Z</time>
      </trkpt>
      <trkpt lat="46.18736" lon="2.4287">
        <ele>322</ele>
        <time>2017-04-08T12:59:56Z</time>
      </trkpt>
      <trkpt lat="46.18732" lon="2.42873">
        <ele>322</ele>
        <time>2017-04-08T12:59:59Z</time>
      </trkpt>
      <trkpt lat="46.18728" lon="2.42876">
        <ele>322</ele>
        <time>2017-04-08T13:00:03Z</time>
      </trkpt>
      <trkpt lat="46.18722" lon="2.42878">
        <ele>322</ele>
        <time>2017-04-08T13:00:07Z</time>
      </trkpt>
      <trkpt lat="46.18717" lon="2.42875">
        <ele>322</ele>
        <time>2017-04-08T13:00:11Z</time>
      </trkpt>
      <trkpt lat="46.18712" lon="2.42869">
        <ele>322</ele>
        <time>2017-04-08T13:00:15Z</time>
      </trkpt>
      <trkpt lat="46.18707" lon="2.42861">
        <ele>322</ele>
        <time>2017-04-08T13:00:20Z</time>
      </trkpt>
      <trkpt lat="46.18703" lon="2.42855">
        <ele>322</ele>
        <time>2017-04-08T13:00:23Z</time>
      </trkpt>
      <trkpt lat="46.187" lon="2.42851">
        <ele>322</ele>
        <time>2017-04-08T13:00:26Z</time>
      </trkpt>
      <trkpt lat="46.18695" lon="2.42842">
        <ele>324</ele>
        <time>2017-04-08T13:00:29Z</time>
      </trkpt>
      <trkpt lat="46.18692" lon="2.42835">
        <ele>324</ele>
        <time>2017-04-08T13:00:33Z</time>
      </trkpt>
      <trkpt lat="46.1869" lon="2.4283">
        <ele>325</ele>
        <time>2017-04-08T13:00:37Z</time>
      </trkpt>
      <trkpt lat="46.18688" lon="2.42825">
        <ele>326</ele>
        <time>2017-04-08T13:00:40Z</time>
      </trkpt>
      <trkpt lat="46.18684" lon="2.4282">
        <ele>326</ele>
        <time>2017-04-08T13:00:44Z</time>
      </trkpt>
      <trkpt lat="46.18682" lon="2.42817">
        <ele>326</ele>
        <time>2017-04-08T13:00:48Z</time>
      </trkpt>
      <trkpt lat="46.18679" lon="2.42813">
        <ele>323</ele>
        <time>2017-04-08T13:00:52Z</time>
      </trkpt>
      <trkpt lat="46.18676" lon="2.42808">
        <ele>319</ele>
        <time>2017-04-08T13:00:56Z</time>
      </trkpt>
      <trkpt lat="46.18674" lon="2.42804">
        <ele>317</ele>
        <time>2017-04-08T13:00:59Z</time>
      </trkpt>
      <trkpt lat="46.18671" lon="2.42797">
        <ele>315</ele>
        <time>2017-04-08T13:01:03Z</time>
      </trkpt>
      <trkpt lat="46.18669" lon="2.42793">
        <ele>314</ele>
        <time>2017-04-08T13:01:06Z</time>
      </trkpt>
      <trkpt lat="46.18667" lon="2.42789">
        <ele>314</ele>
        <time>2017-04-08T13:01:09Z</time>
      </trkpt>
      <trkpt lat="46.18665" lon="2.42783">
        <ele>314</ele>
        <time>2017-04-08T13:01:13Z</time>
      </trkpt>
      <trkpt lat="46.18663" lon="2.42777">
        <ele>313</ele>
        <time>2017-04-08T13:01:16Z</time>
      </trkpt>
      <trkpt lat="46.18659" lon="2.42771">
        <ele>313</ele>
        <time>2017-04-08T13:01:20Z</time>
      </trkpt>
      <trkpt lat="46.18657" lon="2.42764">
        <ele>313</ele>
        <time>2017-04-08T13:01:23Z</time>
      </trkpt>
      <trkpt lat="46.18654" lon="2.42757">
        <ele>313</ele>
        <time>2017-04-08T13:01:26Z</time>
      </trkpt>
      <trkpt lat="46.18652" lon="2.4275">
        <ele>313</ele>
        <time>2017-04-08T13:01:30Z</time>
      </trkpt>
      <trkpt lat="46.18648" lon="2.42745">
        <ele>313</ele>
        <time>2017-04-08T13:01:34Z</time>
      </trkpt>
      <trkpt lat="46.18645" lon="2.4274">
        <ele>313</ele>
        <time>2017-04-08T13:01:37Z</time>
      </trkpt>
      <trkpt lat="46.18643" lon="2.42735">
        <ele>313</ele>
        <time>2017-04-08T13:01:40Z</time>
      </trkpt>
      <trkpt lat="46.18639" lon="2.42727">
        <ele>313</ele>
        <time>2017-04-08T13:01:45Z</time>
      </trkpt>
      <trkpt lat="46.18635" lon="2.42721">
        <ele>313</ele>
        <time>2017-04-08T13:01:49Z</time>
      </trkpt>
      <trkpt lat="46.18631" lon="2.42715">
        <ele>313</ele>
        <time>2017-04-08T13:01:53Z</time>
      </trkpt>
      <trkpt lat="46.18627" lon="2.42711">
        <ele>313</ele>
        <time>2017-04-08T13:01:56Z</time>
      </trkpt>
      <trkpt lat="46.18622" lon="2.42707">
        <ele>313</ele>
        <time>2017-04-08T13:02:00Z</time>
      </trkpt>
      <trkpt lat="46.18618" lon="2.42702">
        <ele>313</ele>
        <time>2017-04-08T13:02:04Z</time>
      </trkpt>
      <trkpt lat="46.18614" lon="2.42698">
        <ele>313</ele>
        <time>2017-04-08T13:02:07Z</time>
      </trkpt>
      <trkpt lat="46.1861" lon="2.42695">
        <ele>314</ele>
        <time>2017-04-08T13:02:10Z</time>
      </trkpt>
      <trkpt lat="46.18606" lon="2.42693">
        <ele>314</ele>
        <time>2017-04-08T13:02:13Z</time>
      </trkpt>
      <trkpt lat="46.18602" lon="2.4269">
        <ele>314</ele>
        <time>2017-04-08T13:02:16Z</time>
      </trkpt>
      <trkpt lat="46.18598" lon="2.42687">
        <ele>314</ele>
        <time>2017-04-08T13:02:19Z</time>
      </trkpt>
      <trkpt lat="46.18592" lon="2.42683">
        <ele>314</ele>
        <time>2017-04-08T13:02:23Z</time>
      </trkpt>
      <trkpt lat="46.18589" lon="2.4268">
        <ele>314</ele>
        <time>2017-04-08T13:02:26Z</time>
      </trkpt>
      <trkpt lat="46.18585" lon="2.42677">
        <ele>314</ele>
        <time>2017-04-08T13:02:29Z</time>
      </trkpt>
      <trkpt lat="46.18582" lon="2.42673">
        <ele>314</ele>
        <time>2017-04-08T13:02:32Z</time>
      </trkpt>
      <trkpt lat="46.18577" lon="2.42669">
        <ele>314</ele>
        <time>2017-04-08T13:02:36Z</time>
      </trkpt>
      <trkpt lat="46.18572" lon="2.42661">
        <ele>314</ele>
        <time>2017-04-08T13:02:41Z</time>
      </trkpt>
      <trkpt lat="46.1857" lon="2.42654">
        <ele>315</ele>
        <time>2017-04-08T13:02:44Z</time>
      </trkpt>
      <trkpt lat="46.18565" lon="2.42643">
        <ele>316</ele>
        <time>2017-04-08T13:02:48Z</time>
      </trkpt>
      <trkpt lat="46.18562" lon="2.42638">
        <ele>317</ele>
        <time>2017-04-08T13:02:51Z</time>
      </trkpt>
      <trkpt lat="46.18559" lon="2.42632">
        <ele>317</ele>
        <time>2017-04-08T13:02:54Z</time>
      </trkpt>
      <trkpt lat="46.18556" lon="2.42627">
        <ele>317</ele>
        <time>2017-04-08T13:02:57Z</time>
      </trkpt>
      <trkpt lat="46.18553" lon="2.42619">
        <ele>317</ele>
        <time>2017-04-08T13:03:00Z</time>
      </trkpt>
      <trkpt lat="46.18551" lon="2.4261">
        <ele>317</ele>
        <time>2017-04-08T13:03:04Z</time>
      </trkpt>
      <trkpt lat="46.18549" lon="2.426">
        <ele>317</ele>
        <time>2017-04-08T13:03:08Z</time>
      </trkpt>
      <trkpt lat="46.18547" lon="2.42589">
        <ele>317</ele>
        <time>2017-04-08T13:03:11Z</time>
      </trkpt>
      <trkpt lat="46.18546" lon="2.42581">
        <ele>319</ele>
        <time>2017-04-08T13:03:14Z</time>
      </trkpt>
      <trkpt lat="46.18546" lon="2.42575">
        <ele>320</ele>
        <time>2017-04-08T13:03:18Z</time>
      </trkpt>
      <trkpt lat="46.18545" lon="2.42568">
        <ele>321</ele>
        <time>2017-04-08T13:03:21Z</time>
      </trkpt>
      <trkpt lat="46.18544" lon="2.42561">
        <ele>322</ele>
        <time>2017-04-08T13:03:24Z</time>
      </trkpt>
      <trkpt lat="46.18545" lon="2.42552">
        <ele>322</ele>
        <time>2017-04-08T13:03:28Z</time>
      </trkpt>
      <trkpt lat="46.18544" lon="2.42543">
        <ele>324</ele>
        <time>2017-04-08T13:03:32Z</time>
      </trkpt>
      <trkpt lat="46.18545" lon="2.42535">
        <ele>325</ele>
        <time>2017-04-08T13:03:35Z</time>
      </trkpt>
      <trkpt lat="46.18544" lon="2.42528">
        <ele>326</ele>
        <time>2017-04-08T13:03:38Z</time>
      </trkpt>
      <trkpt lat="46.18546" lon="2.42521">
        <ele>328</ele>
        <time>2017-04-08T13:03:41Z</time>
      </trkpt>
      <trkpt lat="46.18547" lon="2.42515">
        <ele>329</ele>
        <time>2017-04-08T13:03:44Z</time>
      </trkpt>
      <trkpt lat="46.18547" lon="2.42508">
        <ele>330</ele>
        <time>2017-04-08T13:03:47Z</time>
      </trkpt>
      <trkpt lat="46.18545" lon="2.425">
        <ele>331</ele>
        <time>2017-04-08T13:03:50Z</time>
      </trkpt>
      <trkpt lat="46.18546" lon="2.42493">
        <ele>331</ele>
        <time>2017-04-08T13:03:53Z</time>
      </trkpt>
      <trkpt lat="46.18545" lon="2.42486">
        <ele>332</ele>
        <time>2017-04-08T13:03:57Z</time>
      </trkpt>
      <trkpt lat="46.18544" lon="2.42482">
        <ele>332</ele>
        <time>2017-04-08T13:04:01Z</time>
      </trkpt>
      <trkpt lat="46.18543" lon="2.42477">
        <ele>332</ele>
        <time>2017-04-08T13:04:04Z</time>
      </trkpt>
      <trkpt lat="46.18545" lon="2.42473">
        <ele>331</ele>
        <time>2017-04-08T13:04:07Z</time>
      </trkpt>
      <trkpt lat="46.18546" lon="2.42466">
        <ele>331</ele>
        <time>2017-04-08T13:04:11Z</time>
      </trkpt>
      <trkpt lat="46.18545" lon="2.42461">
        <ele>330</ele>
        <time>2017-04-08T13:04:14Z</time>
      </trkpt>
      <trkpt lat="46.18545" lon="2.42454">
        <ele>330</ele>
        <time>2017-04-08T13:04:17Z</time>
      </trkpt>
      <trkpt lat="46.18545" lon="2.42449">
        <ele>330</ele>
        <time>2017-04-08T13:04:20Z</time>
      </trkpt>
      <trkpt lat="46.18546" lon="2.42442">
        <ele>330</ele>
        <time>2017-04-08T13:04:23Z</time>
      </trkpt>
      <trkpt lat="46.18547" lon="2.42436">
        <ele>330</ele>
        <time>2017-04-08T13:04:26Z</time>
      </trkpt>
      <trkpt lat="46.18548" lon="2.42429">
        <ele>330</ele>
        <time>2017-04-08T13:04:29Z</time>
      </trkpt>
      <trkpt lat="46.18548" lon="2.42424">
        <ele>330</ele>
        <time>2017-04-08T13:04:32Z</time>
      </trkpt>
      <trkpt lat="46.18548" lon="2.42418">
        <ele>330</ele>
        <time>2017-04-08T13:04:35Z</time>
      </trkpt>
      <trkpt lat="46.18549" lon="2.42409">
        <ele>330</ele>
        <time>2017-04-08T13:04:38Z</time>
      </trkpt>
      <trkpt lat="46.18549" lon="2.42403">
        <ele>330</ele>
        <time>2017-04-08T13:04:42Z</time>
      </trkpt>
      <trkpt lat="46.18551" lon="2.42395">
        <ele>330</ele>
        <time>2017-04-08T13:04:46Z</time>
      </trkpt>
      <trkpt lat="46.18554" lon="2.42389">
        <ele>332</ele>
        <time>2017-04-08T13:04:49Z</time>
      </trkpt>
      <trkpt lat="46.18554" lon="2.42383">
        <ele>334</ele>
        <time>2017-04-08T13:04:52Z</time>
      </trkpt>
      <trkpt lat="46.18555" lon="2.42375">
        <ele>337</ele>
        <time>2017-04-08T13:04:56Z</time>
      </trkpt>
      <trkpt lat="46.18556" lon="2.42369">
        <ele>338</ele>
        <time>2017-04-08T13:04:59Z</time>
      </trkpt>
      <trkpt lat="46.18557" lon="2.42362">
        <ele>339</ele>
        <time>2017-04-08T13:05:02Z</time>
      </trkpt>
      <trkpt lat="46.18557" lon="2.42357">
        <ele>339</ele>
        <time>2017-04-08T13:05:05Z</time>
      </trkpt>
      <trkpt lat="46.18555" lon="2.42353">
        <ele>339</ele>
        <time>2017-04-08T13:05:08Z</time>
      </trkpt>
      <trkpt lat="46.18557" lon="2.42347">
        <ele>339</ele>
        <time>2017-04-08T13:05:12Z</time>
      </trkpt>
      <trkpt lat="46.18555" lon="2.42341">
        <ele>339</ele>
        <time>2017-04-08T13:05:15Z</time>
      </trkpt>
      <trkpt lat="46.18555" lon="2.42336">
        <ele>338</ele>
        <time>2017-04-08T13:05:18Z</time>
      </trkpt>
      <trkpt lat="46.18555" lon="2.4233">
        <ele>336</ele>
        <time>2017-04-08T13:05:21Z</time>
      </trkpt>
      <trkpt lat="46.18554" lon="2.42324">
        <ele>335</ele>
        <time>2017-04-08T13:05:24Z</time>
      </trkpt>
      <trkpt lat="46.18554" lon="2.42317">
        <ele>334</ele>
        <time>2017-04-08T13:05:27Z</time>
      </trkpt>
      <trkpt lat="46.18553" lon="2.4231">
        <ele>334</ele>
        <time>2017-04-08T13:05:30Z</time>
      </trkpt>
      <trkpt lat="46.18552" lon="2.42301">
        <ele>334</ele>
        <time>2017-04-08T13:05:33Z</time>
      </trkpt>
      <trkpt lat="46.18552" lon="2.42294">
        <ele>334</ele>
        <time>2017-04-08T13:05:36Z</time>
      </trkpt>
      <trkpt lat="46.18551" lon="2.42287">
        <ele>334</ele>
        <time>2017-04-08T13:05:39Z</time>
      </trkpt>
      <trkpt lat="46.18551" lon="2.42279">
        <ele>334</ele>
        <time>2017-04-08T13:05:42Z</time>
      </trkpt>
      <trkpt lat="46.18551" lon="2.42273">
        <ele>334</ele>
        <time>2017-04-08T13:05:45Z</time>
      </trkpt>
      <trkpt lat="46.1855" lon="2.42267">
        <ele>334</ele>
        <time>2017-04-08T13:05:48Z</time>
      </trkpt>
      <trkpt lat="46.1855" lon="2.42262">
        <ele>334</ele>
        <time>2017-04-08T13:05:51Z</time>
      </trkpt>
      <trkpt lat="46.18549" lon="2.42256">
        <ele>334</ele>
        <time>2017-04-08T13:05:54Z</time>
      </trkpt>
      <trkpt lat="46.18549" lon="2.4225">
        <ele>334</ele>
        <time>2017-04-08T13:05:57Z</time>
      </trkpt>
      <trkpt lat="46.1855" lon="2.42245">
        <ele>334</ele>
        <time>2017-04-08T13:06:00Z</time>
      </trkpt>
      <trkpt lat="46.1855" lon="2.42238">
        <ele>333</ele>
        <time>2017-04-08T13:06:04Z</time>
      </trkpt>
      <trkpt lat="46.18551" lon="2.42229">
        <ele>333</ele>
        <time>2017-04-08T13:06:08Z</time>
      </trkpt>
      <trkpt lat="46.18551" lon="2.42221">
        <ele>333</ele>
        <time>2017-04-08T13:06:12Z</time>
      </trkpt>
      <trkpt lat="46.18552" lon="2.42214">
        <ele>333</ele>
        <time>2017-04-08T13:06:15Z</time>
      </trkpt>
      <trkpt lat="46.18552" lon="2.42209">
        <ele>333</ele>
        <time>2017-04-08T13:06:18Z</time>
      </trkpt>
      <trkpt lat="46.18552" lon="2.42202">
        <ele>332</ele>
        <time>2017-04-08T13:06:21Z</time>
      </trkpt>
      <trkpt lat="46.18552" lon="2.42196">
        <ele>331</ele>
        <time>2017-04-08T13:06:24Z</time>
      </trkpt>
      <trkpt lat="46.18553" lon="2.4219">
        <ele>331</ele>
        <time>2017-04-08T13:06:27Z</time>
      </trkpt>
      <trkpt lat="46.18554" lon="2.42181">
        <ele>331</ele>
        <time>2017-04-08T13:06:31Z</time>
      </trkpt>
      <trkpt lat="46.18554" lon="2.42173">
        <ele>331</ele>
        <time>2017-04-08T13:06:34Z</time>
      </trkpt>
      <trkpt lat="46.18555" lon="2.42165">
        <ele>331</ele>
        <time>2017-04-08T13:06:37Z</time>
      </trkpt>
      <trkpt lat="46.18556" lon="2.42158">
        <ele>331</ele>
        <time>2017-04-08T13:06:40Z</time>
      </trkpt>
      <trkpt lat="46.18557" lon="2.42147">
        <ele>331</ele>
        <time>2017-04-08T13:06:44Z</time>
      </trkpt>
      <trkpt lat="46.18557" lon="2.42141">
        <ele>331</ele>
        <time>2017-04-08T13:06:47Z</time>
      </trkpt>
      <trkpt lat="46.18558" lon="2.42135">
        <ele>331</ele>
        <time>2017-04-08T13:06:50Z</time>
      </trkpt>
      <trkpt lat="46.18559" lon="2.42128">
        <ele>331</ele>
        <time>2017-04-08T13:06:53Z</time>
      </trkpt>
      <trkpt lat="46.1856" lon="2.42121">
        <ele>331</ele>
        <time>2017-04-08T13:06:57Z</time>
      </trkpt>
      <trkpt lat="46.18562" lon="2.42113">
        <ele>331</ele>
        <time>2017-04-08T13:07:00Z</time>
      </trkpt>
      <trkpt lat="46.18564" lon="2.42108">
        <ele>331</ele>
        <time>2017-04-08T13:07:03Z</time>
      </trkpt>
      <trkpt lat="46.18564" lon="2.42102">
        <ele>331</ele>
        <time>2017-04-08T13:07:06Z</time>
      </trkpt>
      <trkpt lat="46.18565" lon="2.42097">
        <ele>331</ele>
        <time>2017-04-08T13:07:09Z</time>
      </trkpt>
      <trkpt lat="46.18565" lon="2.42091">
        <ele>331</ele>
        <time>2017-04-08T13:07:12Z</time>
      </trkpt>
      <trkpt lat="46.18566" lon="2.4208">
        <ele>331</ele>
        <time>2017-04-08T13:07:16Z</time>
      </trkpt>
      <trkpt lat="46.18566" lon="2.42074">
        <ele>331</ele>
        <time>2017-04-08T13:07:19Z</time>
      </trkpt>
      <trkpt lat="46.18567" lon="2.42067">
        <ele>331</ele>
        <time>2017-04-08T13:07:22Z</time>
      </trkpt>
      <trkpt lat="46.18568" lon="2.4206">
        <ele>331</ele>
        <time>2017-04-08T13:07:25Z</time>
      </trkpt>
      <trkpt lat="46.18569" lon="2.42054">
        <ele>331</ele>
        <time>2017-04-08T13:07:28Z</time>
      </trkpt>
      <trkpt lat="46.1857" lon="2.42046">
        <ele>331</ele>
        <time>2017-04-08T13:07:31Z</time>
      </trkpt>
      <trkpt lat="46.18571" lon="2.42038">
        <ele>331</ele>
        <time>2017-04-08T13:07:34Z</time>
      </trkpt>
      <trkpt lat="46.18573" lon="2.42033">
        <ele>331</ele>
        <time>2017-04-08T13:07:37Z</time>
      </trkpt>
      <trkpt lat="46.18573" lon="2.42026">
        <ele>331</ele>
        <time>2017-04-08T13:07:40Z</time>
      </trkpt>
      <trkpt lat="46.18574" lon="2.4202">
        <ele>331</ele>
        <time>2017-04-08T13:07:43Z</time>
      </trkpt>
      <trkpt lat="46.18575" lon="2.42012">
        <ele>331</ele>
        <time>2017-04-08T13:07:47Z</time>
      </trkpt>
      <trkpt lat="46.18575" lon="2.42006">
        <ele>331</ele>
        <time>2017-04-08T13:07:50Z</time>
      </trkpt>
      <trkpt lat="46.18575" lon="2.41999">
        <ele>331</ele>
        <time>2017-04-08T13:07:53Z</time>
      </trkpt>
      <trkpt lat="46.18576" lon="2.41991">
        <ele>331</ele>
        <time>2017-04-08T13:07:56Z</time>
      </trkpt>
      <trkpt lat="46.18577" lon="2.41986">
        <ele>331</ele>
        <time>2017-04-08T13:07:59Z</time>
      </trkpt>
      <trkpt lat="46.18578" lon="2.4198">
        <ele>331</ele>
        <time>2017-04-08T13:08:02Z</time>
      </trkpt>
      <trkpt lat="46.18579" lon="2.41972">
        <ele>331</ele>
        <time>2017-04-08T13:08:05Z</time>
      </trkpt>
      <trkpt lat="46.18581" lon="2.41966">
        <ele>331</ele>
        <time>2017-04-08T13:08:08Z</time>
      </trkpt>
      <trkpt lat="46.18582" lon="2.4196">
        <ele>331</ele>
        <time>2017-04-08T13:08:11Z</time>
      </trkpt>
      <trkpt lat="46.18584" lon="2.41952">
        <ele>331</ele>
        <time>2017-04-08T13:08:14Z</time>
      </trkpt>
      <trkpt lat="46.18586" lon="2.41946">
        <ele>331</ele>
        <time>2017-04-08T13:08:17Z</time>
      </trkpt>
      <trkpt lat="46.18588" lon="2.4194">
        <ele>332</ele>
        <time>2017-04-08T13:08:20Z</time>
      </trkpt>
      <trkpt lat="46.1859" lon="2.41935">
        <ele>332</ele>
        <time>2017-04-08T13:08:23Z</time>
      </trkpt>
      <trkpt lat="46.18591" lon="2.41928">
        <ele>332</ele>
        <time>2017-04-08T13:08:26Z</time>
      </trkpt>
      <trkpt lat="46.18592" lon="2.41922">
        <ele>332</ele>
        <time>2017-04-08T13:08:29Z</time>
      </trkpt>
      <trkpt lat="46.18593" lon="2.41916">
        <ele>332</ele>
        <time>2017-04-08T13:08:32Z</time>
      </trkpt>
      <trkpt lat="46.18595" lon="2.4191">
        <ele>331</ele>
        <time>2017-04-08T13:08:35Z</time>
      </trkpt>
      <trkpt lat="46.18597" lon="2.41903">
        <ele>331</ele>
        <time>2017-04-08T13:08:38Z</time>
      </trkpt>
      <trkpt lat="46.18598" lon="2.41897">
        <ele>331</ele>
        <time>2017-04-08T13:08:41Z</time>
      </trkpt>
      <trkpt lat="46.186" lon="2.41892">
        <ele>331</ele>
        <time>2017-04-08T13:08:44Z</time>
      </trkpt>
      <trkpt lat="46.18602" lon="2.41886">
        <ele>331</ele>
        <time>2017-04-08T13:08:47Z</time>
      </trkpt>
      <trkpt lat="46.18604" lon="2.4188">
        <ele>331</ele>
        <time>2017-04-08T13:08:50Z</time>
      </trkpt>
      <trkpt lat="46.18605" lon="2.41875">
        <ele>330</ele>
        <time>2017-04-08T13:08:53Z</time>
      </trkpt>
      <trkpt lat="46.18607" lon="2.41867">
        <ele>330</ele>
        <time>2017-04-08T13:08:56Z</time>
      </trkpt>
      <trkpt lat="46.18609" lon="2.41856">
        <ele>330</ele>
        <time>2017-04-08T13:09:00Z</time>
      </trkpt>
      <trkpt lat="46.18609" lon="2.4185">
        <ele>330</ele>
        <time>2017-04-08T13:09:03Z</time>
      </trkpt>
      <trkpt lat="46.18609" lon="2.41844">
        <ele>330</ele>
        <time>2017-04-08T13:09:06Z</time>
      </trkpt>
      <trkpt lat="46.18609" lon="2.41835">
        <ele>330</ele>
        <time>2017-04-08T13:09:10Z</time>
      </trkpt>
      <trkpt lat="46.18609" lon="2.41829">
        <ele>330</ele>
        <time>2017-04-08T13:09:13Z</time>
      </trkpt>
      <trkpt lat="46.18608" lon="2.41821">
        <ele>330</ele>
        <time>2017-04-08T13:09:17Z</time>
      </trkpt>
      <trkpt lat="46.18608" lon="2.41815">
        <ele>330</ele>
        <time>2017-04-08T13:09:20Z</time>
      </trkpt>
      <trkpt lat="46.18607" lon="2.41809">
        <ele>330</ele>
        <time>2017-04-08T13:09:23Z</time>
      </trkpt>
      <trkpt lat="46.18607" lon="2.41802">
        <ele>329</ele>
        <time>2017-04-08T13:09:26Z</time>
      </trkpt>
      <trkpt lat="46.18607" lon="2.41796">
        <ele>329</ele>
        <time>2017-04-08T13:09:29Z</time>
      </trkpt>
      <trkpt lat="46.18607" lon="2.41789">
        <ele>329</ele>
        <time>2017-04-08T13:09:32Z</time>
      </trkpt>
      <trkpt lat="46.18606" lon="2.41783">
        <ele>329</ele>
        <time>2017-04-08T13:09:35Z</time>
      </trkpt>
      <trkpt lat="46.18606" lon="2.41776">
        <ele>329</ele>
        <time>2017-04-08T13:09:38Z</time>
      </trkpt>
      <trkpt lat="46.18606" lon="2.4177">
        <ele>329</ele>
        <time>2017-04-08T13:09:41Z</time>
      </trkpt>
      <trkpt lat="46.18606" lon="2.41764">
        <ele>329</ele>
        <time>2017-04-08T13:09:44Z</time>
      </trkpt>
      <trkpt lat="46.18606" lon="2.41758">
        <ele>329</ele>
        <time>2017-04-08T13:09:47Z</time>
      </trkpt>
      <trkpt lat="46.18605" lon="2.41753">
        <ele>329</ele>
        <time>2017-04-08T13:09:50Z</time>
      </trkpt>
      <trkpt lat="46.18604" lon="2.41747">
        <ele>329</ele>
        <time>2017-04-08T13:09:53Z</time>
      </trkpt>
      <trkpt lat="46.18604" lon="2.41742">
        <ele>329</ele>
        <time>2017-04-08T13:09:56Z</time>
      </trkpt>
      <trkpt lat="46.18604" lon="2.41738">
        <ele>327</ele>
        <time>2017-04-08T13:09:59Z</time>
      </trkpt>
      <trkpt lat="46.18604" lon="2.4173">
        <ele>326</ele>
        <time>2017-04-08T13:10:02Z</time>
      </trkpt>
      <trkpt lat="46.18604" lon="2.41722">
        <ele>326</ele>
        <time>2017-04-08T13:10:06Z</time>
      </trkpt>
      <trkpt lat="46.18604" lon="2.41716">
        <ele>326</ele>
        <time>2017-04-08T13:10:09Z</time>
      </trkpt>
      <trkpt lat="46.18603" lon="2.4171">
        <ele>326</ele>
        <time>2017-04-08T13:10:12Z</time>
      </trkpt>
      <trkpt lat="46.18603" lon="2.41704">
        <ele>326</ele>
        <time>2017-04-08T13:10:15Z</time>
      </trkpt>
      <trkpt lat="46.18603" lon="2.41697">
        <ele>326</ele>
        <time>2017-04-08T13:10:18Z</time>
      </trkpt>
      <trkpt lat="46.18603" lon="2.41691">
        <ele>326</ele>
        <time>2017-04-08T13:10:21Z</time>
      </trkpt>
      <trkpt lat="46.18603" lon="2.41681">
        <ele>325</ele>
        <time>2017-04-08T13:10:25Z</time>
      </trkpt>
      <trkpt lat="46.18603" lon="2.41673">
        <ele>325</ele>
        <time>2017-04-08T13:10:28Z</time>
      </trkpt>
      <trkpt lat="46.18603" lon="2.41666">
        <ele>325</ele>
        <time>2017-04-08T13:10:31Z</time>
      </trkpt>
      <trkpt lat="46.18604" lon="2.41659">
        <ele>325</ele>
        <time>2017-04-08T13:10:34Z</time>
      </trkpt>
      <trkpt lat="46.18604" lon="2.41654">
        <ele>325</ele>
        <time>2017-04-08T13:10:37Z</time>
      </trkpt>
      <trkpt lat="46.18605" lon="2.41648">
        <ele>325</ele>
        <time>2017-04-08T13:10:40Z</time>
      </trkpt>
      <trkpt lat="46.18604" lon="2.41639">
        <ele>325</ele>
        <time>2017-04-08T13:10:43Z</time>
      </trkpt>
      <trkpt lat="46.18603" lon="2.41631">
        <ele>325</ele>
        <time>2017-04-08T13:10:46Z</time>
      </trkpt>
      <trkpt lat="46.18603" lon="2.41622">
        <ele>325</ele>
        <time>2017-04-08T13:10:50Z</time>
      </trkpt>
      <trkpt lat="46.18603" lon="2.41615">
        <ele>325</ele>
        <time>2017-04-08T13:10:53Z</time>
      </trkpt>
      <trkpt lat="46.18603" lon="2.41607">
        <ele>325</ele>
        <time>2017-04-08T13:10:56Z</time>
      </trkpt>
      <trkpt lat="46.18602" lon="2.416">
        <ele>326</ele>
        <time>2017-04-08T13:10:59Z</time>
      </trkpt>
      <trkpt lat="46.18604" lon="2.41594">
        <ele>326</ele>
        <time>2017-04-08T13:11:02Z</time>
      </trkpt>
      <trkpt lat="46.18604" lon="2.41586">
        <ele>326</ele>
        <time>2017-04-08T13:11:05Z</time>
      </trkpt>
      <trkpt lat="46.18604" lon="2.41578">
        <ele>326</ele>
        <time>2017-04-08T13:11:08Z</time>
      </trkpt>
      <trkpt lat="46.18604" lon="2.41571">
        <ele>327</ele>
        <time>2017-04-08T13:11:11Z</time>
      </trkpt>
      <trkpt lat="46.18602" lon="2.41564">
        <ele>327</ele>
        <time>2017-04-08T13:11:14Z</time>
      </trkpt>
      <trkpt lat="46.18602" lon="2.41558">
        <ele>327</ele>
        <time>2017-04-08T13:11:17Z</time>
      </trkpt>
      <trkpt lat="46.18602" lon="2.41552">
        <ele>327</ele>
        <time>2017-04-08T13:11:20Z</time>
      </trkpt>
      <trkpt lat="46.18603" lon="2.41546">
        <ele>327</ele>
        <time>2017-04-08T13:11:23Z</time>
      </trkpt>
      <trkpt lat="46.18605" lon="2.4154">
        <ele>327</ele>
        <time>2017-04-08T13:11:26Z</time>
      </trkpt>
      <trkpt lat="46.18606" lon="2.41532">
        <ele>329</ele>
        <time>2017-04-08T13:11:29Z</time>
      </trkpt>
      <trkpt lat="46.18606" lon="2.41525">
        <ele>330</ele>
        <time>2017-04-08T13:11:32Z</time>
      </trkpt>
      <trkpt lat="46.18606" lon="2.41518">
        <ele>331</ele>
        <time>2017-04-08T13:11:35Z</time>
      </trkpt>
      <trkpt lat="46.18606" lon="2.41511">
        <ele>331</ele>
        <time>2017-04-08T13:11:38Z</time>
      </trkpt>
      <trkpt lat="46.18606" lon="2.41505">
        <ele>331</ele>
        <time>2017-04-08T13:11:41Z</time>
      </trkpt>
      <trkpt lat="46.18607" lon="2.41499">
        <ele>331</ele>
        <time>2017-04-08T13:11:44Z</time>
      </trkpt>
      <trkpt lat="46.18607" lon="2.41493">
        <ele>331</ele>
        <time>2017-04-08T13:11:47Z</time>
      </trkpt>
      <trkpt lat="46.18607" lon="2.41487">
        <ele>331</ele>
        <time>2017-04-08T13:11:50Z</time>
      </trkpt>
      <trkpt lat="46.18607" lon="2.41481">
        <ele>331</ele>
        <time>2017-04-08T13:11:53Z</time>
      </trkpt>
      <trkpt lat="46.18608" lon="2.41475">
        <ele>331</ele>
        <time>2017-04-08T13:11:56Z</time>
      </trkpt>
      <trkpt lat="46.1861" lon="2.41468">
        <ele>331</ele>
        <time>2017-04-08T13:11:59Z</time>
      </trkpt>
      <trkpt lat="46.18612" lon="2.41462">
        <ele>331</ele>
        <time>2017-04-08T13:12:02Z</time>
      </trkpt>
      <trkpt lat="46.18613" lon="2.41455">
        <ele>331</ele>
        <time>2017-04-08T13:12:05Z</time>
      </trkpt>
      <trkpt lat="46.18612" lon="2.41447">
        <ele>331</ele>
        <time>2017-04-08T13:12:08Z</time>
      </trkpt>
      <trkpt lat="46.18612" lon="2.41441">
        <ele>331</ele>
        <time>2017-04-08T13:12:12Z</time>
      </trkpt>
      <trkpt lat="46.18612" lon="2.41435">
        <ele>331</ele>
        <time>2017-04-08T13:12:15Z</time>
      </trkpt>
      <trkpt lat="46.18611" lon="2.41428">
        <ele>331</ele>
        <time>2017-04-08T13:12:18Z</time>
      </trkpt>
      <trkpt lat="46.1861" lon="2.41423">
        <ele>330</ele>
        <time>2017-04-08T13:12:21Z</time>
      </trkpt>
      <trkpt lat="46.18609" lon="2.41415">
        <ele>328</ele>
        <time>2017-04-08T13:12:25Z</time>
      </trkpt>
      <trkpt lat="46.18609" lon="2.41409">
        <ele>327</ele>
        <time>2017-04-08T13:12:28Z</time>
      </trkpt>
      <trkpt lat="46.18609" lon="2.41399">
        <ele>327</ele>
        <time>2017-04-08T13:12:32Z</time>
      </trkpt>
      <trkpt lat="46.18607" lon="2.41391">
        <ele>327</ele>
        <time>2017-04-08T13:12:35Z</time>
      </trkpt>
      <trkpt lat="46.18605" lon="2.41385">
        <ele>327</ele>
        <time>2017-04-08T13:12:38Z</time>
      </trkpt>
      <trkpt lat="46.18604" lon="2.41379">
        <ele>327</ele>
        <time>2017-04-08T13:12:41Z</time>
      </trkpt>
      <trkpt lat="46.18603" lon="2.41373">
        <ele>327</ele>
        <time>2017-04-08T13:12:44Z</time>
      </trkpt>
      <trkpt lat="46.18601" lon="2.41366">
        <ele>327</ele>
        <time>2017-04-08T13:12:47Z</time>
      </trkpt>
      <trkpt lat="46.18599" lon="2.4136">
        <ele>328</ele>
        <time>2017-04-08T13:12:50Z</time>
      </trkpt>
      <trkpt lat="46.18597" lon="2.41354">
        <ele>328</ele>
        <time>2017-04-08T13:12:53Z</time>
      </trkpt>
      <trkpt lat="46.18595" lon="2.41348">
        <ele>328</ele>
        <time>2017-04-08T13:12:57Z</time>
      </trkpt>
      <trkpt lat="46.18593" lon="2.41344">
        <ele>328</ele>
        <time>2017-04-08T13:13:00Z</time>
      </trkpt>
      <trkpt lat="46.18591" lon="2.41339">
        <ele>328</ele>
        <time>2017-04-08T13:13:03Z</time>
      </trkpt>
      <trkpt lat="46.18588" lon="2.41333">
        <ele>328</ele>
        <time>2017-04-08T13:13:06Z</time>
      </trkpt>
      <trkpt lat="46.18585" lon="2.41327">
        <ele>328</ele>
        <time>2017-04-08T13:13:11Z</time>
      </trkpt>
      <trkpt lat="46.18583" lon="2.41324">
        <ele>328</ele>
        <time>2017-04-08T13:13:14Z</time>
      </trkpt>
      <trkpt lat="46.18581" lon="2.41318">
        <ele>328</ele>
        <time>2017-04-08T13:13:17Z</time>
      </trkpt>
      <trkpt lat="46.18579" lon="2.41313">
        <ele>328</ele>
        <time>2017-04-08T13:13:20Z</time>
      </trkpt>
      <trkpt lat="46.18577" lon="2.41306">
        <ele>328</ele>
        <time>2017-04-08T13:13:23Z</time>
      </trkpt>
      <trkpt lat="46.18574" lon="2.413">
        <ele>328</ele>
        <time>2017-04-08T13:13:26Z</time>
      </trkpt>
      <trkpt lat="46.18571" lon="2.41293">
        <ele>328</ele>
        <time>2017-04-08T13:13:29Z</time>
      </trkpt>
      <trkpt lat="46.18569" lon="2.41288">
        <ele>328</ele>
        <time>2017-04-08T13:13:32Z</time>
      </trkpt>
      <trkpt lat="46.18566" lon="2.41281">
        <ele>328</ele>
        <time>2017-04-08T13:13:35Z</time>
      </trkpt>
      <trkpt lat="46.18562" lon="2.41276">
        <ele>328</ele>
        <time>2017-04-08T13:13:38Z</time>
      </trkpt>
      <trkpt lat="46.18558" lon="2.4127">
        <ele>328</ele>
        <time>2017-04-08T13:13:41Z</time>
      </trkpt>
      <trkpt lat="46.18554" lon="2.41262">
        <ele>327</ele>
        <time>2017-04-08T13:13:45Z</time>
      </trkpt>
      <trkpt lat="46.18549" lon="2.41255">
        <ele>327</ele>
        <time>2017-04-08T13:13:50Z</time>
      </trkpt>
      <trkpt lat="46.18547" lon="2.41252">
        <ele>327</ele>
        <time>2017-04-08T13:13:53Z</time>
      </trkpt>
      <trkpt lat="46.18545" lon="2.41248">
        <ele>327</ele>
        <time>2017-04-08T13:13:56Z</time>
      </trkpt>
      <trkpt lat="46.18544" lon="2.41243">
        <ele>327</ele>
        <time>2017-04-08T13:13:59Z</time>
      </trkpt>
      <trkpt lat="46.18541" lon="2.41236">
        <ele>327</ele>
        <time>2017-04-08T13:14:03Z</time>
      </trkpt>
      <trkpt lat="46.18538" lon="2.41231">
        <ele>327</ele>
        <time>2017-04-08T13:14:06Z</time>
      </trkpt>
      <trkpt lat="46.18535" lon="2.41226">
        <ele>327</ele>
        <time>2017-04-08T13:14:09Z</time>
      </trkpt>
      <trkpt lat="46.18533" lon="2.41219">
        <ele>327</ele>
        <time>2017-04-08T13:14:12Z</time>
      </trkpt>
      <trkpt lat="46.1853" lon="2.41214">
        <ele>327</ele>
        <time>2017-04-08T13:14:15Z</time>
      </trkpt>
      <trkpt lat="46.18526" lon="2.4121">
        <ele>327</ele>
        <time>2017-04-08T13:14:19Z</time>
      </trkpt>
      <trkpt lat="46.18523" lon="2.41206">
        <ele>327</ele>
        <time>2017-04-08T13:14:23Z</time>
      </trkpt>
      <trkpt lat="46.18519" lon="2.412">
        <ele>327</ele>
        <time>2017-04-08T13:14:27Z</time>
      </trkpt>
      <trkpt lat="46.18516" lon="2.41194">
        <ele>327</ele>
        <time>2017-04-08T13:14:31Z</time>
      </trkpt>
      <trkpt lat="46.18512" lon="2.41187">
        <ele>327</ele>
        <time>2017-04-08T13:14:35Z</time>
      </trkpt>
      <trkpt lat="46.18508" lon="2.41182">
        <ele>327</ele>
        <time>2017-04-08T13:14:39Z</time>
      </trkpt>
      <trkpt lat="46.18504" lon="2.41177">
        <ele>327</ele>
        <time>2017-04-08T13:14:42Z</time>
      </trkpt>
      <trkpt lat="46.18502" lon="2.41174">
        <ele>327</ele>
        <time>2017-04-08T13:14:45Z</time>
      </trkpt>
      <trkpt lat="46.18499" lon="2.41169">
        <ele>327</ele>
        <time>2017-04-08T13:14:49Z</time>
      </trkpt>
      <trkpt lat="46.18495" lon="2.41164">
        <ele>327</ele>
        <time>2017-04-08T13:14:53Z</time>
      </trkpt>
      <trkpt lat="46.18493" lon="2.41156">
        <ele>327</ele>
        <time>2017-04-08T13:14:57Z</time>
      </trkpt>
      <trkpt lat="46.1849" lon="2.41149">
        <ele>327</ele>
        <time>2017-04-08T13:15:00Z</time>
      </trkpt>
      <trkpt lat="46.18487" lon="2.41144">
        <ele>327</ele>
        <time>2017-04-08T13:15:03Z</time>
      </trkpt>
      <trkpt lat="46.18484" lon="2.41138">
        <ele>327</ele>
        <time>2017-04-08T13:15:06Z</time>
      </trkpt>
      <trkpt lat="46.18481" lon="2.41132">
        <ele>327</ele>
        <time>2017-04-08T13:15:09Z</time>
      </trkpt>
      <trkpt lat="46.18478" lon="2.41126">
        <ele>329</ele>
        <time>2017-04-08T13:15:12Z</time>
      </trkpt>
      <trkpt lat="46.18475" lon="2.41122">
        <ele>330</ele>
        <time>2017-04-08T13:15:15Z</time>
      </trkpt>
      <trkpt lat="46.18471" lon="2.41117">
        <ele>330</ele>
        <time>2017-04-08T13:15:19Z</time>
      </trkpt>
      <trkpt lat="46.18468" lon="2.41113">
        <ele>330</ele>
        <time>2017-04-08T13:15:22Z</time>
      </trkpt>
      <trkpt lat="46.18465" lon="2.41107">
        <ele>330</ele>
        <time>2017-04-08T13:15:25Z</time>
      </trkpt>
      <trkpt lat="46.18461" lon="2.41102">
        <ele>330</ele>
        <time>2017-04-08T13:15:29Z</time>
      </trkpt>
      <trkpt lat="46.18458" lon="2.41097">
        <ele>330</ele>
        <time>2017-04-08T13:15:33Z</time>
      </trkpt>
      <trkpt lat="46.18455" lon="2.41092">
        <ele>330</ele>
        <time>2017-04-08T13:15:36Z</time>
      </trkpt>
      <trkpt lat="46.18452" lon="2.41088">
        <ele>330</ele>
        <time>2017-04-08T13:15:39Z</time>
      </trkpt>
      <trkpt lat="46.18449" lon="2.41085">
        <ele>330</ele>
        <time>2017-04-08T13:15:42Z</time>
      </trkpt>
      <trkpt lat="46.18446" lon="2.41082">
        <ele>330</ele>
        <time>2017-04-08T13:15:45Z</time>
      </trkpt>
      <trkpt lat="46.18442" lon="2.41078">
        <ele>330</ele>
        <time>2017-04-08T13:15:48Z</time>
      </trkpt>
      <trkpt lat="46.18439" lon="2.41073">
        <ele>330</ele>
        <time>2017-04-08T13:15:52Z</time>
      </trkpt>
      <trkpt lat="46.18435" lon="2.41069">
        <ele>330</ele>
        <time>2017-04-08T13:15:55Z</time>
      </trkpt>
      <trkpt lat="46.18431" lon="2.41065">
        <ele>330</ele>
        <time>2017-04-08T13:15:58Z</time>
      </trkpt>
      <trkpt lat="46.18428" lon="2.41061">
        <ele>330</ele>
        <time>2017-04-08T13:16:01Z</time>
      </trkpt>
      <trkpt lat="46.18423" lon="2.41057">
        <ele>330</ele>
        <time>2017-04-08T13:16:04Z</time>
      </trkpt>
      <trkpt lat="46.1842" lon="2.41053">
        <ele>330</ele>
        <time>2017-04-08T13:16:07Z</time>
      </trkpt>
      <trkpt lat="46.18416" lon="2.4105">
        <ele>331</ele>
        <time>2017-04-08T13:16:10Z</time>
      </trkpt>
      <trkpt lat="46.18412" lon="2.41044">
        <ele>331</ele>
        <time>2017-04-08T13:16:13Z</time>
      </trkpt>
      <trkpt lat="46.18407" lon="2.4104">
        <ele>331</ele>
        <time>2017-04-08T13:16:17Z</time>
      </trkpt>
      <trkpt lat="46.18405" lon="2.41036">
        <ele>331</ele>
        <time>2017-04-08T13:16:20Z</time>
      </trkpt>
      <trkpt lat="46.18402" lon="2.41031">
        <ele>331</ele>
        <time>2017-04-08T13:16:23Z</time>
      </trkpt>
      <trkpt lat="46.18399" lon="2.41026">
        <ele>331</ele>
        <time>2017-04-08T13:16:26Z</time>
      </trkpt>
      <trkpt lat="46.18397" lon="2.41021">
        <ele>331</ele>
        <time>2017-04-08T13:16:29Z</time>
      </trkpt>
      <trkpt lat="46.18395" lon="2.41015">
        <ele>331</ele>
        <time>2017-04-08T13:16:32Z</time>
      </trkpt>
      <trkpt lat="46.18392" lon="2.41007">
        <ele>331</ele>
        <time>2017-04-08T13:16:35Z</time>
      </trkpt>
      <trkpt lat="46.1839" lon="2.41002">
        <ele>331</ele>
        <time>2017-04-08T13:16:38Z</time>
      </trkpt>
      <trkpt lat="46.18386" lon="2.40995">
        <ele>331</ele>
        <time>2017-04-08T13:16:41Z</time>
      </trkpt>
      <trkpt lat="46.18384" lon="2.40989">
        <ele>331</ele>
        <time>2017-04-08T13:16:44Z</time>
      </trkpt>
      <trkpt lat="46.18381" lon="2.40984">
        <ele>331</ele>
        <time>2017-04-08T13:16:47Z</time>
      </trkpt>
      <trkpt lat="46.18378" lon="2.40978">
        <ele>331</ele>
        <time>2017-04-08T13:16:50Z</time>
      </trkpt>
      <trkpt lat="46.18375" lon="2.40973">
        <ele>331</ele>
        <time>2017-04-08T13:16:53Z</time>
      </trkpt>
      <trkpt lat="46.18372" lon="2.40967">
        <ele>331</ele>
        <time>2017-04-08T13:16:56Z</time>
      </trkpt>
      <trkpt lat="46.1837" lon="2.40962">
        <ele>331</ele>
        <time>2017-04-08T13:16:59Z</time>
      </trkpt>
      <trkpt lat="46.18367" lon="2.40957">
        <ele>331</ele>
        <time>2017-04-08T13:17:02Z</time>
      </trkpt>
      <trkpt lat="46.18364" lon="2.40952">
        <ele>331</ele>
        <time>2017-04-08T13:17:05Z</time>
      </trkpt>
      <trkpt lat="46.18361" lon="2.40943">
        <ele>331</ele>
        <time>2017-04-08T13:17:08Z</time>
      </trkpt>
      <trkpt lat="46.18359" lon="2.40936">
        <ele>331</ele>
        <time>2017-04-08T13:17:11Z</time>
      </trkpt>
      <trkpt lat="46.18357" lon="2.40931">
        <ele>331</ele>
        <time>2017-04-08T13:17:14Z</time>
      </trkpt>
      <trkpt lat="46.18355" lon="2.40926">
        <ele>331</ele>
        <time>2017-04-08T13:17:17Z</time>
      </trkpt>
      <trkpt lat="46.18353" lon="2.40918">
        <ele>329</ele>
        <time>2017-04-08T13:17:21Z</time>
      </trkpt>
      <trkpt lat="46.1835" lon="2.40914">
        <ele>328</ele>
        <time>2017-04-08T13:17:25Z</time>
      </trkpt>
      <trkpt lat="46.18348" lon="2.4091">
        <ele>328</ele>
        <time>2017-04-08T13:17:28Z</time>
      </trkpt>
      <trkpt lat="46.18345" lon="2.40904">
        <ele>327</ele>
        <time>2017-04-08T13:17:32Z</time>
      </trkpt>
      <trkpt lat="46.18343" lon="2.40898">
        <ele>327</ele>
        <time>2017-04-08T13:17:35Z</time>
      </trkpt>
      <trkpt lat="46.18342" lon="2.40892">
        <ele>327</ele>
        <time>2017-04-08T13:17:38Z</time>
      </trkpt>
      <trkpt lat="46.1834" lon="2.40886">
        <ele>327</ele>
        <time>2017-04-08T13:17:41Z</time>
      </trkpt>
      <trkpt lat="46.18338" lon="2.40879">
        <ele>327</ele>
        <time>2017-04-08T13:17:44Z</time>
      </trkpt>
      <trkpt lat="46.18337" lon="2.40873">
        <ele>327</ele>
        <time>2017-04-08T13:17:47Z</time>
      </trkpt>
      <trkpt lat="46.18335" lon="2.40866">
        <ele>327</ele>
        <time>2017-04-08T13:17:50Z</time>
      </trkpt>
      <trkpt lat="46.18334" lon="2.40859">
        <ele>327</ele>
        <time>2017-04-08T13:17:53Z</time>
      </trkpt>
      <trkpt lat="46.18332" lon="2.40851">
        <ele>327</ele>
        <time>2017-04-08T13:17:57Z</time>
      </trkpt>
      <trkpt lat="46.1833" lon="2.40846">
        <ele>327</ele>
        <time>2017-04-08T13:18:00Z</time>
      </trkpt>
      <trkpt lat="46.18328" lon="2.40837">
        <ele>327</ele>
        <time>2017-04-08T13:18:04Z</time>
      </trkpt>
      <trkpt lat="46.18326" lon="2.40828">
        <ele>327</ele>
        <time>2017-04-08T13:18:07Z</time>
      </trkpt>
      <trkpt lat="46.18324" lon="2.40821">
        <ele>327</ele>
        <time>2017-04-08T13:18:10Z</time>
      </trkpt>
      <trkpt lat="46.18322" lon="2.40815">
        <ele>327</ele>
        <time>2017-04-08T13:18:13Z</time>
      </trkpt>
      <trkpt lat="46.18319" lon="2.40809">
        <ele>328</ele>
        <time>2017-04-08T13:18:16Z</time>
      </trkpt>
      <trkpt lat="46.18317" lon="2.40805">
        <ele>328</ele>
        <time>2017-04-08T13:18:19Z</time>
      </trkpt>
      <trkpt lat="46.18315" lon="2.40799">
        <ele>328</ele>
        <time>2017-04-08T13:18:22Z</time>
      </trkpt>
      <trkpt lat="46.18312" lon="2.40794">
        <ele>328</ele>
        <time>2017-04-08T13:18:25Z</time>
      </trkpt>
      <trkpt lat="46.18309" lon="2.40786">
        <ele>328</ele>
        <time>2017-04-08T13:18:29Z</time>
      </trkpt>
      <trkpt lat="46.18305" lon="2.4078">
        <ele>328</ele>
        <time>2017-04-08T13:18:32Z</time>
      </trkpt>
      <trkpt lat="46.18301" lon="2.40776">
        <ele>327</ele>
        <time>2017-04-08T13:18:36Z</time>
      </trkpt>
      <trkpt lat="46.18295" lon="2.40771">
        <ele>326</ele>
        <time>2017-04-08T13:18:40Z</time>
      </trkpt>
      <trkpt lat="46.1829" lon="2.40763">
        <ele>326</ele>
        <time>2017-04-08T13:18:43Z</time>
      </trkpt>
      <trkpt lat="46.18287" lon="2.40756">
        <ele>326</ele>
        <time>2017-04-08T13:18:46Z</time>
      </trkpt>
      <trkpt lat="46.18283" lon="2.40752">
        <ele>326</ele>
        <time>2017-04-08T13:18:49Z</time>
      </trkpt>
      <trkpt lat="46.1828" lon="2.40746">
        <ele>326</ele>
        <time>2017-04-08T13:18:52Z</time>
      </trkpt>
      <trkpt lat="46.18275" lon="2.40743">
        <ele>326</ele>
        <time>2017-04-08T13:18:55Z</time>
      </trkpt>
      <trkpt lat="46.18272" lon="2.40743">
        <ele>326</ele>
        <time>2017-04-08T13:18:58Z</time>
      </trkpt>
      <trkpt lat="46.18269" lon="2.40745">
        <ele>326</ele>
        <time>2017-04-08T13:19:01Z</time>
      </trkpt>
      <trkpt lat="46.18262" lon="2.40748">
        <ele>326</ele>
        <time>2017-04-08T13:19:05Z</time>
      </trkpt>
      <trkpt lat="46.18259" lon="2.4075">
        <ele>327</ele>
        <time>2017-04-08T13:19:08Z</time>
      </trkpt>
      <trkpt lat="46.18255" lon="2.40754">
        <ele>328</ele>
        <time>2017-04-08T13:19:12Z</time>
      </trkpt>
      <trkpt lat="46.18251" lon="2.40756">
        <ele>328</ele>
        <time>2017-04-08T13:19:16Z</time>
      </trkpt>
      <trkpt lat="46.18249" lon="2.40751">
        <ele>329</ele>
        <time>2017-04-08T13:19:19Z</time>
      </trkpt>
      <trkpt lat="46.18246" lon="2.40748">
        <ele>329</ele>
        <time>2017-04-08T13:19:23Z</time>
      </trkpt>
      <trkpt lat="46.18248" lon="2.40741">
        <ele>329</ele>
        <time>2017-04-08T13:19:28Z</time>
      </trkpt>
      <trkpt lat="46.18253" lon="2.40736">
        <ele>329</ele>
        <time>2017-04-08T13:19:31Z</time>
      </trkpt>
      <trkpt lat="46.18255" lon="2.40731">
        <ele>330</ele>
        <time>2017-04-08T13:19:34Z</time>
      </trkpt>
      <trkpt lat="46.18259" lon="2.40726">
        <ele>330</ele>
        <time>2017-04-08T13:19:38Z</time>
      </trkpt>
      <trkpt lat="46.18261" lon="2.40722">
        <ele>330</ele>
        <time>2017-04-08T13:19:41Z</time>
      </trkpt>
      <trkpt lat="46.18266" lon="2.40717">
        <ele>330</ele>
        <time>2017-04-08T13:19:45Z</time>
      </trkpt>
      <trkpt lat="46.18269" lon="2.40711">
        <ele>332</ele>
        <time>2017-04-08T13:19:48Z</time>
      </trkpt>
      <trkpt lat="46.1827" lon="2.40706">
        <ele>333</ele>
        <time>2017-04-08T13:19:51Z</time>
      </trkpt>
      <trkpt lat="46.18271" lon="2.40698">
        <ele>334</ele>
        <time>2017-04-08T13:19:55Z</time>
      </trkpt>
      <trkpt lat="46.18272" lon="2.4069">
        <ele>335</ele>
        <time>2017-04-08T13:19:59Z</time>
      </trkpt>
      <trkpt lat="46.18272" lon="2.40684">
        <ele>335</ele>
        <time>2017-04-08T13:20:02Z</time>
      </trkpt>
      <trkpt lat="46.18271" lon="2.4068">
        <ele>335</ele>
        <time>2017-04-08T13:20:05Z</time>
      </trkpt>
      <trkpt lat="46.1827" lon="2.40672">
        <ele>335</ele>
        <time>2017-04-08T13:20:08Z</time>
      </trkpt>
      <trkpt lat="46.1827" lon="2.40666">
        <ele>335</ele>
        <time>2017-04-08T13:20:11Z</time>
      </trkpt>
      <trkpt lat="46.18269" lon="2.40659">
        <ele>335</ele>
        <time>2017-04-08T13:20:14Z</time>
      </trkpt>
      <trkpt lat="46.18269" lon="2.40652">
        <ele>335</ele>
        <time>2017-04-08T13:20:17Z</time>
      </trkpt>
      <trkpt lat="46.18268" lon="2.40645">
        <ele>335</ele>
        <time>2017-04-08T13:20:20Z</time>
      </trkpt>
      <trkpt lat="46.18268" lon="2.4064">
        <ele>336</ele>
        <time>2017-04-08T13:20:23Z</time>
      </trkpt>
      <trkpt lat="46.18269" lon="2.40634">
        <ele>337</ele>
        <time>2017-04-08T13:20:26Z</time>
      </trkpt>
      <trkpt lat="46.18271" lon="2.40629">
        <ele>337</ele>
        <time>2017-04-08T13:20:29Z</time>
      </trkpt>
      <trkpt lat="46.18272" lon="2.40624">
        <ele>337</ele>
        <time>2017-04-08T13:20:32Z</time>
      </trkpt>
      <trkpt lat="46.18277" lon="2.40619">
        <ele>338</ele>
        <time>2017-04-08T13:20:36Z</time>
      </trkpt>
      <trkpt lat="46.18281" lon="2.40616">
        <ele>338</ele>
        <time>2017-04-08T13:20:40Z</time>
      </trkpt>
      <trkpt lat="46.18285" lon="2.40614">
        <ele>338</ele>
        <time>2017-04-08T13:20:43Z</time>
      </trkpt>
      <trkpt lat="46.18289" lon="2.40613">
        <ele>338</ele>
        <time>2017-04-08T13:20:46Z</time>
      </trkpt>
      <trkpt lat="46.18292" lon="2.40616">
        <ele>338</ele>
        <time>2017-04-08T13:20:51Z</time>
      </trkpt>
      <trkpt lat="46.18295" lon="2.40617">
        <ele>336</ele>
        <time>2017-04-08T13:20:55Z</time>
      </trkpt>
      <trkpt lat="46.183" lon="2.40615">
        <ele>334</ele>
        <time>2017-04-08T13:20:58Z</time>
      </trkpt>
      <trkpt lat="46.18306" lon="2.40613">
        <ele>333</ele>
        <time>2017-04-08T13:21:01Z</time>
      </trkpt>
      <trkpt lat="46.18315" lon="2.40611">
        <ele>333</ele>
        <time>2017-04-08T13:21:05Z</time>
      </trkpt>
      <trkpt lat="46.18323" lon="2.40611">
        <ele>333</ele>
        <time>2017-04-08T13:21:08Z</time>
      </trkpt>
      <trkpt lat="46.18329" lon="2.4061">
        <ele>336</ele>
        <time>2017-04-08T13:21:11Z</time>
      </trkpt>
      <trkpt lat="46.18332" lon="2.4061">
        <ele>337</ele>
        <time>2017-04-08T13:21:14Z</time>
      </trkpt>
      <trkpt lat="46.18337" lon="2.4061">
        <ele>338</ele>
        <time>2017-04-08T13:21:17Z</time>
      </trkpt>
      <trkpt lat="46.18343" lon="2.4061">
        <ele>340</ele>
        <time>2017-04-08T13:21:21Z</time>
      </trkpt>
      <trkpt lat="46.18351" lon="2.40608">
        <ele>344</ele>
        <time>2017-04-08T13:21:24Z</time>
      </trkpt>
      <trkpt lat="46.18353" lon="2.40609">
        <ele>344</ele>
        <time>2017-04-08T13:21:30Z</time>
      </trkpt>
      <trkpt lat="46.18355" lon="2.40611">
        <ele>344</ele>
        <time>2017-04-08T13:21:34Z</time>
      </trkpt>
      <trkpt lat="46.18359" lon="2.40611">
        <ele>344</ele>
        <time>2017-04-08T13:21:37Z</time>
      </trkpt>
      <trkpt lat="46.18364" lon="2.40611">
        <ele>344</ele>
        <time>2017-04-08T13:21:40Z</time>
      </trkpt>
      <trkpt lat="46.18367" lon="2.4061">
        <ele>343</ele>
        <time>2017-04-08T13:21:44Z</time>
      </trkpt>
      <trkpt lat="46.18369" lon="2.40611">
        <ele>341</ele>
        <time>2017-04-08T13:21:47Z</time>
      </trkpt>
      <trkpt lat="46.18373" lon="2.4061">
        <ele>339</ele>
        <time>2017-04-08T13:21:50Z</time>
      </trkpt>
      <trkpt lat="46.18377" lon="2.4061">
        <ele>337</ele>
        <time>2017-04-08T13:21:54Z</time>
      </trkpt>
      <trkpt lat="46.1838" lon="2.40609">
        <ele>336</ele>
        <time>2017-04-08T13:21:57Z</time>
      </trkpt>
      <trkpt lat="46.18384" lon="2.40608">
        <ele>336</ele>
        <time>2017-04-08T13:22:00Z</time>
      </trkpt>
      <trkpt lat="46.18389" lon="2.40606">
        <ele>335</ele>
        <time>2017-04-08T13:22:03Z</time>
      </trkpt>
      <trkpt lat="46.18394" lon="2.40604">
        <ele>335</ele>
        <time>2017-04-08T13:22:07Z</time>
      </trkpt>
      <trkpt lat="46.18399" lon="2.40602">
        <ele>334</ele>
        <time>2017-04-08T13:22:10Z</time>
      </trkpt>
      <trkpt lat="46.18403" lon="2.40601">
        <ele>334</ele>
        <time>2017-04-08T13:22:13Z</time>
      </trkpt>
      <trkpt lat="46.1841" lon="2.40602">
        <ele>334</ele>
        <time>2017-04-08T13:22:18Z</time>
      </trkpt>
      <trkpt lat="46.18415" lon="2.40602">
        <ele>334</ele>
        <time>2017-04-08T13:22:21Z</time>
      </trkpt>
      <trkpt lat="46.18422" lon="2.40602">
        <ele>334</ele>
        <time>2017-04-08T13:22:24Z</time>
      </trkpt>
      <trkpt lat="46.18425" lon="2.40602">
        <ele>334</ele>
        <time>2017-04-08T13:22:27Z</time>
      </trkpt>
      <trkpt lat="46.1843" lon="2.40603">
        <ele>334</ele>
        <time>2017-04-08T13:22:31Z</time>
      </trkpt>
      <trkpt lat="46.18435" lon="2.40603">
        <ele>334</ele>
        <time>2017-04-08T13:22:34Z</time>
      </trkpt>
      <trkpt lat="46.18439" lon="2.40605">
        <ele>334</ele>
        <time>2017-04-08T13:22:38Z</time>
      </trkpt>
      <trkpt lat="46.18442" lon="2.40607">
        <ele>333</ele>
        <time>2017-04-08T13:22:41Z</time>
      </trkpt>
      <trkpt lat="46.18445" lon="2.40608">
        <ele>332</ele>
        <time>2017-04-08T13:22:44Z</time>
      </trkpt>
      <trkpt lat="46.1845" lon="2.4061">
        <ele>331</ele>
        <time>2017-04-08T13:22:47Z</time>
      </trkpt>
      <trkpt lat="46.18455" lon="2.40613">
        <ele>331</ele>
        <time>2017-04-08T13:22:51Z</time>
      </trkpt>
      <trkpt lat="46.18459" lon="2.40615">
        <ele>331</ele>
        <time>2017-04-08T13:22:54Z</time>
      </trkpt>
      <trkpt lat="46.18462" lon="2.40617">
        <ele>331</ele>
        <time>2017-04-08T13:22:57Z</time>
      </trkpt>
      <trkpt lat="46.18467" lon="2.40621">
        <ele>331</ele>
        <time>2017-04-08T13:23:00Z</time>
      </trkpt>
      <trkpt lat="46.18471" lon="2.40625">
        <ele>331</ele>
        <time>2017-04-08T13:23:04Z</time>
      </trkpt>
      <trkpt lat="46.18475" lon="2.40628">
        <ele>331</ele>
        <time>2017-04-08T13:23:08Z</time>
      </trkpt>
      <trkpt lat="46.1848" lon="2.40632">
        <ele>330</ele>
        <time>2017-04-08T13:23:12Z</time>
      </trkpt>
      <trkpt lat="46.18484" lon="2.40634">
        <ele>330</ele>
        <time>2017-04-08T13:23:15Z</time>
      </trkpt>
      <trkpt lat="46.18487" lon="2.40638">
        <ele>330</ele>
        <time>2017-04-08T13:23:18Z</time>
      </trkpt>
      <trkpt lat="46.18492" lon="2.40643">
        <ele>330</ele>
        <time>2017-04-08T13:23:22Z</time>
      </trkpt>
      <trkpt lat="46.18497" lon="2.40646">
        <ele>330</ele>
        <time>2017-04-08T13:23:26Z</time>
      </trkpt>
      <trkpt lat="46.18502" lon="2.4065">
        <ele>330</ele>
        <time>2017-04-08T13:23:30Z</time>
      </trkpt>
      <trkpt lat="46.18506" lon="2.40654">
        <ele>330</ele>
        <time>2017-04-08T13:23:34Z</time>
      </trkpt>
      <trkpt lat="46.18511" lon="2.40659">
        <ele>330</ele>
        <time>2017-04-08T13:23:38Z</time>
      </trkpt>
      <trkpt lat="46.18516" lon="2.40665">
        <ele>330</ele>
        <time>2017-04-08T13:23:41Z</time>
      </trkpt>
      <trkpt lat="46.1852" lon="2.4067">
        <ele>330</ele>
        <time>2017-04-08T13:23:46Z</time>
      </trkpt>
      <trkpt lat="46.18526" lon="2.40674">
        <ele>330</ele>
        <time>2017-04-08T13:23:51Z</time>
      </trkpt>
      <trkpt lat="46.18532" lon="2.40677">
        <ele>330</ele>
        <time>2017-04-08T13:23:55Z</time>
      </trkpt>
      <trkpt lat="46.18536" lon="2.40681">
        <ele>330</ele>
        <time>2017-04-08T13:23:59Z</time>
      </trkpt>
      <trkpt lat="46.1854" lon="2.40684">
        <ele>330</ele>
        <time>2017-04-08T13:24:03Z</time>
      </trkpt>
      <trkpt lat="46.18543" lon="2.40685">
        <ele>330</ele>
        <time>2017-04-08T13:24:07Z</time>
      </trkpt>
      <trkpt lat="46.18546" lon="2.40687">
        <ele>329</ele>
        <time>2017-04-08T13:24:11Z</time>
      </trkpt>
      <trkpt lat="46.18549" lon="2.40689">
        <ele>329</ele>
        <time>2017-04-08T13:24:15Z</time>
      </trkpt>
      <trkpt lat="46.1855" lon="2.4069">
        <ele>329</ele>
        <time>2017-04-08T13:24:35Z</time>
      </trkpt>
      <trkpt lat="46.18552" lon="2.4069">
        <ele>329</ele>
        <time>2017-04-08T13:24:57Z</time>
      </trkpt>
      <trkpt lat="46.18555" lon="2.40692">
        <ele>329</ele>
        <time>2017-04-08T13:25:00Z</time>
      </trkpt>
      <trkpt lat="46.18558" lon="2.40694">
        <ele>329</ele>
        <time>2017-04-08T13:25:04Z</time>
      </trkpt>
      <trkpt lat="46.18562" lon="2.40696">
        <ele>329</ele>
        <time>2017-04-08T13:25:07Z</time>
      </trkpt>
      <trkpt lat="46.18567" lon="2.40699">
        <ele>329</ele>
        <time>2017-04-08T13:25:10Z</time>
      </trkpt>
      <trkpt lat="46.18573" lon="2.40702">
        <ele>329</ele>
        <time>2017-04-08T13:25:14Z</time>
      </trkpt>
      <trkpt lat="46.18576" lon="2.40704">
        <ele>329</ele>
        <time>2017-04-08T13:25:17Z</time>
      </trkpt>
      <trkpt lat="46.18579" lon="2.40705">
        <ele>330</ele>
        <time>2017-04-08T13:25:20Z</time>
      </trkpt>
      <trkpt lat="46.18583" lon="2.40707">
        <ele>330</ele>
        <time>2017-04-08T13:25:24Z</time>
      </trkpt>
      <trkpt lat="46.18586" lon="2.40708">
        <ele>331</ele>
        <time>2017-04-08T13:25:28Z</time>
      </trkpt>
      <trkpt lat="46.18589" lon="2.40709">
        <ele>332</ele>
        <time>2017-04-08T13:25:31Z</time>
      </trkpt>
      <trkpt lat="46.18593" lon="2.40708">
        <ele>332</ele>
        <time>2017-04-08T13:25:36Z</time>
      </trkpt>
      <trkpt lat="46.18596" lon="2.40709">
        <ele>332</ele>
        <time>2017-04-08T13:25:40Z</time>
      </trkpt>
      <trkpt lat="46.186" lon="2.4071">
        <ele>333</ele>
        <time>2017-04-08T13:25:44Z</time>
      </trkpt>
      <trkpt lat="46.18604" lon="2.40707">
        <ele>335</ele>
        <time>2017-04-08T13:25:48Z</time>
      </trkpt>
      <trkpt lat="46.18607" lon="2.40706">
        <ele>336</ele>
        <time>2017-04-08T13:25:51Z</time>
      </trkpt>
      <trkpt lat="46.18608" lon="2.40704">
        <ele>338</ele>
        <time>2017-04-08T13:26:00Z</time>
      </trkpt>
      <trkpt lat="46.18611" lon="2.40701">
        <ele>338</ele>
        <time>2017-04-08T13:26:04Z</time>
      </trkpt>
      <trkpt lat="46.18614" lon="2.40698">
        <ele>338</ele>
        <time>2017-04-08T13:26:07Z</time>
      </trkpt>
      <trkpt lat="46.18616" lon="2.40695">
        <ele>338</ele>
        <time>2017-04-08T13:26:12Z</time>
      </trkpt>
      <trkpt lat="46.18619" lon="2.40691">
        <ele>338</ele>
        <time>2017-04-08T13:26:15Z</time>
      </trkpt>
      <trkpt lat="46.18622" lon="2.40687">
        <ele>337</ele>
        <time>2017-04-08T13:26:20Z</time>
      </trkpt>
      <trkpt lat="46.18625" lon="2.40684">
        <ele>336</ele>
        <time>2017-04-08T13:26:24Z</time>
      </trkpt>
      <trkpt lat="46.18628" lon="2.40677">
        <ele>335</ele>
        <time>2017-04-08T13:26:29Z</time>
      </trkpt>
      <trkpt lat="46.1863" lon="2.40672">
        <ele>334</ele>
        <time>2017-04-08T13:26:33Z</time>
      </trkpt>
      <trkpt lat="46.18631" lon="2.40667">
        <ele>333</ele>
        <time>2017-04-08T13:26:37Z</time>
      </trkpt>
      <trkpt lat="46.18633" lon="2.40663">
        <ele>332</ele>
        <time>2017-04-08T13:26:40Z</time>
      </trkpt>
      <trkpt lat="46.18634" lon="2.40657">
        <ele>331</ele>
        <time>2017-04-08T13:26:44Z</time>
      </trkpt>
      <trkpt lat="46.18636" lon="2.40652">
        <ele>330</ele>
        <time>2017-04-08T13:26:47Z</time>
      </trkpt>
      <trkpt lat="46.18637" lon="2.40647">
        <ele>330</ele>
        <time>2017-04-08T13:26:50Z</time>
      </trkpt>
      <trkpt lat="46.18639" lon="2.40642">
        <ele>330</ele>
        <time>2017-04-08T13:26:53Z</time>
      </trkpt>
      <trkpt lat="46.18642" lon="2.40635">
        <ele>330</ele>
        <time>2017-04-08T13:26:57Z</time>
      </trkpt>
      <trkpt lat="46.18644" lon="2.4063">
        <ele>330</ele>
        <time>2017-04-08T13:27:00Z</time>
      </trkpt>
      <trkpt lat="46.18646" lon="2.40624">
        <ele>330</ele>
        <time>2017-04-08T13:27:03Z</time>
      </trkpt>
      <trkpt lat="46.18648" lon="2.40619">
        <ele>330</ele>
        <time>2017-04-08T13:27:06Z</time>
      </trkpt>
      <trkpt lat="46.1865" lon="2.40614">
        <ele>330</ele>
        <time>2017-04-08T13:27:09Z</time>
      </trkpt>
      <trkpt lat="46.18652" lon="2.40609">
        <ele>330</ele>
        <time>2017-04-08T13:27:12Z</time>
      </trkpt>
      <trkpt lat="46.18654" lon="2.40604">
        <ele>330</ele>
        <time>2017-04-08T13:27:15Z</time>
      </trkpt>
      <trkpt lat="46.18656" lon="2.40599">
        <ele>330</ele>
        <time>2017-04-08T13:27:18Z</time>
      </trkpt>
      <trkpt lat="46.18658" lon="2.40594">
        <ele>330</ele>
        <time>2017-04-08T13:27:21Z</time>
      </trkpt>
      <trkpt lat="46.1866" lon="2.40588">
        <ele>330</ele>
        <time>2017-04-08T13:27:24Z</time>
      </trkpt>
      <trkpt lat="46.18663" lon="2.40584">
        <ele>330</ele>
        <time>2017-04-08T13:27:27Z</time>
      </trkpt>
      <trkpt lat="46.18665" lon="2.4058">
        <ele>330</ele>
        <time>2017-04-08T13:27:30Z</time>
      </trkpt>
      <trkpt lat="46.18669" lon="2.40576">
        <ele>330</ele>
        <time>2017-04-08T13:27:33Z</time>
      </trkpt>
      <trkpt lat="46.18673" lon="2.40573">
        <ele>330</ele>
        <time>2017-04-08T13:27:36Z</time>
      </trkpt>
      <trkpt lat="46.18676" lon="2.4057">
        <ele>330</ele>
        <time>2017-04-08T13:27:39Z</time>
      </trkpt>
      <trkpt lat="46.18681" lon="2.40566">
        <ele>330</ele>
        <time>2017-04-08T13:27:43Z</time>
      </trkpt>
      <trkpt lat="46.18687" lon="2.40563">
        <ele>330</ele>
        <time>2017-04-08T13:27:46Z</time>
      </trkpt>
      <trkpt lat="46.18691" lon="2.40561">
        <ele>330</ele>
        <time>2017-04-08T13:27:50Z</time>
      </trkpt>
      <trkpt lat="46.18696" lon="2.4056">
        <ele>330</ele>
        <time>2017-04-08T13:27:53Z</time>
      </trkpt>
      <trkpt lat="46.187" lon="2.40559">
        <ele>330</ele>
        <time>2017-04-08T13:27:56Z</time>
      </trkpt>
      <trkpt lat="46.18704" lon="2.40559">
        <ele>329</ele>
        <time>2017-04-08T13:27:59Z</time>
      </trkpt>
      <trkpt lat="46.18709" lon="2.4056">
        <ele>328</ele>
        <time>2017-04-08T13:28:02Z</time>
      </trkpt>
      <trkpt lat="46.18713" lon="2.40563">
        <ele>328</ele>
        <time>2017-04-08T13:28:05Z</time>
      </trkpt>
      <trkpt lat="46.18717" lon="2.40565">
        <ele>328</ele>
        <time>2017-04-08T13:28:08Z</time>
      </trkpt>
      <trkpt lat="46.18721" lon="2.40569">
        <ele>328</ele>
        <time>2017-04-08T13:28:12Z</time>
      </trkpt>
      <trkpt lat="46.18725" lon="2.40573">
        <ele>328</ele>
        <time>2017-04-08T13:28:15Z</time>
      </trkpt>
      <trkpt lat="46.18732" lon="2.40577">
        <ele>328</ele>
        <time>2017-04-08T13:28:19Z</time>
      </trkpt>
      <trkpt lat="46.18739" lon="2.40584">
        <ele>328</ele>
        <time>2017-04-08T13:28:24Z</time>
      </trkpt>
      <trkpt lat="46.18742" lon="2.4059">
        <ele>328</ele>
        <time>2017-04-08T13:28:27Z</time>
      </trkpt>
      <trkpt lat="46.18744" lon="2.40595">
        <ele>328</ele>
        <time>2017-04-08T13:28:30Z</time>
      </trkpt>
      <trkpt lat="46.18749" lon="2.40599">
        <ele>328</ele>
        <time>2017-04-08T13:28:33Z</time>
      </trkpt>
      <trkpt lat="46.18753" lon="2.40605">
        <ele>328</ele>
        <time>2017-04-08T13:28:38Z</time>
      </trkpt>
      <trkpt lat="46.18755" lon="2.40611">
        <ele>328</ele>
        <time>2017-04-08T13:28:41Z</time>
      </trkpt>
      <trkpt lat="46.18757" lon="2.40616">
        <ele>328</ele>
        <time>2017-04-08T13:28:44Z</time>
      </trkpt>
      <trkpt lat="46.18758" lon="2.40623">
        <ele>328</ele>
        <time>2017-04-08T13:28:48Z</time>
      </trkpt>
      <trkpt lat="46.18761" lon="2.40631">
        <ele>328</ele>
        <time>2017-04-08T13:28:53Z</time>
      </trkpt>
      <trkpt lat="46.18763" lon="2.40635">
        <ele>328</ele>
        <time>2017-04-08T13:28:56Z</time>
      </trkpt>
      <trkpt lat="46.18766" lon="2.4064">
        <ele>328</ele>
        <time>2017-04-08T13:28:59Z</time>
      </trkpt>
      <trkpt lat="46.18769" lon="2.40646">
        <ele>328</ele>
        <time>2017-04-08T13:29:02Z</time>
      </trkpt>
      <trkpt lat="46.18771" lon="2.40647">
        <ele>328</ele>
        <time>2017-04-08T13:29:05Z</time>
      </trkpt>
      <trkpt lat="46.18775" lon="2.40648">
        <ele>331</ele>
        <time>2017-04-08T13:29:08Z</time>
      </trkpt>
      <trkpt lat="46.18783" lon="2.40652">
        <ele>332</ele>
        <time>2017-04-08T13:29:12Z</time>
      </trkpt>
      <trkpt lat="46.18789" lon="2.40654">
        <ele>335</ele>
        <time>2017-04-08T13:29:15Z</time>
      </trkpt>
      <trkpt lat="46.18792" lon="2.40659">
        <ele>337</ele>
        <time>2017-04-08T13:29:18Z</time>
      </trkpt>
      <trkpt lat="46.18798" lon="2.4066">
        <ele>337</ele>
        <time>2017-04-08T13:29:21Z</time>
      </trkpt>
      <trkpt lat="46.18803" lon="2.4066">
        <ele>337</ele>
        <time>2017-04-08T13:29:25Z</time>
      </trkpt>
      <trkpt lat="46.18808" lon="2.4066">
        <ele>337</ele>
        <time>2017-04-08T13:29:28Z</time>
      </trkpt>
      <trkpt lat="46.18814" lon="2.40661">
        <ele>337</ele>
        <time>2017-04-08T13:29:32Z</time>
      </trkpt>
      <trkpt lat="46.18819" lon="2.40659">
        <ele>338</ele>
        <time>2017-04-08T13:29:35Z</time>
      </trkpt>
      <trkpt lat="46.18824" lon="2.40658">
        <ele>340</ele>
        <time>2017-04-08T13:29:39Z</time>
      </trkpt>
      <trkpt lat="46.18829" lon="2.40659">
        <ele>342</ele>
        <time>2017-04-08T13:29:42Z</time>
      </trkpt>
      <trkpt lat="46.18839" lon="2.40657">
        <ele>345</ele>
        <time>2017-04-08T13:29:45Z</time>
      </trkpt>
      <trkpt lat="46.18845" lon="2.40657">
        <ele>348</ele>
        <time>2017-04-08T13:29:48Z</time>
      </trkpt>
      <trkpt lat="46.1885" lon="2.40659">
        <ele>352</ele>
        <time>2017-04-08T13:29:53Z</time>
      </trkpt>
      <trkpt lat="46.18854" lon="2.40658">
        <ele>353</ele>
        <time>2017-04-08T13:29:57Z</time>
      </trkpt>
      <trkpt lat="46.18857" lon="2.40658">
        <ele>353</ele>
        <time>2017-04-08T13:30:00Z</time>
      </trkpt>
      <trkpt lat="46.18859" lon="2.40659">
        <ele>353</ele>
        <time>2017-04-08T13:30:04Z</time>
      </trkpt>
      <trkpt lat="46.18862" lon="2.4066">
        <ele>352</ele>
        <time>2017-04-08T13:30:07Z</time>
      </trkpt>
      <trkpt lat="46.18866" lon="2.4066">
        <ele>350</ele>
        <time>2017-04-08T13:30:10Z</time>
      </trkpt>
      <trkpt lat="46.18867" lon="2.40662">
        <ele>349</ele>
        <time>2017-04-08T13:30:13Z</time>
      </trkpt>
      <trkpt lat="46.1887" lon="2.40663">
        <ele>348</ele>
        <time>2017-04-08T13:30:16Z</time>
      </trkpt>
      <trkpt lat="46.18874" lon="2.40662">
        <ele>348</ele>
        <time>2017-04-08T13:30:19Z</time>
      </trkpt>
      <trkpt lat="46.18878" lon="2.40662">
        <ele>348</ele>
        <time>2017-04-08T13:30:23Z</time>
      </trkpt>
      <trkpt lat="46.18882" lon="2.40661">
        <ele>348</ele>
        <time>2017-04-08T13:30:26Z</time>
      </trkpt>
      <trkpt lat="46.18886" lon="2.40658">
        <ele>348</ele>
        <time>2017-04-08T13:30:29Z</time>
      </trkpt>
      <trkpt lat="46.18889" lon="2.40656">
        <ele>348</ele>
        <time>2017-04-08T13:30:32Z</time>
      </trkpt>
      <trkpt lat="46.18892" lon="2.40653">
        <ele>348</ele>
        <time>2017-04-08T13:30:36Z</time>
      </trkpt>
      <trkpt lat="46.18897" lon="2.40651">
        <ele>348</ele>
        <time>2017-04-08T13:30:39Z</time>
      </trkpt>
      <trkpt lat="46.18904" lon="2.40647">
        <ele>348</ele>
        <time>2017-04-08T13:30:44Z</time>
      </trkpt>
      <trkpt lat="46.18908" lon="2.40645">
        <ele>348</ele>
        <time>2017-04-08T13:30:47Z</time>
      </trkpt>
      <trkpt lat="46.18911" lon="2.4064">
        <ele>348</ele>
        <time>2017-04-08T13:30:51Z</time>
      </trkpt>
      <trkpt lat="46.18914" lon="2.40636">
        <ele>348</ele>
        <time>2017-04-08T13:30:54Z</time>
      </trkpt>
      <trkpt lat="46.18917" lon="2.40631">
        <ele>346</ele>
        <time>2017-04-08T13:30:57Z</time>
      </trkpt>
      <trkpt lat="46.18922" lon="2.40627">
        <ele>345</ele>
        <time>2017-04-08T13:31:01Z</time>
      </trkpt>
      <trkpt lat="46.18924" lon="2.40624">
        <ele>345</ele>
        <time>2017-04-08T13:31:04Z</time>
      </trkpt>
      <trkpt lat="46.18927" lon="2.4062">
        <ele>345</ele>
        <time>2017-04-08T13:31:07Z</time>
      </trkpt>
      <trkpt lat="46.18932" lon="2.40613">
        <ele>345</ele>
        <time>2017-04-08T13:31:11Z</time>
      </trkpt>
      <trkpt lat="46.18932" lon="2.40607">
        <ele>345</ele>
        <time>2017-04-08T13:31:15Z</time>
      </trkpt>
      <trkpt lat="46.18935" lon="2.40602">
        <ele>345</ele>
        <time>2017-04-08T13:31:18Z</time>
      </trkpt>
      <trkpt lat="46.18937" lon="2.40596">
        <ele>345</ele>
        <time>2017-04-08T13:31:22Z</time>
      </trkpt>
      <trkpt lat="46.18937" lon="2.40591">
        <ele>345</ele>
        <time>2017-04-08T13:31:25Z</time>
      </trkpt>
      <trkpt lat="46.18937" lon="2.40586">
        <ele>345</ele>
        <time>2017-04-08T13:31:28Z</time>
      </trkpt>
      <trkpt lat="46.18937" lon="2.40581">
        <ele>345</ele>
        <time>2017-04-08T13:31:31Z</time>
      </trkpt>
      <trkpt lat="46.18938" lon="2.40576">
        <ele>345</ele>
        <time>2017-04-08T13:31:34Z</time>
      </trkpt>
      <trkpt lat="46.18938" lon="2.40571">
        <ele>345</ele>
        <time>2017-04-08T13:31:37Z</time>
      </trkpt>
      <trkpt lat="46.18938" lon="2.40566">
        <ele>345</ele>
        <time>2017-04-08T13:31:40Z</time>
      </trkpt>
      <trkpt lat="46.18938" lon="2.40561">
        <ele>345</ele>
        <time>2017-04-08T13:31:43Z</time>
      </trkpt>
      <trkpt lat="46.18938" lon="2.40552">
        <ele>345</ele>
        <time>2017-04-08T13:31:48Z</time>
      </trkpt>
      <trkpt lat="46.18938" lon="2.40546">
        <ele>345</ele>
        <time>2017-04-08T13:31:52Z</time>
      </trkpt>
      <trkpt lat="46.18938" lon="2.4054">
        <ele>345</ele>
        <time>2017-04-08T13:31:55Z</time>
      </trkpt>
      <trkpt lat="46.18941" lon="2.40535">
        <ele>345</ele>
        <time>2017-04-08T13:31:58Z</time>
      </trkpt>
      <trkpt lat="46.18943" lon="2.40532">
        <ele>345</ele>
        <time>2017-04-08T13:32:01Z</time>
      </trkpt>
      <trkpt lat="46.18946" lon="2.40527">
        <ele>345</ele>
        <time>2017-04-08T13:32:04Z</time>
      </trkpt>
      <trkpt lat="46.18948" lon="2.40523">
        <ele>345</ele>
        <time>2017-04-08T13:32:07Z</time>
      </trkpt>
      <trkpt lat="46.18948" lon="2.40516">
        <ele>345</ele>
        <time>2017-04-08T13:32:10Z</time>
      </trkpt>
      <trkpt lat="46.18947" lon="2.40511">
        <ele>345</ele>
        <time>2017-04-08T13:32:13Z</time>
      </trkpt>
      <trkpt lat="46.18948" lon="2.40506">
        <ele>345</ele>
        <time>2017-04-08T13:32:17Z</time>
      </trkpt>
      <trkpt lat="46.18949" lon="2.405">
        <ele>345</ele>
        <time>2017-04-08T13:32:20Z</time>
      </trkpt>
      <trkpt lat="46.1895" lon="2.40496">
        <ele>345</ele>
        <time>2017-04-08T13:32:23Z</time>
      </trkpt>
      <trkpt lat="46.1895" lon="2.40491">
        <ele>345</ele>
        <time>2017-04-08T13:32:26Z</time>
      </trkpt>
      <trkpt lat="46.18951" lon="2.40484">
        <ele>345</ele>
        <time>2017-04-08T13:32:29Z</time>
      </trkpt>
      <trkpt lat="46.18953" lon="2.40477">
        <ele>346</ele>
        <time>2017-04-08T13:32:33Z</time>
      </trkpt>
      <trkpt lat="46.18953" lon="2.40472">
        <ele>346</ele>
        <time>2017-04-08T13:32:36Z</time>
      </trkpt>
      <trkpt lat="46.18953" lon="2.40467">
        <ele>347</ele>
        <time>2017-04-08T13:32:39Z</time>
      </trkpt>
      <trkpt lat="46.18953" lon="2.40462">
        <ele>347</ele>
        <time>2017-04-08T13:32:42Z</time>
      </trkpt>
      <trkpt lat="46.18955" lon="2.40456">
        <ele>349</ele>
        <time>2017-04-08T13:32:46Z</time>
      </trkpt>
      <trkpt lat="46.18956" lon="2.40451">
        <ele>350</ele>
        <time>2017-04-08T13:32:49Z</time>
      </trkpt>
      <trkpt lat="46.18956" lon="2.40446">
        <ele>350</ele>
        <time>2017-04-08T13:32:52Z</time>
      </trkpt>
      <trkpt lat="46.18957" lon="2.40441">
        <ele>350</ele>
        <time>2017-04-08T13:32:55Z</time>
      </trkpt>
      <trkpt lat="46.18956" lon="2.40436">
        <ele>350</ele>
        <time>2017-04-08T13:32:58Z</time>
      </trkpt>
      <trkpt lat="46.18956" lon="2.40431">
        <ele>350</ele>
        <time>2017-04-08T13:33:01Z</time>
      </trkpt>
      <trkpt lat="46.18958" lon="2.40427">
        <ele>351</ele>
        <time>2017-04-08T13:33:04Z</time>
      </trkpt>
      <trkpt lat="46.1896" lon="2.40422">
        <ele>351</ele>
        <time>2017-04-08T13:33:07Z</time>
      </trkpt>
      <trkpt lat="46.18962" lon="2.40418">
        <ele>351</ele>
        <time>2017-04-08T13:33:10Z</time>
      </trkpt>
      <trkpt lat="46.18964" lon="2.40412">
        <ele>352</ele>
        <time>2017-04-08T13:33:13Z</time>
      </trkpt>
      <trkpt lat="46.18966" lon="2.40408">
        <ele>353</ele>
        <time>2017-04-08T13:33:16Z</time>
      </trkpt>
      <trkpt lat="46.18968" lon="2.40405">
        <ele>353</ele>
        <time>2017-04-08T13:33:19Z</time>
      </trkpt>
      <trkpt lat="46.18969" lon="2.40399">
        <ele>355</ele>
        <time>2017-04-08T13:33:23Z</time>
      </trkpt>
      <trkpt lat="46.18972" lon="2.40392">
        <ele>357</ele>
        <time>2017-04-08T13:33:27Z</time>
      </trkpt>
      <trkpt lat="46.18975" lon="2.40388">
        <ele>357</ele>
        <time>2017-04-08T13:33:30Z</time>
      </trkpt>
      <trkpt lat="46.18977" lon="2.40381">
        <ele>357</ele>
        <time>2017-04-08T13:33:33Z</time>
      </trkpt>
      <trkpt lat="46.18978" lon="2.40375">
        <ele>358</ele>
        <time>2017-04-08T13:33:37Z</time>
      </trkpt>
      <trkpt lat="46.18982" lon="2.40368">
        <ele>358</ele>
        <time>2017-04-08T13:33:41Z</time>
      </trkpt>
      <trkpt lat="46.18983" lon="2.40361">
        <ele>358</ele>
        <time>2017-04-08T13:33:45Z</time>
      </trkpt>
      <trkpt lat="46.18985" lon="2.40355">
        <ele>358</ele>
        <time>2017-04-08T13:33:48Z</time>
      </trkpt>
      <trkpt lat="46.18985" lon="2.40348">
        <ele>358</ele>
        <time>2017-04-08T13:33:52Z</time>
      </trkpt>
      <trkpt lat="46.18988" lon="2.40342">
        <ele>360</ele>
        <time>2017-04-08T13:33:56Z</time>
      </trkpt>
      <trkpt lat="46.18992" lon="2.40334">
        <ele>362</ele>
        <time>2017-04-08T13:34:00Z</time>
      </trkpt>
      <trkpt lat="46.18993" lon="2.40329">
        <ele>363</ele>
        <time>2017-04-08T13:34:03Z</time>
      </trkpt>
      <trkpt lat="46.18996" lon="2.40324">
        <ele>363</ele>
        <time>2017-04-08T13:34:06Z</time>
      </trkpt>
      <trkpt lat="46.18997" lon="2.40318">
        <ele>363</ele>
        <time>2017-04-08T13:34:10Z</time>
      </trkpt>
      <trkpt lat="46.18998" lon="2.40311">
        <ele>364</ele>
        <time>2017-04-08T13:34:14Z</time>
      </trkpt>
      <trkpt lat="46.18999" lon="2.40305">
        <ele>364</ele>
        <time>2017-04-08T13:34:17Z</time>
      </trkpt>
      <trkpt lat="46.18999" lon="2.40299">
        <ele>364</ele>
        <time>2017-04-08T13:34:20Z</time>
      </trkpt>
      <trkpt lat="46.19001" lon="2.40293">
        <ele>365</ele>
        <time>2017-04-08T13:34:23Z</time>
      </trkpt>
      <trkpt lat="46.19002" lon="2.40287">
        <ele>365</ele>
        <time>2017-04-08T13:34:26Z</time>
      </trkpt>
      <trkpt lat="46.19003" lon="2.40281">
        <ele>365</ele>
        <time>2017-04-08T13:34:31Z</time>
      </trkpt>
      <trkpt lat="46.19005" lon="2.40277">
        <ele>365</ele>
        <time>2017-04-08T13:34:34Z</time>
      </trkpt>
      <trkpt lat="46.19004" lon="2.40271">
        <ele>366</ele>
        <time>2017-04-08T13:34:37Z</time>
      </trkpt>
      <trkpt lat="46.19004" lon="2.40266">
        <ele>366</ele>
        <time>2017-04-08T13:34:40Z</time>
      </trkpt>
      <trkpt lat="46.19005" lon="2.40261">
        <ele>366</ele>
        <time>2017-04-08T13:34:43Z</time>
      </trkpt>
      <trkpt lat="46.19004" lon="2.40255">
        <ele>366</ele>
        <time>2017-04-08T13:34:46Z</time>
      </trkpt>
      <trkpt lat="46.19004" lon="2.4025">
        <ele>366</ele>
        <time>2017-04-08T13:34:49Z</time>
      </trkpt>
      <trkpt lat="46.19005" lon="2.40245">
        <ele>366</ele>
        <time>2017-04-08T13:34:52Z</time>
      </trkpt>
      <trkpt lat="46.19006" lon="2.4024">
        <ele>366</ele>
        <time>2017-04-08T13:34:55Z</time>
      </trkpt>
      <trkpt lat="46.19006" lon="2.40234">
        <ele>366</ele>
        <time>2017-04-08T13:34:58Z</time>
      </trkpt>
      <trkpt lat="46.19005" lon="2.40228">
        <ele>367</ele>
        <time>2017-04-08T13:35:01Z</time>
      </trkpt>
      <trkpt lat="46.19004" lon="2.40222">
        <ele>367</ele>
        <time>2017-04-08T13:35:05Z</time>
      </trkpt>
      <trkpt lat="46.19004" lon="2.40217">
        <ele>367</ele>
        <time>2017-04-08T13:35:09Z</time>
      </trkpt>
      <trkpt lat="46.19004" lon="2.40211">
        <ele>367</ele>
        <time>2017-04-08T13:35:13Z</time>
      </trkpt>
      <trkpt lat="46.19003" lon="2.40207">
        <ele>367</ele>
        <time>2017-04-08T13:35:17Z</time>
      </trkpt>
      <trkpt lat="46.19001" lon="2.40199">
        <ele>367</ele>
        <time>2017-04-08T13:35:21Z</time>
      </trkpt>
      <trkpt lat="46.19002" lon="2.40194">
        <ele>367</ele>
        <time>2017-04-08T13:35:24Z</time>
      </trkpt>
      <trkpt lat="46.19002" lon="2.40188">
        <ele>367</ele>
        <time>2017-04-08T13:35:27Z</time>
      </trkpt>
      <trkpt lat="46.19001" lon="2.40183">
        <ele>367</ele>
        <time>2017-04-08T13:35:30Z</time>
      </trkpt>
      <trkpt lat="46.19" lon="2.40179">
        <ele>367</ele>
        <time>2017-04-08T13:35:33Z</time>
      </trkpt>
      <trkpt lat="46.18999" lon="2.40174">
        <ele>367</ele>
        <time>2017-04-08T13:35:36Z</time>
      </trkpt>
      <trkpt lat="46.18998" lon="2.4017">
        <ele>367</ele>
        <time>2017-04-08T13:35:40Z</time>
      </trkpt>
      <trkpt lat="46.18996" lon="2.40164">
        <ele>367</ele>
        <time>2017-04-08T13:35:44Z</time>
      </trkpt>
      <trkpt lat="46.18996" lon="2.40159">
        <ele>367</ele>
        <time>2017-04-08T13:35:47Z</time>
      </trkpt>
      <trkpt lat="46.18996" lon="2.40154">
        <ele>367</ele>
        <time>2017-04-08T13:35:50Z</time>
      </trkpt>
      <trkpt lat="46.18996" lon="2.40149">
        <ele>367</ele>
        <time>2017-04-08T13:35:53Z</time>
      </trkpt>
      <trkpt lat="46.18997" lon="2.40142">
        <ele>369</ele>
        <time>2017-04-08T13:35:56Z</time>
      </trkpt>
      <trkpt lat="46.18998" lon="2.40136">
        <ele>371</ele>
        <time>2017-04-08T13:35:59Z</time>
      </trkpt>
      <trkpt lat="46.19" lon="2.40128">
        <ele>372</ele>
        <time>2017-04-08T13:36:02Z</time>
      </trkpt>
      <trkpt lat="46.19001" lon="2.40123">
        <ele>373</ele>
        <time>2017-04-08T13:36:06Z</time>
      </trkpt>
      <trkpt lat="46.19001" lon="2.40117">
        <ele>373</ele>
        <time>2017-04-08T13:36:09Z</time>
      </trkpt>
      <trkpt lat="46.19003" lon="2.40109">
        <ele>374</ele>
        <time>2017-04-08T13:36:14Z</time>
      </trkpt>
      <trkpt lat="46.19004" lon="2.40103">
        <ele>375</ele>
        <time>2017-04-08T13:36:17Z</time>
      </trkpt>
      <trkpt lat="46.19005" lon="2.40098">
        <ele>375</ele>
        <time>2017-04-08T13:36:20Z</time>
      </trkpt>
      <trkpt lat="46.19007" lon="2.40092">
        <ele>377</ele>
        <time>2017-04-08T13:36:23Z</time>
      </trkpt>
      <trkpt lat="46.19007" lon="2.40088">
        <ele>378</ele>
        <time>2017-04-08T13:36:26Z</time>
      </trkpt>
      <trkpt lat="46.19008" lon="2.40083">
        <ele>379</ele>
        <time>2017-04-08T13:36:29Z</time>
      </trkpt>
      <trkpt lat="46.19009" lon="2.40077">
        <ele>379</ele>
        <time>2017-04-08T13:36:32Z</time>
      </trkpt>
      <trkpt lat="46.19009" lon="2.40071">
        <ele>379</ele>
        <time>2017-04-08T13:36:35Z</time>
      </trkpt>
      <trkpt lat="46.19009" lon="2.40064">
        <ele>379</ele>
        <time>2017-04-08T13:36:38Z</time>
      </trkpt>
      <trkpt lat="46.19009" lon="2.4006">
        <ele>379</ele>
        <time>2017-04-08T13:36:41Z</time>
      </trkpt>
      <trkpt lat="46.1901" lon="2.40054">
        <ele>379</ele>
        <time>2017-04-08T13:36:44Z</time>
      </trkpt>
      <trkpt lat="46.19011" lon="2.40047">
        <ele>379</ele>
        <time>2017-04-08T13:36:47Z</time>
      </trkpt>
      <trkpt lat="46.19012" lon="2.40042">
        <ele>380</ele>
        <time>2017-04-08T13:36:51Z</time>
      </trkpt>
      <trkpt lat="46.19013" lon="2.40035">
        <ele>380</ele>
        <time>2017-04-08T13:36:54Z</time>
      </trkpt>
      <trkpt lat="46.19015" lon="2.40029">
        <ele>382</ele>
        <time>2017-04-08T13:36:58Z</time>
      </trkpt>
      <trkpt lat="46.19016" lon="2.40022">
        <ele>382</ele>
        <time>2017-04-08T13:37:02Z</time>
      </trkpt>
      <trkpt lat="46.19017" lon="2.40015">
        <ele>383</ele>
        <time>2017-04-08T13:37:05Z</time>
      </trkpt>
      <trkpt lat="46.19019" lon="2.40005">
        <ele>383</ele>
        <time>2017-04-08T13:37:09Z</time>
      </trkpt>
      <trkpt lat="46.19022" lon="2.39997">
        <ele>383</ele>
        <time>2017-04-08T13:37:13Z</time>
      </trkpt>
      <trkpt lat="46.19024" lon="2.3999">
        <ele>384</ele>
        <time>2017-04-08T13:37:16Z</time>
      </trkpt>
      <trkpt lat="46.19024" lon="2.39986">
        <ele>385</ele>
        <time>2017-04-08T13:37:19Z</time>
      </trkpt>
      <trkpt lat="46.19024" lon="2.39979">
        <ele>385</ele>
        <time>2017-04-08T13:37:23Z</time>
      </trkpt>
      <trkpt lat="46.19024" lon="2.39974">
        <ele>385</ele>
        <time>2017-04-08T13:37:26Z</time>
      </trkpt>
      <trkpt lat="46.19024" lon="2.39969">
        <ele>385</ele>
        <time>2017-04-08T13:37:29Z</time>
      </trkpt>
      <trkpt lat="46.19024" lon="2.39962">
        <ele>385</ele>
        <time>2017-04-08T13:37:33Z</time>
      </trkpt>
      <trkpt lat="46.19025" lon="2.39957">
        <ele>385</ele>
        <time>2017-04-08T13:37:36Z</time>
      </trkpt>
      <trkpt lat="46.19026" lon="2.39953">
        <ele>385</ele>
        <time>2017-04-08T13:37:39Z</time>
      </trkpt>
      <trkpt lat="46.19027" lon="2.39948">
        <ele>385</ele>
        <time>2017-04-08T13:37:42Z</time>
      </trkpt>
      <trkpt lat="46.19027" lon="2.39943">
        <ele>385</ele>
        <time>2017-04-08T13:37:45Z</time>
      </trkpt>
      <trkpt lat="46.19028" lon="2.39938">
        <ele>385</ele>
        <time>2017-04-08T13:37:48Z</time>
      </trkpt>
      <trkpt lat="46.19029" lon="2.39933">
        <ele>386</ele>
        <time>2017-04-08T13:37:51Z</time>
      </trkpt>
      <trkpt lat="46.1903" lon="2.39932">
        <ele>386</ele>
        <time>2017-04-08T13:37:55Z</time>
      </trkpt>
      <trkpt lat="46.19031" lon="2.39931">
        <ele>387</ele>
        <time>2017-04-08T13:38:01Z</time>
      </trkpt>
      <trkpt lat="46.19032" lon="2.39929">
        <ele>387</ele>
        <time>2017-04-08T13:38:04Z</time>
      </trkpt>
      <trkpt lat="46.19034" lon="2.39924">
        <ele>388</ele>
        <time>2017-04-08T13:38:08Z</time>
      </trkpt>
      <trkpt lat="46.19035" lon="2.39919">
        <ele>390</ele>
        <time>2017-04-08T13:38:12Z</time>
      </trkpt>
      <trkpt lat="46.19035" lon="2.39914">
        <ele>390</ele>
        <time>2017-04-08T13:38:15Z</time>
      </trkpt>
      <trkpt lat="46.19036" lon="2.39908">
        <ele>391</ele>
        <time>2017-04-08T13:38:20Z</time>
      </trkpt>
      <trkpt lat="46.19036" lon="2.39903">
        <ele>391</ele>
        <time>2017-04-08T13:38:24Z</time>
      </trkpt>
      <trkpt lat="46.19035" lon="2.39899">
        <ele>391</ele>
        <time>2017-04-08T13:38:27Z</time>
      </trkpt>
      <trkpt lat="46.19033" lon="2.39895">
        <ele>391</ele>
        <time>2017-04-08T13:38:32Z</time>
      </trkpt>
      <trkpt lat="46.19033" lon="2.3989">
        <ele>391</ele>
        <time>2017-04-08T13:38:36Z</time>
      </trkpt>
      <trkpt lat="46.19034" lon="2.39885">
        <ele>392</ele>
        <time>2017-04-08T13:38:39Z</time>
      </trkpt>
      <trkpt lat="46.19036" lon="2.3988">
        <ele>392</ele>
        <time>2017-04-08T13:38:42Z</time>
      </trkpt>
      <trkpt lat="46.19038" lon="2.39876">
        <ele>393</ele>
        <time>2017-04-08T13:38:45Z</time>
      </trkpt>
      <trkpt lat="46.19042" lon="2.39871">
        <ele>393</ele>
        <time>2017-04-08T13:38:49Z</time>
      </trkpt>
      <trkpt lat="46.19044" lon="2.39867">
        <ele>393</ele>
        <time>2017-04-08T13:38:52Z</time>
      </trkpt>
      <trkpt lat="46.19047" lon="2.39861">
        <ele>393</ele>
        <time>2017-04-08T13:38:55Z</time>
      </trkpt>
      <trkpt lat="46.19048" lon="2.39854">
        <ele>393</ele>
        <time>2017-04-08T13:38:59Z</time>
      </trkpt>
      <trkpt lat="46.19048" lon="2.39849">
        <ele>393</ele>
        <time>2017-04-08T13:39:02Z</time>
      </trkpt>
      <trkpt lat="46.19048" lon="2.39843">
        <ele>393</ele>
        <time>2017-04-08T13:39:05Z</time>
      </trkpt>
      <trkpt lat="46.19047" lon="2.39838">
        <ele>393</ele>
        <time>2017-04-08T13:39:08Z</time>
      </trkpt>
      <trkpt lat="46.19046" lon="2.39832">
        <ele>393</ele>
        <time>2017-04-08T13:39:11Z</time>
      </trkpt>
      <trkpt lat="46.19047" lon="2.39826">
        <ele>393</ele>
        <time>2017-04-08T13:39:14Z</time>
      </trkpt>
      <trkpt lat="46.19047" lon="2.39819">
        <ele>393</ele>
        <time>2017-04-08T13:39:17Z</time>
      </trkpt>
      <trkpt lat="46.19047" lon="2.39813">
        <ele>393</ele>
        <time>2017-04-08T13:39:20Z</time>
      </trkpt>
      <trkpt lat="46.19047" lon="2.39808">
        <ele>393</ele>
        <time>2017-04-08T13:39:23Z</time>
      </trkpt>
      <trkpt lat="46.19048" lon="2.39801">
        <ele>393</ele>
        <time>2017-04-08T13:39:26Z</time>
      </trkpt>
      <trkpt lat="46.19049" lon="2.39795">
        <ele>393</ele>
        <time>2017-04-08T13:39:29Z</time>
      </trkpt>
      <trkpt lat="46.19047" lon="2.39789">
        <ele>393</ele>
        <time>2017-04-08T13:39:32Z</time>
      </trkpt>
      <trkpt lat="46.19043" lon="2.39785">
        <ele>393</ele>
        <time>2017-04-08T13:39:36Z</time>
      </trkpt>
      <trkpt lat="46.19039" lon="2.39785">
        <ele>393</ele>
        <time>2017-04-08T13:39:39Z</time>
      </trkpt>
      <trkpt lat="46.19034" lon="2.39788">
        <ele>392</ele>
        <time>2017-04-08T13:39:43Z</time>
      </trkpt>
      <trkpt lat="46.19029" lon="2.39788">
        <ele>391</ele>
        <time>2017-04-08T13:39:46Z</time>
      </trkpt>
      <trkpt lat="46.19025" lon="2.39788">
        <ele>391</ele>
        <time>2017-04-08T13:39:49Z</time>
      </trkpt>
      <trkpt lat="46.19021" lon="2.39788">
        <ele>391</ele>
        <time>2017-04-08T13:39:52Z</time>
      </trkpt>
      <trkpt lat="46.19016" lon="2.39788">
        <ele>391</ele>
        <time>2017-04-08T13:39:56Z</time>
      </trkpt>
      <trkpt lat="46.19012" lon="2.3979">
        <ele>391</ele>
        <time>2017-04-08T13:39:59Z</time>
      </trkpt>
      <trkpt lat="46.19008" lon="2.39793">
        <ele>391</ele>
        <time>2017-04-08T13:40:02Z</time>
      </trkpt>
      <trkpt lat="46.19004" lon="2.39796">
        <ele>391</ele>
        <time>2017-04-08T13:40:05Z</time>
      </trkpt>
      <trkpt lat="46.19" lon="2.39799">
        <ele>391</ele>
        <time>2017-04-08T13:40:08Z</time>
      </trkpt>
      <trkpt lat="46.18995" lon="2.39799">
        <ele>392</ele>
        <time>2017-04-08T13:40:11Z</time>
      </trkpt>
      <trkpt lat="46.18991" lon="2.39797">
        <ele>392</ele>
        <time>2017-04-08T13:40:15Z</time>
      </trkpt>
      <trkpt lat="46.18988" lon="2.39793">
        <ele>392</ele>
        <time>2017-04-08T13:40:18Z</time>
      </trkpt>
      <trkpt lat="46.18985" lon="2.39789">
        <ele>392</ele>
        <time>2017-04-08T13:40:21Z</time>
      </trkpt>
      <trkpt lat="46.18982" lon="2.39784">
        <ele>392</ele>
        <time>2017-04-08T13:40:24Z</time>
      </trkpt>
      <trkpt lat="46.1898" lon="2.39779">
        <ele>392</ele>
        <time>2017-04-08T13:40:27Z</time>
      </trkpt>
      <trkpt lat="46.18977" lon="2.39774">
        <ele>392</ele>
        <time>2017-04-08T13:40:30Z</time>
      </trkpt>
      <trkpt lat="46.18974" lon="2.39769">
        <ele>392</ele>
        <time>2017-04-08T13:40:33Z</time>
      </trkpt>
      <trkpt lat="46.18972" lon="2.39764">
        <ele>392</ele>
        <time>2017-04-08T13:40:36Z</time>
      </trkpt>
      <trkpt lat="46.18967" lon="2.39756">
        <ele>392</ele>
        <time>2017-04-08T13:40:39Z</time>
      </trkpt>
      <trkpt lat="46.18966" lon="2.39752">
        <ele>392</ele>
        <time>2017-04-08T13:40:42Z</time>
      </trkpt>
      <trkpt lat="46.18964" lon="2.39747">
        <ele>392</ele>
        <time>2017-04-08T13:40:45Z</time>
      </trkpt>
      <trkpt lat="46.18961" lon="2.39741">
        <ele>392</ele>
        <time>2017-04-08T13:40:48Z</time>
      </trkpt>
      <trkpt lat="46.18959" lon="2.39737">
        <ele>392</ele>
        <time>2017-04-08T13:40:52Z</time>
      </trkpt>
      <trkpt lat="46.18956" lon="2.39732">
        <ele>392</ele>
        <time>2017-04-08T13:40:55Z</time>
      </trkpt>
      <trkpt lat="46.18954" lon="2.39727">
        <ele>392</ele>
        <time>2017-04-08T13:40:58Z</time>
      </trkpt>
      <trkpt lat="46.18952" lon="2.39723">
        <ele>392</ele>
        <time>2017-04-08T13:41:01Z</time>
      </trkpt>
      <trkpt lat="46.18949" lon="2.39718">
        <ele>392</ele>
        <time>2017-04-08T13:41:04Z</time>
      </trkpt>
      <trkpt lat="46.18946" lon="2.39713">
        <ele>391</ele>
        <time>2017-04-08T13:41:07Z</time>
      </trkpt>
      <trkpt lat="46.18944" lon="2.39709">
        <ele>390</ele>
        <time>2017-04-08T13:41:10Z</time>
      </trkpt>
      <trkpt lat="46.18941" lon="2.39703">
        <ele>390</ele>
        <time>2017-04-08T13:41:13Z</time>
      </trkpt>
      <trkpt lat="46.18938" lon="2.39699">
        <ele>390</ele>
        <time>2017-04-08T13:41:16Z</time>
      </trkpt>
      <trkpt lat="46.18935" lon="2.39694">
        <ele>390</ele>
        <time>2017-04-08T13:41:19Z</time>
      </trkpt>
      <trkpt lat="46.18932" lon="2.39689">
        <ele>390</ele>
        <time>2017-04-08T13:41:22Z</time>
      </trkpt>
      <trkpt lat="46.18929" lon="2.39684">
        <ele>390</ele>
        <time>2017-04-08T13:41:25Z</time>
      </trkpt>
      <trkpt lat="46.18924" lon="2.39675">
        <ele>390</ele>
        <time>2017-04-08T13:41:28Z</time>
      </trkpt>
      <trkpt lat="46.18921" lon="2.39671">
        <ele>390</ele>
        <time>2017-04-08T13:41:32Z</time>
      </trkpt>
      <trkpt lat="46.18918" lon="2.39666">
        <ele>390</ele>
        <time>2017-04-08T13:41:35Z</time>
      </trkpt>
      <trkpt lat="46.18915" lon="2.39662">
        <ele>390</ele>
        <time>2017-04-08T13:41:38Z</time>
      </trkpt>
      <trkpt lat="46.18911" lon="2.39655">
        <ele>390</ele>
        <time>2017-04-08T13:41:42Z</time>
      </trkpt>
      <trkpt lat="46.18909" lon="2.39651">
        <ele>390</ele>
        <time>2017-04-08T13:41:45Z</time>
      </trkpt>
      <trkpt lat="46.18906" lon="2.39646">
        <ele>390</ele>
        <time>2017-04-08T13:41:48Z</time>
      </trkpt>
      <trkpt lat="46.18904" lon="2.3964">
        <ele>390</ele>
        <time>2017-04-08T13:41:51Z</time>
      </trkpt>
      <trkpt lat="46.18899" lon="2.39636">
        <ele>390</ele>
        <time>2017-04-08T13:41:55Z</time>
      </trkpt>
      <trkpt lat="46.18895" lon="2.39633">
        <ele>390</ele>
        <time>2017-04-08T13:41:58Z</time>
      </trkpt>
      <trkpt lat="46.18893" lon="2.39628">
        <ele>390</ele>
        <time>2017-04-08T13:42:01Z</time>
      </trkpt>
      <trkpt lat="46.18891" lon="2.39622">
        <ele>390</ele>
        <time>2017-04-08T13:42:04Z</time>
      </trkpt>
      <trkpt lat="46.18889" lon="2.39616">
        <ele>390</ele>
        <time>2017-04-08T13:42:07Z</time>
      </trkpt>
      <trkpt lat="46.18887" lon="2.39611">
        <ele>390</ele>
        <time>2017-04-08T13:42:10Z</time>
      </trkpt>
      <trkpt lat="46.18885" lon="2.39605">
        <ele>390</ele>
        <time>2017-04-08T13:42:13Z</time>
      </trkpt>
      <trkpt lat="46.18882" lon="2.396">
        <ele>390</ele>
        <time>2017-04-08T13:42:16Z</time>
      </trkpt>
      <trkpt lat="46.1888" lon="2.39595">
        <ele>390</ele>
        <time>2017-04-08T13:42:19Z</time>
      </trkpt>
      <trkpt lat="46.18877" lon="2.39589">
        <ele>390</ele>
        <time>2017-04-08T13:42:22Z</time>
      </trkpt>
      <trkpt lat="46.18875" lon="2.39583">
        <ele>390</ele>
        <time>2017-04-08T13:42:25Z</time>
      </trkpt>
      <trkpt lat="46.18874" lon="2.39578">
        <ele>390</ele>
        <time>2017-04-08T13:42:28Z</time>
      </trkpt>
      <trkpt lat="46.18871" lon="2.3957">
        <ele>390</ele>
        <time>2017-04-08T13:42:32Z</time>
      </trkpt>
      <trkpt lat="46.18869" lon="2.39565">
        <ele>390</ele>
        <time>2017-04-08T13:42:35Z</time>
      </trkpt>
      <trkpt lat="46.18867" lon="2.3956">
        <ele>390</ele>
        <time>2017-04-08T13:42:38Z</time>
      </trkpt>
      <trkpt lat="46.18865" lon="2.39555">
        <ele>390</ele>
        <time>2017-04-08T13:42:41Z</time>
      </trkpt>
      <trkpt lat="46.18863" lon="2.3955">
        <ele>390</ele>
        <time>2017-04-08T13:42:44Z</time>
      </trkpt>
      <trkpt lat="46.1886" lon="2.39543">
        <ele>390</ele>
        <time>2017-04-08T13:42:47Z</time>
      </trkpt>
      <trkpt lat="46.18858" lon="2.39537">
        <ele>390</ele>
        <time>2017-04-08T13:42:50Z</time>
      </trkpt>
      <trkpt lat="46.18855" lon="2.39533">
        <ele>390</ele>
        <time>2017-04-08T13:42:53Z</time>
      </trkpt>
      <trkpt lat="46.18853" lon="2.39527">
        <ele>391</ele>
        <time>2017-04-08T13:42:56Z</time>
      </trkpt>
      <trkpt lat="46.1885" lon="2.39521">
        <ele>391</ele>
        <time>2017-04-08T13:43:00Z</time>
      </trkpt>
      <trkpt lat="46.18849" lon="2.39517">
        <ele>391</ele>
        <time>2017-04-08T13:43:03Z</time>
      </trkpt>
      <trkpt lat="46.18846" lon="2.39511">
        <ele>391</ele>
        <time>2017-04-08T13:43:06Z</time>
      </trkpt>
      <trkpt lat="46.18844" lon="2.39505">
        <ele>391</ele>
        <time>2017-04-08T13:43:09Z</time>
      </trkpt>
      <trkpt lat="46.18842" lon="2.39499">
        <ele>391</ele>
        <time>2017-04-08T13:43:12Z</time>
      </trkpt>
      <trkpt lat="46.1884" lon="2.39492">
        <ele>391</ele>
        <time>2017-04-08T13:43:15Z</time>
      </trkpt>
      <trkpt lat="46.18837" lon="2.39485">
        <ele>392</ele>
        <time>2017-04-08T13:43:19Z</time>
      </trkpt>
      <trkpt lat="46.18835" lon="2.3948">
        <ele>392</ele>
        <time>2017-04-08T13:43:22Z</time>
      </trkpt>
      <trkpt lat="46.18833" lon="2.39474">
        <ele>392</ele>
        <time>2017-04-08T13:43:25Z</time>
      </trkpt>
      <trkpt lat="46.1883" lon="2.39468">
        <ele>392</ele>
        <time>2017-04-08T13:43:28Z</time>
      </trkpt>
      <trkpt lat="46.18828" lon="2.39461">
        <ele>393</ele>
        <time>2017-04-08T13:43:31Z</time>
      </trkpt>
      <trkpt lat="46.18825" lon="2.3945">
        <ele>395</ele>
        <time>2017-04-08T13:43:35Z</time>
      </trkpt>
      <trkpt lat="46.18822" lon="2.39443">
        <ele>397</ele>
        <time>2017-04-08T13:43:39Z</time>
      </trkpt>
      <trkpt lat="46.18821" lon="2.39436">
        <ele>399</ele>
        <time>2017-04-08T13:43:42Z</time>
      </trkpt>
      <trkpt lat="46.18819" lon="2.39429">
        <ele>400</ele>
        <time>2017-04-08T13:43:45Z</time>
      </trkpt>
      <trkpt lat="46.18817" lon="2.39424">
        <ele>400</ele>
        <time>2017-04-08T13:43:48Z</time>
      </trkpt>
      <trkpt lat="46.18814" lon="2.39417">
        <ele>400</ele>
        <time>2017-04-08T13:43:51Z</time>
      </trkpt>
      <trkpt lat="46.18812" lon="2.3941">
        <ele>400</ele>
        <time>2017-04-08T13:43:54Z</time>
      </trkpt>
      <trkpt lat="46.1881" lon="2.39404">
        <ele>400</ele>
        <time>2017-04-08T13:43:58Z</time>
      </trkpt>
      <trkpt lat="46.18809" lon="2.39398">
        <ele>400</ele>
        <time>2017-04-08T13:44:01Z</time>
      </trkpt>
      <trkpt lat="46.18807" lon="2.39392">
        <ele>400</ele>
        <time>2017-04-08T13:44:04Z</time>
      </trkpt>
      <trkpt lat="46.18804" lon="2.39385">
        <ele>400</ele>
        <time>2017-04-08T13:44:08Z</time>
      </trkpt>
      <trkpt lat="46.18803" lon="2.3938">
        <ele>400</ele>
        <time>2017-04-08T13:44:11Z</time>
      </trkpt>
      <trkpt lat="46.18802" lon="2.39374">
        <ele>400</ele>
        <time>2017-04-08T13:44:14Z</time>
      </trkpt>
      <trkpt lat="46.18803" lon="2.39368">
        <ele>400</ele>
        <time>2017-04-08T13:44:17Z</time>
      </trkpt>
      <trkpt lat="46.18805" lon="2.39361">
        <ele>400</ele>
        <time>2017-04-08T13:44:20Z</time>
      </trkpt>
      <trkpt lat="46.18809" lon="2.39354">
        <ele>400</ele>
        <time>2017-04-08T13:44:25Z</time>
      </trkpt>
      <trkpt lat="46.18811" lon="2.39348">
        <ele>400</ele>
        <time>2017-04-08T13:44:29Z</time>
      </trkpt>
      <trkpt lat="46.18814" lon="2.39342">
        <ele>400</ele>
        <time>2017-04-08T13:44:33Z</time>
      </trkpt>
      <trkpt lat="46.18818" lon="2.39334">
        <ele>400</ele>
        <time>2017-04-08T13:44:37Z</time>
      </trkpt>
      <trkpt lat="46.1882" lon="2.39329">
        <ele>400</ele>
        <time>2017-04-08T13:44:41Z</time>
      </trkpt>
      <trkpt lat="46.18824" lon="2.39323">
        <ele>399</ele>
        <time>2017-04-08T13:44:44Z</time>
      </trkpt>
      <trkpt lat="46.18828" lon="2.39318">
        <ele>399</ele>
        <time>2017-04-08T13:44:47Z</time>
      </trkpt>
      <trkpt lat="46.18831" lon="2.39314">
        <ele>399</ele>
        <time>2017-04-08T13:44:50Z</time>
      </trkpt>
      <trkpt lat="46.18835" lon="2.39309">
        <ele>399</ele>
        <time>2017-04-08T13:44:53Z</time>
      </trkpt>
      <trkpt lat="46.18839" lon="2.39305">
        <ele>399</ele>
        <time>2017-04-08T13:44:57Z</time>
      </trkpt>
      <trkpt lat="46.18844" lon="2.39299">
        <ele>399</ele>
        <time>2017-04-08T13:45:00Z</time>
      </trkpt>
      <trkpt lat="46.18847" lon="2.39295">
        <ele>399</ele>
        <time>2017-04-08T13:45:03Z</time>
      </trkpt>
      <trkpt lat="46.18851" lon="2.39289">
        <ele>399</ele>
        <time>2017-04-08T13:45:08Z</time>
      </trkpt>
      <trkpt lat="46.18857" lon="2.39285">
        <ele>399</ele>
        <time>2017-04-08T13:45:11Z</time>
      </trkpt>
      <trkpt lat="46.18861" lon="2.39281">
        <ele>399</ele>
        <time>2017-04-08T13:45:15Z</time>
      </trkpt>
      <trkpt lat="46.18866" lon="2.39274">
        <ele>399</ele>
        <time>2017-04-08T13:45:19Z</time>
      </trkpt>
      <trkpt lat="46.1887" lon="2.3927">
        <ele>399</ele>
        <time>2017-04-08T13:45:23Z</time>
      </trkpt>
      <trkpt lat="46.18874" lon="2.39263">
        <ele>399</ele>
        <time>2017-04-08T13:45:26Z</time>
      </trkpt>
      <trkpt lat="46.18878" lon="2.39259">
        <ele>399</ele>
        <time>2017-04-08T13:45:29Z</time>
      </trkpt>
      <trkpt lat="46.18882" lon="2.39254">
        <ele>399</ele>
        <time>2017-04-08T13:45:33Z</time>
      </trkpt>
      <trkpt lat="46.18888" lon="2.39247">
        <ele>399</ele>
        <time>2017-04-08T13:45:38Z</time>
      </trkpt>
      <trkpt lat="46.18893" lon="2.39242">
        <ele>399</ele>
        <time>2017-04-08T13:45:41Z</time>
      </trkpt>
      <trkpt lat="46.18896" lon="2.39236">
        <ele>399</ele>
        <time>2017-04-08T13:45:44Z</time>
      </trkpt>
      <trkpt lat="46.18899" lon="2.39232">
        <ele>399</ele>
        <time>2017-04-08T13:45:48Z</time>
      </trkpt>
      <trkpt lat="46.18903" lon="2.39227">
        <ele>399</ele>
        <time>2017-04-08T13:45:51Z</time>
      </trkpt>
      <trkpt lat="46.18908" lon="2.39219">
        <ele>398</ele>
        <time>2017-04-08T13:45:55Z</time>
      </trkpt>
      <trkpt lat="46.18911" lon="2.39214">
        <ele>397</ele>
        <time>2017-04-08T13:45:59Z</time>
      </trkpt>
      <trkpt lat="46.18915" lon="2.39208">
        <ele>396</ele>
        <time>2017-04-08T13:46:03Z</time>
      </trkpt>
      <trkpt lat="46.18919" lon="2.39201">
        <ele>395</ele>
        <time>2017-04-08T13:46:08Z</time>
      </trkpt>
      <trkpt lat="46.18921" lon="2.39194">
        <ele>393</ele>
        <time>2017-04-08T13:46:11Z</time>
      </trkpt>
      <trkpt lat="46.18922" lon="2.39188">
        <ele>392</ele>
        <time>2017-04-08T13:46:14Z</time>
      </trkpt>
      <trkpt lat="46.18923" lon="2.39181">
        <ele>391</ele>
        <time>2017-04-08T13:46:18Z</time>
      </trkpt>
      <trkpt lat="46.18924" lon="2.39174">
        <ele>391</ele>
        <time>2017-04-08T13:46:21Z</time>
      </trkpt>
      <trkpt lat="46.18926" lon="2.39168">
        <ele>391</ele>
        <time>2017-04-08T13:46:24Z</time>
      </trkpt>
      <trkpt lat="46.18928" lon="2.39162">
        <ele>391</ele>
        <time>2017-04-08T13:46:27Z</time>
      </trkpt>
      <trkpt lat="46.1893" lon="2.39155">
        <ele>390</ele>
        <time>2017-04-08T13:46:31Z</time>
      </trkpt>
      <trkpt lat="46.18931" lon="2.39149">
        <ele>389</ele>
        <time>2017-04-08T13:46:35Z</time>
      </trkpt>
      <trkpt lat="46.18934" lon="2.39142">
        <ele>389</ele>
        <time>2017-04-08T13:46:38Z</time>
      </trkpt>
      <trkpt lat="46.18935" lon="2.39137">
        <ele>389</ele>
        <time>2017-04-08T13:46:41Z</time>
      </trkpt>
      <trkpt lat="46.18938" lon="2.39132">
        <ele>389</ele>
        <time>2017-04-08T13:46:45Z</time>
      </trkpt>
      <trkpt lat="46.18941" lon="2.39125">
        <ele>389</ele>
        <time>2017-04-08T13:46:48Z</time>
      </trkpt>
      <trkpt lat="46.18944" lon="2.3912">
        <ele>389</ele>
        <time>2017-04-08T13:46:51Z</time>
      </trkpt>
      <trkpt lat="46.18948" lon="2.39113">
        <ele>389</ele>
        <time>2017-04-08T13:46:55Z</time>
      </trkpt>
      <trkpt lat="46.1895" lon="2.39105">
        <ele>388</ele>
        <time>2017-04-08T13:46:58Z</time>
      </trkpt>
      <trkpt lat="46.18952" lon="2.391">
        <ele>388</ele>
        <time>2017-04-08T13:47:01Z</time>
      </trkpt>
      <trkpt lat="46.18955" lon="2.39093">
        <ele>388</ele>
        <time>2017-04-08T13:47:05Z</time>
      </trkpt>
      <trkpt lat="46.18959" lon="2.39086">
        <ele>388</ele>
        <time>2017-04-08T13:47:08Z</time>
      </trkpt>
      <trkpt lat="46.18961" lon="2.39081">
        <ele>388</ele>
        <time>2017-04-08T13:47:11Z</time>
      </trkpt>
      <trkpt lat="46.18963" lon="2.39074">
        <ele>388</ele>
        <time>2017-04-08T13:47:15Z</time>
      </trkpt>
      <trkpt lat="46.18967" lon="2.39067">
        <ele>388</ele>
        <time>2017-04-08T13:47:18Z</time>
      </trkpt>
      <trkpt lat="46.18969" lon="2.39062">
        <ele>388</ele>
        <time>2017-04-08T13:47:21Z</time>
      </trkpt>
      <trkpt lat="46.1897" lon="2.39055">
        <ele>388</ele>
        <time>2017-04-08T13:47:25Z</time>
      </trkpt>
      <trkpt lat="46.18973" lon="2.39047">
        <ele>388</ele>
        <time>2017-04-08T13:47:28Z</time>
      </trkpt>
      <trkpt lat="46.18974" lon="2.3904">
        <ele>388</ele>
        <time>2017-04-08T13:47:31Z</time>
      </trkpt>
      <trkpt lat="46.18977" lon="2.39036">
        <ele>388</ele>
        <time>2017-04-08T13:47:35Z</time>
      </trkpt>
      <trkpt lat="46.18979" lon="2.39029">
        <ele>388</ele>
        <time>2017-04-08T13:47:38Z</time>
      </trkpt>
      <trkpt lat="46.18981" lon="2.39023">
        <ele>388</ele>
        <time>2017-04-08T13:47:41Z</time>
      </trkpt>
      <trkpt lat="46.18983" lon="2.39018">
        <ele>388</ele>
        <time>2017-04-08T13:47:45Z</time>
      </trkpt>
      <trkpt lat="46.18986" lon="2.39011">
        <ele>388</ele>
        <time>2017-04-08T13:47:48Z</time>
      </trkpt>
      <trkpt lat="46.18987" lon="2.39006">
        <ele>388</ele>
        <time>2017-04-08T13:47:51Z</time>
      </trkpt>
      <trkpt lat="46.18989" lon="2.39001">
        <ele>388</ele>
        <time>2017-04-08T13:47:55Z</time>
      </trkpt>
      <trkpt lat="46.18991" lon="2.38994">
        <ele>388</ele>
        <time>2017-04-08T13:48:00Z</time>
      </trkpt>
      <trkpt lat="46.18992" lon="2.38989">
        <ele>386</ele>
        <time>2017-04-08T13:48:03Z</time>
      </trkpt>
      <trkpt lat="46.18992" lon="2.38984">
        <ele>386</ele>
        <time>2017-04-08T13:48:06Z</time>
      </trkpt>
      <trkpt lat="46.18993" lon="2.38977">
        <ele>386</ele>
        <time>2017-04-08T13:48:11Z</time>
      </trkpt>
      <trkpt lat="46.18995" lon="2.3897">
        <ele>386</ele>
        <time>2017-04-08T13:48:14Z</time>
      </trkpt>
      <trkpt lat="46.18997" lon="2.38966">
        <ele>386</ele>
        <time>2017-04-08T13:48:17Z</time>
      </trkpt>
      <trkpt lat="46.19001" lon="2.38964">
        <ele>386</ele>
        <time>2017-04-08T13:48:21Z</time>
      </trkpt>
      <trkpt lat="46.19009" lon="2.3896">
        <ele>386</ele>
        <time>2017-04-08T13:48:24Z</time>
      </trkpt>
      <trkpt lat="46.19012" lon="2.3896">
        <ele>386</ele>
        <time>2017-04-08T13:48:27Z</time>
      </trkpt>
      <trkpt lat="46.19016" lon="2.38959">
        <ele>386</ele>
        <time>2017-04-08T13:48:30Z</time>
      </trkpt>
      <trkpt lat="46.1902" lon="2.38956">
        <ele>386</ele>
        <time>2017-04-08T13:48:33Z</time>
      </trkpt>
      <trkpt lat="46.19026" lon="2.38956">
        <ele>386</ele>
        <time>2017-04-08T13:48:37Z</time>
      </trkpt>
      <trkpt lat="46.19031" lon="2.38956">
        <ele>386</ele>
        <time>2017-04-08T13:48:41Z</time>
      </trkpt>
      <trkpt lat="46.19038" lon="2.38954">
        <ele>386</ele>
        <time>2017-04-08T13:48:44Z</time>
      </trkpt>
      <trkpt lat="46.19042" lon="2.38953">
        <ele>386</ele>
        <time>2017-04-08T13:48:47Z</time>
      </trkpt>
      <trkpt lat="46.19048" lon="2.38952">
        <ele>386</ele>
        <time>2017-04-08T13:48:52Z</time>
      </trkpt>
      <trkpt lat="46.19056" lon="2.3895">
        <ele>386</ele>
        <time>2017-04-08T13:48:55Z</time>
      </trkpt>
      <trkpt lat="46.1906" lon="2.38949">
        <ele>386</ele>
        <time>2017-04-08T13:48:58Z</time>
      </trkpt>
      <trkpt lat="46.19065" lon="2.38948">
        <ele>386</ele>
        <time>2017-04-08T13:49:01Z</time>
      </trkpt>
      <trkpt lat="46.1907" lon="2.38947">
        <ele>386</ele>
        <time>2017-04-08T13:49:04Z</time>
      </trkpt>
      <trkpt lat="46.19074" lon="2.38946">
        <ele>386</ele>
        <time>2017-04-08T13:49:07Z</time>
      </trkpt>
      <trkpt lat="46.19078" lon="2.38944">
        <ele>386</ele>
        <time>2017-04-08T13:49:10Z</time>
      </trkpt>
      <trkpt lat="46.19082" lon="2.38943">
        <ele>385</ele>
        <time>2017-04-08T13:49:13Z</time>
      </trkpt>
      <trkpt lat="46.19086" lon="2.38941">
        <ele>384</ele>
        <time>2017-04-08T13:49:16Z</time>
      </trkpt>
      <trkpt lat="46.19092" lon="2.38938">
        <ele>384</ele>
        <time>2017-04-08T13:49:20Z</time>
      </trkpt>
      <trkpt lat="46.19096" lon="2.38937">
        <ele>383</ele>
        <time>2017-04-08T13:49:23Z</time>
      </trkpt>
      <trkpt lat="46.19101" lon="2.38934">
        <ele>382</ele>
        <time>2017-04-08T13:49:28Z</time>
      </trkpt>
      <trkpt lat="46.19107" lon="2.38932">
        <ele>382</ele>
        <time>2017-04-08T13:49:31Z</time>
      </trkpt>
      <trkpt lat="46.19112" lon="2.38932">
        <ele>382</ele>
        <time>2017-04-08T13:49:34Z</time>
      </trkpt>
      <trkpt lat="46.19116" lon="2.38931">
        <ele>382</ele>
        <time>2017-04-08T13:49:37Z</time>
      </trkpt>
      <trkpt lat="46.19122" lon="2.38931">
        <ele>382</ele>
        <time>2017-04-08T13:49:40Z</time>
      </trkpt>
      <trkpt lat="46.19127" lon="2.38929">
        <ele>381</ele>
        <time>2017-04-08T13:49:44Z</time>
      </trkpt>
      <trkpt lat="46.1913" lon="2.38927">
        <ele>380</ele>
        <time>2017-04-08T13:49:47Z</time>
      </trkpt>
      <trkpt lat="46.19134" lon="2.38926">
        <ele>380</ele>
        <time>2017-04-08T13:49:50Z</time>
      </trkpt>
      <trkpt lat="46.19139" lon="2.38924">
        <ele>380</ele>
        <time>2017-04-08T13:49:54Z</time>
      </trkpt>
      <trkpt lat="46.19143" lon="2.38922">
        <ele>380</ele>
        <time>2017-04-08T13:49:57Z</time>
      </trkpt>
      <trkpt lat="46.19147" lon="2.38918">
        <ele>380</ele>
        <time>2017-04-08T13:50:01Z</time>
      </trkpt>
      <trkpt lat="46.19152" lon="2.38915">
        <ele>380</ele>
        <time>2017-04-08T13:50:04Z</time>
      </trkpt>
      <trkpt lat="46.19155" lon="2.38913">
        <ele>380</ele>
        <time>2017-04-08T13:50:07Z</time>
      </trkpt>
      <trkpt lat="46.19165" lon="2.38912">
        <ele>380</ele>
        <time>2017-04-08T13:50:11Z</time>
      </trkpt>
      <trkpt lat="46.19171" lon="2.38911">
        <ele>380</ele>
        <time>2017-04-08T13:50:14Z</time>
      </trkpt>
      <trkpt lat="46.19176" lon="2.38911">
        <ele>380</ele>
        <time>2017-04-08T13:50:17Z</time>
      </trkpt>
      <trkpt lat="46.19181" lon="2.38914">
        <ele>381</ele>
        <time>2017-04-08T13:50:20Z</time>
      </trkpt>
      <trkpt lat="46.19185" lon="2.38916">
        <ele>381</ele>
        <time>2017-04-08T13:50:23Z</time>
      </trkpt>
      <trkpt lat="46.19186" lon="2.38918">
        <ele>382</ele>
        <time>2017-04-08T13:50:26Z</time>
      </trkpt>
      <trkpt lat="46.19186" lon="2.3892">
        <ele>382</ele>
        <time>2017-04-08T13:50:30Z</time>
      </trkpt>
      <trkpt lat="46.19188" lon="2.38924">
        <ele>383</ele>
        <time>2017-04-08T13:50:35Z</time>
      </trkpt>
      <trkpt lat="46.19188" lon="2.38926">
        <ele>383</ele>
        <time>2017-04-08T13:50:38Z</time>
      </trkpt>
      <trkpt lat="46.19189" lon="2.38927">
        <ele>383</ele>
        <time>2017-04-08T13:50:41Z</time>
      </trkpt>
      <trkpt lat="46.1919" lon="2.3893">
        <ele>383</ele>
        <time>2017-04-08T13:50:45Z</time>
      </trkpt>
      <trkpt lat="46.19193" lon="2.38931">
        <ele>383</ele>
        <time>2017-04-08T13:50:50Z</time>
      </trkpt>
      <trkpt lat="46.19194" lon="2.3893">
        <ele>383</ele>
        <time>2017-04-08T13:50:57Z</time>
      </trkpt>
      <trkpt lat="46.19195" lon="2.38928">
        <ele>383</ele>
        <time>2017-04-08T13:51:16Z</time>
      </trkpt>
      <trkpt lat="46.19199" lon="2.38928">
        <ele>383</ele>
        <time>2017-04-08T13:51:19Z</time>
      </trkpt>
      <trkpt lat="46.19202" lon="2.3893">
        <ele>383</ele>
        <time>2017-04-08T13:51:23Z</time>
      </trkpt>
      <trkpt lat="46.19206" lon="2.38932">
        <ele>383</ele>
        <time>2017-04-08T13:51:26Z</time>
      </trkpt>
      <trkpt lat="46.1921" lon="2.38934">
        <ele>383</ele>
        <time>2017-04-08T13:51:29Z</time>
      </trkpt>
      <trkpt lat="46.19214" lon="2.38936">
        <ele>383</ele>
        <time>2017-04-08T13:51:33Z</time>
      </trkpt>
      <trkpt lat="46.19218" lon="2.38939">
        <ele>383</ele>
        <time>2017-04-08T13:51:36Z</time>
      </trkpt>
      <trkpt lat="46.19222" lon="2.3894">
        <ele>383</ele>
        <time>2017-04-08T13:51:39Z</time>
      </trkpt>
      <trkpt lat="46.19226" lon="2.38942">
        <ele>383</ele>
        <time>2017-04-08T13:51:42Z</time>
      </trkpt>
      <trkpt lat="46.19229" lon="2.38944">
        <ele>382</ele>
        <time>2017-04-08T13:51:45Z</time>
      </trkpt>
      <trkpt lat="46.19233" lon="2.38946">
        <ele>382</ele>
        <time>2017-04-08T13:51:48Z</time>
      </trkpt>
      <trkpt lat="46.19239" lon="2.38949">
        <ele>381</ele>
        <time>2017-04-08T13:51:52Z</time>
      </trkpt>
      <trkpt lat="46.19243" lon="2.38953">
        <ele>380</ele>
        <time>2017-04-08T13:51:56Z</time>
      </trkpt>
      <trkpt lat="46.19247" lon="2.38958">
        <ele>380</ele>
        <time>2017-04-08T13:52:00Z</time>
      </trkpt>
      <trkpt lat="46.19252" lon="2.38962">
        <ele>379</ele>
        <time>2017-04-08T13:52:05Z</time>
      </trkpt>
      <trkpt lat="46.19257" lon="2.38964">
        <ele>376</ele>
        <time>2017-04-08T13:52:09Z</time>
      </trkpt>
      <trkpt lat="46.1926" lon="2.38968">
        <ele>375</ele>
        <time>2017-04-08T13:52:12Z</time>
      </trkpt>
      <trkpt lat="46.19265" lon="2.38972">
        <ele>375</ele>
        <time>2017-04-08T13:52:16Z</time>
      </trkpt>
      <trkpt lat="46.19269" lon="2.38975">
        <ele>375</ele>
        <time>2017-04-08T13:52:19Z</time>
      </trkpt>
      <trkpt lat="46.19273" lon="2.38977">
        <ele>374</ele>
        <time>2017-04-08T13:52:22Z</time>
      </trkpt>
      <trkpt lat="46.19278" lon="2.38982">
        <ele>374</ele>
        <time>2017-04-08T13:52:26Z</time>
      </trkpt>
      <trkpt lat="46.19283" lon="2.38986">
        <ele>374</ele>
        <time>2017-04-08T13:52:30Z</time>
      </trkpt>
      <trkpt lat="46.19287" lon="2.38989">
        <ele>374</ele>
        <time>2017-04-08T13:52:33Z</time>
      </trkpt>
      <trkpt lat="46.19291" lon="2.38991">
        <ele>374</ele>
        <time>2017-04-08T13:52:36Z</time>
      </trkpt>
      <trkpt lat="46.19296" lon="2.38993">
        <ele>373</ele>
        <time>2017-04-08T13:52:40Z</time>
      </trkpt>
      <trkpt lat="46.193" lon="2.38995">
        <ele>373</ele>
        <time>2017-04-08T13:52:43Z</time>
      </trkpt>
      <trkpt lat="46.19307" lon="2.38999">
        <ele>373</ele>
        <time>2017-04-08T13:52:47Z</time>
      </trkpt>
      <trkpt lat="46.1931" lon="2.38999">
        <ele>372</ele>
        <time>2017-04-08T13:52:51Z</time>
      </trkpt>
      <trkpt lat="46.19314" lon="2.39">
        <ele>370</ele>
        <time>2017-04-08T13:52:54Z</time>
      </trkpt>
      <trkpt lat="46.19318" lon="2.39">
        <ele>369</ele>
        <time>2017-04-08T13:52:57Z</time>
      </trkpt>
      <trkpt lat="46.19324" lon="2.39003">
        <ele>368</ele>
        <time>2017-04-08T13:53:01Z</time>
      </trkpt>
      <trkpt lat="46.19328" lon="2.39007">
        <ele>368</ele>
        <time>2017-04-08T13:53:04Z</time>
      </trkpt>
      <trkpt lat="46.19333" lon="2.39009">
        <ele>368</ele>
        <time>2017-04-08T13:53:07Z</time>
      </trkpt>
      <trkpt lat="46.1934" lon="2.39012">
        <ele>368</ele>
        <time>2017-04-08T13:53:11Z</time>
      </trkpt>
      <trkpt lat="46.19345" lon="2.39013">
        <ele>368</ele>
        <time>2017-04-08T13:53:14Z</time>
      </trkpt>
      <trkpt lat="46.19349" lon="2.39014">
        <ele>368</ele>
        <time>2017-04-08T13:53:17Z</time>
      </trkpt>
      <trkpt lat="46.19355" lon="2.39015">
        <ele>367</ele>
        <time>2017-04-08T13:53:21Z</time>
      </trkpt>
      <trkpt lat="46.19358" lon="2.39017">
        <ele>365</ele>
        <time>2017-04-08T13:53:24Z</time>
      </trkpt>
      <trkpt lat="46.19362" lon="2.3902">
        <ele>364</ele>
        <time>2017-04-08T13:53:27Z</time>
      </trkpt>
      <trkpt lat="46.19366" lon="2.39023">
        <ele>364</ele>
        <time>2017-04-08T13:53:31Z</time>
      </trkpt>
      <trkpt lat="46.19372" lon="2.39025">
        <ele>362</ele>
        <time>2017-04-08T13:53:35Z</time>
      </trkpt>
      <trkpt lat="46.19379" lon="2.39029">
        <ele>361</ele>
        <time>2017-04-08T13:53:39Z</time>
      </trkpt>
      <trkpt lat="46.19381" lon="2.39034">
        <ele>361</ele>
        <time>2017-04-08T13:53:42Z</time>
      </trkpt>
      <trkpt lat="46.19382" lon="2.39037">
        <ele>363</ele>
        <time>2017-04-08T13:53:45Z</time>
      </trkpt>
      <trkpt lat="46.19384" lon="2.39042">
        <ele>365</ele>
        <time>2017-04-08T13:53:49Z</time>
      </trkpt>
      <trkpt lat="46.19387" lon="2.39047">
        <ele>366</ele>
        <time>2017-04-08T13:53:52Z</time>
      </trkpt>
      <trkpt lat="46.19391" lon="2.39049">
        <ele>368</ele>
        <time>2017-04-08T13:53:55Z</time>
      </trkpt>
      <trkpt lat="46.19397" lon="2.39053">
        <ele>368</ele>
        <time>2017-04-08T13:53:58Z</time>
      </trkpt>
      <trkpt lat="46.19403" lon="2.39056">
        <ele>370</ele>
        <time>2017-04-08T13:54:02Z</time>
      </trkpt>
      <trkpt lat="46.19407" lon="2.39058">
        <ele>370</ele>
        <time>2017-04-08T13:54:05Z</time>
      </trkpt>
      <trkpt lat="46.19411" lon="2.39059">
        <ele>370</ele>
        <time>2017-04-08T13:54:08Z</time>
      </trkpt>
      <trkpt lat="46.19414" lon="2.39062">
        <ele>370</ele>
        <time>2017-04-08T13:54:11Z</time>
      </trkpt>
      <trkpt lat="46.19418" lon="2.39064">
        <ele>370</ele>
        <time>2017-04-08T13:54:14Z</time>
      </trkpt>
      <trkpt lat="46.19423" lon="2.39068">
        <ele>370</ele>
        <time>2017-04-08T13:54:19Z</time>
      </trkpt>
      <trkpt lat="46.19428" lon="2.39068">
        <ele>370</ele>
        <time>2017-04-08T13:54:23Z</time>
      </trkpt>
      <trkpt lat="46.19432" lon="2.39069">
        <ele>368</ele>
        <time>2017-04-08T13:54:27Z</time>
      </trkpt>
      <trkpt lat="46.19437" lon="2.39071">
        <ele>366</ele>
        <time>2017-04-08T13:54:31Z</time>
      </trkpt>
      <trkpt lat="46.19442" lon="2.39074">
        <ele>364</ele>
        <time>2017-04-08T13:54:36Z</time>
      </trkpt>
      <trkpt lat="46.19446" lon="2.39075">
        <ele>361</ele>
        <time>2017-04-08T13:54:40Z</time>
      </trkpt>
      <trkpt lat="46.19451" lon="2.39075">
        <ele>359</ele>
        <time>2017-04-08T13:54:44Z</time>
      </trkpt>
      <trkpt lat="46.19454" lon="2.39074">
        <ele>357</ele>
        <time>2017-04-08T13:54:47Z</time>
      </trkpt>
      <trkpt lat="46.19458" lon="2.39074">
        <ele>354</ele>
        <time>2017-04-08T13:54:50Z</time>
      </trkpt>
      <trkpt lat="46.19461" lon="2.39076">
        <ele>352</ele>
        <time>2017-04-08T13:54:53Z</time>
      </trkpt>
      <trkpt lat="46.19466" lon="2.39077">
        <ele>350</ele>
        <time>2017-04-08T13:54:57Z</time>
      </trkpt>
      <trkpt lat="46.1947" lon="2.39078">
        <ele>347</ele>
        <time>2017-04-08T13:55:01Z</time>
      </trkpt>
      <trkpt lat="46.19474" lon="2.39081">
        <ele>346</ele>
        <time>2017-04-08T13:55:04Z</time>
      </trkpt>
      <trkpt lat="46.19479" lon="2.39082">
        <ele>344</ele>
        <time>2017-04-08T13:55:08Z</time>
      </trkpt>
      <trkpt lat="46.19483" lon="2.39084">
        <ele>342</ele>
        <time>2017-04-08T13:55:11Z</time>
      </trkpt>
      <trkpt lat="46.19487" lon="2.39085">
        <ele>341</ele>
        <time>2017-04-08T13:55:14Z</time>
      </trkpt>
      <trkpt lat="46.19491" lon="2.39088">
        <ele>340</ele>
        <time>2017-04-08T13:55:18Z</time>
      </trkpt>
      <trkpt lat="46.19495" lon="2.39089">
        <ele>339</ele>
        <time>2017-04-08T13:55:21Z</time>
      </trkpt>
      <trkpt lat="46.19498" lon="2.3909">
        <ele>337</ele>
        <time>2017-04-08T13:55:24Z</time>
      </trkpt>
      <trkpt lat="46.19501" lon="2.39092">
        <ele>335</ele>
        <time>2017-04-08T13:55:28Z</time>
      </trkpt>
      <trkpt lat="46.19505" lon="2.39095">
        <ele>333</ele>
        <time>2017-04-08T13:55:31Z</time>
      </trkpt>
      <trkpt lat="46.19509" lon="2.39096">
        <ele>332</ele>
        <time>2017-04-08T13:55:34Z</time>
      </trkpt>
      <trkpt lat="46.19512" lon="2.39099">
        <ele>330</ele>
        <time>2017-04-08T13:55:37Z</time>
      </trkpt>
      <trkpt lat="46.19516" lon="2.39102">
        <ele>329</ele>
        <time>2017-04-08T13:55:40Z</time>
      </trkpt>
      <trkpt lat="46.1952" lon="2.39105">
        <ele>328</ele>
        <time>2017-04-08T13:55:43Z</time>
      </trkpt>
      <trkpt lat="46.19524" lon="2.39109">
        <ele>327</ele>
        <time>2017-04-08T13:55:47Z</time>
      </trkpt>
      <trkpt lat="46.19528" lon="2.39114">
        <ele>325</ele>
        <time>2017-04-08T13:55:51Z</time>
      </trkpt>
      <trkpt lat="46.19531" lon="2.39118">
        <ele>324</ele>
        <time>2017-04-08T13:55:54Z</time>
      </trkpt>
      <trkpt lat="46.19534" lon="2.39122">
        <ele>323</ele>
        <time>2017-04-08T13:55:57Z</time>
      </trkpt>
      <trkpt lat="46.19537" lon="2.39126">
        <ele>322</ele>
        <time>2017-04-08T13:56:00Z</time>
      </trkpt>
      <trkpt lat="46.19541" lon="2.39133">
        <ele>322</ele>
        <time>2017-04-08T13:56:04Z</time>
      </trkpt>
      <trkpt lat="46.19544" lon="2.39137">
        <ele>322</ele>
        <time>2017-04-08T13:56:07Z</time>
      </trkpt>
      <trkpt lat="46.19548" lon="2.39142">
        <ele>320</ele>
        <time>2017-04-08T13:56:11Z</time>
      </trkpt>
      <trkpt lat="46.19552" lon="2.39146">
        <ele>318</ele>
        <time>2017-04-08T13:56:15Z</time>
      </trkpt>
      <trkpt lat="46.19556" lon="2.3915">
        <ele>316</ele>
        <time>2017-04-08T13:56:19Z</time>
      </trkpt>
      <trkpt lat="46.19558" lon="2.39154">
        <ele>314</ele>
        <time>2017-04-08T13:56:22Z</time>
      </trkpt>
      <trkpt lat="46.19561" lon="2.39158">
        <ele>313</ele>
        <time>2017-04-08T13:56:25Z</time>
      </trkpt>
      <trkpt lat="46.19566" lon="2.39163">
        <ele>310</ele>
        <time>2017-04-08T13:56:30Z</time>
      </trkpt>
      <trkpt lat="46.19569" lon="2.39168">
        <ele>309</ele>
        <time>2017-04-08T13:56:33Z</time>
      </trkpt>
      <trkpt lat="46.19572" lon="2.39175">
        <ele>309</ele>
        <time>2017-04-08T13:56:37Z</time>
      </trkpt>
      <trkpt lat="46.19575" lon="2.39181">
        <ele>309</ele>
        <time>2017-04-08T13:56:40Z</time>
      </trkpt>
      <trkpt lat="46.19577" lon="2.39187">
        <ele>309</ele>
        <time>2017-04-08T13:56:43Z</time>
      </trkpt>
      <trkpt lat="46.1958" lon="2.39198">
        <ele>308</ele>
        <time>2017-04-08T13:56:47Z</time>
      </trkpt>
      <trkpt lat="46.19583" lon="2.39209">
        <ele>308</ele>
        <time>2017-04-08T13:56:50Z</time>
      </trkpt>
      <trkpt lat="46.19587" lon="2.39222">
        <ele>310</ele>
        <time>2017-04-08T13:56:53Z</time>
      </trkpt>
      <trkpt lat="46.19589" lon="2.39236">
        <ele>314</ele>
        <time>2017-04-08T13:56:57Z</time>
      </trkpt>
      <trkpt lat="46.1959" lon="2.39246">
        <ele>317</ele>
        <time>2017-04-08T13:57:00Z</time>
      </trkpt>
      <trkpt lat="46.19592" lon="2.39261">
        <ele>323</ele>
        <time>2017-04-08T13:57:04Z</time>
      </trkpt>
      <trkpt lat="46.19595" lon="2.3927">
        <ele>328</ele>
        <time>2017-04-08T13:57:07Z</time>
      </trkpt>
      <trkpt lat="46.19597" lon="2.39276">
        <ele>331</ele>
        <time>2017-04-08T13:57:10Z</time>
      </trkpt>
      <trkpt lat="46.19599" lon="2.3928">
        <ele>334</ele>
        <time>2017-04-08T13:57:13Z</time>
      </trkpt>
      <trkpt lat="46.19603" lon="2.39287">
        <ele>335</ele>
        <time>2017-04-08T13:57:17Z</time>
      </trkpt>
      <trkpt lat="46.19605" lon="2.39293">
        <ele>335</ele>
        <time>2017-04-08T13:57:21Z</time>
      </trkpt>
      <trkpt lat="46.19607" lon="2.39298">
        <ele>334</ele>
        <time>2017-04-08T13:57:26Z</time>
      </trkpt>
      <trkpt lat="46.1961" lon="2.39303">
        <ele>332</ele>
        <time>2017-04-08T13:57:30Z</time>
      </trkpt>
      <trkpt lat="46.19613" lon="2.39307">
        <ele>331</ele>
        <time>2017-04-08T13:57:33Z</time>
      </trkpt>
      <trkpt lat="46.19617" lon="2.39311">
        <ele>328</ele>
        <time>2017-04-08T13:57:37Z</time>
      </trkpt>
      <trkpt lat="46.1962" lon="2.39314">
        <ele>327</ele>
        <time>2017-04-08T13:57:40Z</time>
      </trkpt>
      <trkpt lat="46.19624" lon="2.39318">
        <ele>326</ele>
        <time>2017-04-08T13:57:44Z</time>
      </trkpt>
      <trkpt lat="46.19627" lon="2.39321">
        <ele>325</ele>
        <time>2017-04-08T13:57:48Z</time>
      </trkpt>
      <trkpt lat="46.19631" lon="2.39325">
        <ele>324</ele>
        <time>2017-04-08T13:57:52Z</time>
      </trkpt>
      <trkpt lat="46.19634" lon="2.39328">
        <ele>324</ele>
        <time>2017-04-08T13:57:55Z</time>
      </trkpt>
      <trkpt lat="46.19637" lon="2.3933">
        <ele>324</ele>
        <time>2017-04-08T13:57:58Z</time>
      </trkpt>
      <trkpt lat="46.19641" lon="2.39333">
        <ele>324</ele>
        <time>2017-04-08T13:58:02Z</time>
      </trkpt>
      <trkpt lat="46.19645" lon="2.39337">
        <ele>324</ele>
        <time>2017-04-08T13:58:05Z</time>
      </trkpt>
      <trkpt lat="46.19648" lon="2.39342">
        <ele>324</ele>
        <time>2017-04-08T13:58:08Z</time>
      </trkpt>
      <trkpt lat="46.1965" lon="2.39349">
        <ele>326</ele>
        <time>2017-04-08T13:58:11Z</time>
      </trkpt>
      <trkpt lat="46.19652" lon="2.3936">
        <ele>330</ele>
        <time>2017-04-08T13:58:15Z</time>
      </trkpt>
      <trkpt lat="46.19654" lon="2.39363">
        <ele>335</ele>
        <time>2017-04-08T13:58:18Z</time>
      </trkpt>
      <trkpt lat="46.19654" lon="2.39367">
        <ele>341</ele>
        <time>2017-04-08T13:58:23Z</time>
      </trkpt>
      <trkpt lat="46.19656" lon="2.39369">
        <ele>345</ele>
        <time>2017-04-08T13:58:27Z</time>
      </trkpt>
      <trkpt lat="46.19657" lon="2.39371">
        <ele>348</ele>
        <time>2017-04-08T13:58:30Z</time>
      </trkpt>
      <trkpt lat="46.19658" lon="2.39375">
        <ele>353</ele>
        <time>2017-04-08T13:58:44Z</time>
      </trkpt>
      <trkpt lat="46.19659" lon="2.39381">
        <ele>353</ele>
        <time>2017-04-08T13:58:47Z</time>
      </trkpt>
      <trkpt lat="46.19659" lon="2.39386">
        <ele>353</ele>
        <time>2017-04-08T13:58:50Z</time>
      </trkpt>
      <trkpt lat="46.19659" lon="2.39394">
        <ele>353</ele>
        <time>2017-04-08T13:58:54Z</time>
      </trkpt>
      <trkpt lat="46.19659" lon="2.394">
        <ele>353</ele>
        <time>2017-04-08T13:58:57Z</time>
      </trkpt>
      <trkpt lat="46.1966" lon="2.39407">
        <ele>353</ele>
        <time>2017-04-08T13:59:01Z</time>
      </trkpt>
      <trkpt lat="46.19661" lon="2.39413">
        <ele>353</ele>
        <time>2017-04-08T13:59:05Z</time>
      </trkpt>
      <trkpt lat="46.19663" lon="2.39418">
        <ele>353</ele>
        <time>2017-04-08T13:59:08Z</time>
      </trkpt>
      <trkpt lat="46.19664" lon="2.39425">
        <ele>353</ele>
        <time>2017-04-08T13:59:12Z</time>
      </trkpt>
      <trkpt lat="46.19666" lon="2.3943">
        <ele>353</ele>
        <time>2017-04-08T13:59:15Z</time>
      </trkpt>
      <trkpt lat="46.19668" lon="2.39434">
        <ele>352</ele>
        <time>2017-04-08T13:59:18Z</time>
      </trkpt>
      <trkpt lat="46.19669" lon="2.39438">
        <ele>350</ele>
        <time>2017-04-08T13:59:21Z</time>
      </trkpt>
      <trkpt lat="46.19672" lon="2.39443">
        <ele>348</ele>
        <time>2017-04-08T13:59:25Z</time>
      </trkpt>
      <trkpt lat="46.19673" lon="2.39449">
        <ele>347</ele>
        <time>2017-04-08T13:59:28Z</time>
      </trkpt>
      <trkpt lat="46.19675" lon="2.39454">
        <ele>346</ele>
        <time>2017-04-08T13:59:31Z</time>
      </trkpt>
      <trkpt lat="46.19675" lon="2.39459">
        <ele>346</ele>
        <time>2017-04-08T13:59:34Z</time>
      </trkpt>
      <trkpt lat="46.19675" lon="2.39465">
        <ele>346</ele>
        <time>2017-04-08T13:59:37Z</time>
      </trkpt>
      <trkpt lat="46.19675" lon="2.39472">
        <ele>346</ele>
        <time>2017-04-08T13:59:40Z</time>
      </trkpt>
      <trkpt lat="46.19675" lon="2.39478">
        <ele>346</ele>
        <time>2017-04-08T13:59:43Z</time>
      </trkpt>
      <trkpt lat="46.19675" lon="2.39484">
        <ele>345</ele>
        <time>2017-04-08T13:59:46Z</time>
      </trkpt>
      <trkpt lat="46.19674" lon="2.3949">
        <ele>345</ele>
        <time>2017-04-08T13:59:49Z</time>
      </trkpt>
      <trkpt lat="46.19672" lon="2.39499">
        <ele>345</ele>
        <time>2017-04-08T13:59:53Z</time>
      </trkpt>
      <trkpt lat="46.1967" lon="2.39509">
        <ele>345</ele>
        <time>2017-04-08T13:59:56Z</time>
      </trkpt>
      <trkpt lat="46.19668" lon="2.39515">
        <ele>345</ele>
        <time>2017-04-08T13:59:59Z</time>
      </trkpt>
      <trkpt lat="46.19666" lon="2.39522">
        <ele>345</ele>
        <time>2017-04-08T14:00:02Z</time>
      </trkpt>
      <trkpt lat="46.19666" lon="2.39528">
        <ele>345</ele>
        <time>2017-04-08T14:00:05Z</time>
      </trkpt>
      <trkpt lat="46.19666" lon="2.39536">
        <ele>346</ele>
        <time>2017-04-08T14:00:09Z</time>
      </trkpt>
      <trkpt lat="46.19666" lon="2.39541">
        <ele>347</ele>
        <time>2017-04-08T14:00:12Z</time>
      </trkpt>
      <trkpt lat="46.19662" lon="2.39545">
        <ele>348</ele>
        <time>2017-04-08T14:00:16Z</time>
      </trkpt>
      <trkpt lat="46.19658" lon="2.39551">
        <ele>349</ele>
        <time>2017-04-08T14:00:20Z</time>
      </trkpt>
      <trkpt lat="46.19654" lon="2.39559">
        <ele>349</ele>
        <time>2017-04-08T14:00:24Z</time>
      </trkpt>
      <trkpt lat="46.19652" lon="2.39565">
        <ele>350</ele>
        <time>2017-04-08T14:00:28Z</time>
      </trkpt>
      <trkpt lat="46.1965" lon="2.39571">
        <ele>350</ele>
        <time>2017-04-08T14:00:31Z</time>
      </trkpt>
      <trkpt lat="46.19646" lon="2.39579">
        <ele>351</ele>
        <time>2017-04-08T14:00:35Z</time>
      </trkpt>
      <trkpt lat="46.19644" lon="2.39584">
        <ele>353</ele>
        <time>2017-04-08T14:00:38Z</time>
      </trkpt>
      <trkpt lat="46.19643" lon="2.3959">
        <ele>353</ele>
        <time>2017-04-08T14:00:41Z</time>
      </trkpt>
      <trkpt lat="46.19641" lon="2.39596">
        <ele>353</ele>
        <time>2017-04-08T14:00:44Z</time>
      </trkpt>
      <trkpt lat="46.19641" lon="2.39601">
        <ele>354</ele>
        <time>2017-04-08T14:00:47Z</time>
      </trkpt>
      <trkpt lat="46.1964" lon="2.3961">
        <ele>354</ele>
        <time>2017-04-08T14:00:51Z</time>
      </trkpt>
      <trkpt lat="46.19638" lon="2.39616">
        <ele>354</ele>
        <time>2017-04-08T14:00:55Z</time>
      </trkpt>
      <trkpt lat="46.19636" lon="2.39622">
        <ele>354</ele>
        <time>2017-04-08T14:00:59Z</time>
      </trkpt>
      <trkpt lat="46.19632" lon="2.39627">
        <ele>354</ele>
        <time>2017-04-08T14:01:03Z</time>
      </trkpt>
      <trkpt lat="46.19631" lon="2.39633">
        <ele>354</ele>
        <time>2017-04-08T14:01:06Z</time>
      </trkpt>
      <trkpt lat="46.19629" lon="2.39639">
        <ele>354</ele>
        <time>2017-04-08T14:01:09Z</time>
      </trkpt>
      <trkpt lat="46.19626" lon="2.39648">
        <ele>354</ele>
        <time>2017-04-08T14:01:13Z</time>
      </trkpt>
      <trkpt lat="46.19624" lon="2.39653">
        <ele>354</ele>
        <time>2017-04-08T14:01:16Z</time>
      </trkpt>
      <trkpt lat="46.19622" lon="2.39657">
        <ele>354</ele>
        <time>2017-04-08T14:01:19Z</time>
      </trkpt>
      <trkpt lat="46.1962" lon="2.39662">
        <ele>354</ele>
        <time>2017-04-08T14:01:22Z</time>
      </trkpt>
      <trkpt lat="46.19619" lon="2.39667">
        <ele>354</ele>
        <time>2017-04-08T14:01:25Z</time>
      </trkpt>
      <trkpt lat="46.19615" lon="2.39673">
        <ele>355</ele>
        <time>2017-04-08T14:01:30Z</time>
      </trkpt>
      <trkpt lat="46.19613" lon="2.39679">
        <ele>355</ele>
        <time>2017-04-08T14:01:34Z</time>
      </trkpt>
      <trkpt lat="46.19611" lon="2.39685">
        <ele>355</ele>
        <time>2017-04-08T14:01:37Z</time>
      </trkpt>
      <trkpt lat="46.19609" lon="2.3969">
        <ele>355</ele>
        <time>2017-04-08T14:01:40Z</time>
      </trkpt>
      <trkpt lat="46.19606" lon="2.39694">
        <ele>355</ele>
        <time>2017-04-08T14:01:44Z</time>
      </trkpt>
      <trkpt lat="46.19603" lon="2.39698">
        <ele>355</ele>
        <time>2017-04-08T14:01:47Z</time>
      </trkpt>
      <trkpt lat="46.196" lon="2.39707">
        <ele>355</ele>
        <time>2017-04-08T14:01:52Z</time>
      </trkpt>
      <trkpt lat="46.196" lon="2.39712">
        <ele>355</ele>
        <time>2017-04-08T14:01:55Z</time>
      </trkpt>
      <trkpt lat="46.19598" lon="2.39715">
        <ele>355</ele>
        <time>2017-04-08T14:01:58Z</time>
      </trkpt>
      <trkpt lat="46.19596" lon="2.3972">
        <ele>356</ele>
        <time>2017-04-08T14:02:01Z</time>
      </trkpt>
      <trkpt lat="46.19594" lon="2.39724">
        <ele>357</ele>
        <time>2017-04-08T14:02:05Z</time>
      </trkpt>
      <trkpt lat="46.19593" lon="2.39729">
        <ele>358</ele>
        <time>2017-04-08T14:02:08Z</time>
      </trkpt>
      <trkpt lat="46.19591" lon="2.39734">
        <ele>358</ele>
        <time>2017-04-08T14:02:11Z</time>
      </trkpt>
      <trkpt lat="46.19588" lon="2.39739">
        <ele>359</ele>
        <time>2017-04-08T14:02:15Z</time>
      </trkpt>
      <trkpt lat="46.19586" lon="2.39743">
        <ele>360</ele>
        <time>2017-04-08T14:02:18Z</time>
      </trkpt>
      <trkpt lat="46.19585" lon="2.39748">
        <ele>360</ele>
        <time>2017-04-08T14:02:21Z</time>
      </trkpt>
      <trkpt lat="46.19585" lon="2.39755">
        <ele>360</ele>
        <time>2017-04-08T14:02:24Z</time>
      </trkpt>
      <trkpt lat="46.19584" lon="2.39759">
        <ele>360</ele>
        <time>2017-04-08T14:02:27Z</time>
      </trkpt>
      <trkpt lat="46.19584" lon="2.39766">
        <ele>360</ele>
        <time>2017-04-08T14:02:31Z</time>
      </trkpt>
      <trkpt lat="46.19585" lon="2.39771">
        <ele>360</ele>
        <time>2017-04-08T14:02:34Z</time>
      </trkpt>
      <trkpt lat="46.19584" lon="2.39775">
        <ele>360</ele>
        <time>2017-04-08T14:02:37Z</time>
      </trkpt>
      <trkpt lat="46.19584" lon="2.39782">
        <ele>360</ele>
        <time>2017-04-08T14:02:41Z</time>
      </trkpt>
      <trkpt lat="46.19583" lon="2.39787">
        <ele>360</ele>
        <time>2017-04-08T14:02:44Z</time>
      </trkpt>
      <trkpt lat="46.19582" lon="2.39796">
        <ele>360</ele>
        <time>2017-04-08T14:02:48Z</time>
      </trkpt>
      <trkpt lat="46.19582" lon="2.39801">
        <ele>360</ele>
        <time>2017-04-08T14:02:51Z</time>
      </trkpt>
      <trkpt lat="46.19582" lon="2.39807">
        <ele>360</ele>
        <time>2017-04-08T14:02:54Z</time>
      </trkpt>
      <trkpt lat="46.19581" lon="2.39813">
        <ele>360</ele>
        <time>2017-04-08T14:02:57Z</time>
      </trkpt>
      <trkpt lat="46.1958" lon="2.39819">
        <ele>360</ele>
        <time>2017-04-08T14:03:00Z</time>
      </trkpt>
      <trkpt lat="46.19579" lon="2.39824">
        <ele>360</ele>
        <time>2017-04-08T14:03:03Z</time>
      </trkpt>
      <trkpt lat="46.19577" lon="2.3983">
        <ele>360</ele>
        <time>2017-04-08T14:03:06Z</time>
      </trkpt>
      <trkpt lat="46.19574" lon="2.3984">
        <ele>360</ele>
        <time>2017-04-08T14:03:10Z</time>
      </trkpt>
      <trkpt lat="46.19574" lon="2.39845">
        <ele>360</ele>
        <time>2017-04-08T14:03:13Z</time>
      </trkpt>
      <trkpt lat="46.19572" lon="2.39851">
        <ele>360</ele>
        <time>2017-04-08T14:03:16Z</time>
      </trkpt>
      <trkpt lat="46.1957" lon="2.3986">
        <ele>361</ele>
        <time>2017-04-08T14:03:19Z</time>
      </trkpt>
      <trkpt lat="46.19568" lon="2.39869">
        <ele>362</ele>
        <time>2017-04-08T14:03:23Z</time>
      </trkpt>
      <trkpt lat="46.19566" lon="2.39876">
        <ele>362</ele>
        <time>2017-04-08T14:03:26Z</time>
      </trkpt>
      <trkpt lat="46.19564" lon="2.39882">
        <ele>362</ele>
        <time>2017-04-08T14:03:30Z</time>
      </trkpt>
      <trkpt lat="46.19562" lon="2.39889">
        <ele>362</ele>
        <time>2017-04-08T14:03:34Z</time>
      </trkpt>
      <trkpt lat="46.1956" lon="2.39893">
        <ele>363</ele>
        <time>2017-04-08T14:03:37Z</time>
      </trkpt>
      <trkpt lat="46.19558" lon="2.39897">
        <ele>364</ele>
        <time>2017-04-08T14:03:40Z</time>
      </trkpt>
      <trkpt lat="46.19556" lon="2.39902">
        <ele>365</ele>
        <time>2017-04-08T14:03:43Z</time>
      </trkpt>
      <trkpt lat="46.19554" lon="2.39908">
        <ele>365</ele>
        <time>2017-04-08T14:03:47Z</time>
      </trkpt>
      <trkpt lat="46.19552" lon="2.39912">
        <ele>365</ele>
        <time>2017-04-08T14:03:50Z</time>
      </trkpt>
      <trkpt lat="46.19551" lon="2.39917">
        <ele>365</ele>
        <time>2017-04-08T14:03:53Z</time>
      </trkpt>
      <trkpt lat="46.19548" lon="2.39922">
        <ele>365</ele>
        <time>2017-04-08T14:03:56Z</time>
      </trkpt>
      <trkpt lat="46.19546" lon="2.3993">
        <ele>365</ele>
        <time>2017-04-08T14:04:00Z</time>
      </trkpt>
      <trkpt lat="46.19544" lon="2.39936">
        <ele>365</ele>
        <time>2017-04-08T14:04:04Z</time>
      </trkpt>
      <trkpt lat="46.19541" lon="2.39944">
        <ele>365</ele>
        <time>2017-04-08T14:04:08Z</time>
      </trkpt>
      <trkpt lat="46.19539" lon="2.39949">
        <ele>365</ele>
        <time>2017-04-08T14:04:11Z</time>
      </trkpt>
      <trkpt lat="46.19537" lon="2.39954">
        <ele>365</ele>
        <time>2017-04-08T14:04:14Z</time>
      </trkpt>
      <trkpt lat="46.19535" lon="2.39959">
        <ele>365</ele>
        <time>2017-04-08T14:04:17Z</time>
      </trkpt>
      <trkpt lat="46.19532" lon="2.39964">
        <ele>365</ele>
        <time>2017-04-08T14:04:20Z</time>
      </trkpt>
      <trkpt lat="46.1953" lon="2.39969">
        <ele>365</ele>
        <time>2017-04-08T14:04:23Z</time>
      </trkpt>
      <trkpt lat="46.19529" lon="2.39974">
        <ele>365</ele>
        <time>2017-04-08T14:04:26Z</time>
      </trkpt>
      <trkpt lat="46.19527" lon="2.39979">
        <ele>365</ele>
        <time>2017-04-08T14:04:29Z</time>
      </trkpt>
      <trkpt lat="46.19524" lon="2.39984">
        <ele>365</ele>
        <time>2017-04-08T14:04:32Z</time>
      </trkpt>
      <trkpt lat="46.19522" lon="2.39989">
        <ele>365</ele>
        <time>2017-04-08T14:04:35Z</time>
      </trkpt>
      <trkpt lat="46.19519" lon="2.39994">
        <ele>365</ele>
        <time>2017-04-08T14:04:38Z</time>
      </trkpt>
      <trkpt lat="46.19517" lon="2.39999">
        <ele>365</ele>
        <time>2017-04-08T14:04:41Z</time>
      </trkpt>
      <trkpt lat="46.19514" lon="2.40005">
        <ele>365</ele>
        <time>2017-04-08T14:04:45Z</time>
      </trkpt>
      <trkpt lat="46.19512" lon="2.40009">
        <ele>365</ele>
        <time>2017-04-08T14:04:48Z</time>
      </trkpt>
      <trkpt lat="46.19509" lon="2.40014">
        <ele>365</ele>
        <time>2017-04-08T14:04:51Z</time>
      </trkpt>
      <trkpt lat="46.19506" lon="2.40019">
        <ele>365</ele>
        <time>2017-04-08T14:04:55Z</time>
      </trkpt>
      <trkpt lat="46.19503" lon="2.40025">
        <ele>365</ele>
        <time>2017-04-08T14:04:58Z</time>
      </trkpt>
      <trkpt lat="46.19501" lon="2.4003">
        <ele>365</ele>
        <time>2017-04-08T14:05:01Z</time>
      </trkpt>
      <trkpt lat="46.19496" lon="2.40037">
        <ele>365</ele>
        <time>2017-04-08T14:05:05Z</time>
      </trkpt>
      <trkpt lat="46.19494" lon="2.40043">
        <ele>365</ele>
        <time>2017-04-08T14:05:08Z</time>
      </trkpt>
      <trkpt lat="46.19492" lon="2.4005">
        <ele>365</ele>
        <time>2017-04-08T14:05:12Z</time>
      </trkpt>
      <trkpt lat="46.1949" lon="2.40056">
        <ele>365</ele>
        <time>2017-04-08T14:05:15Z</time>
      </trkpt>
      <trkpt lat="46.19488" lon="2.40061">
        <ele>365</ele>
        <time>2017-04-08T14:05:18Z</time>
      </trkpt>
      <trkpt lat="46.19486" lon="2.40068">
        <ele>365</ele>
        <time>2017-04-08T14:05:21Z</time>
      </trkpt>
      <trkpt lat="46.19484" lon="2.40073">
        <ele>365</ele>
        <time>2017-04-08T14:05:24Z</time>
      </trkpt>
      <trkpt lat="46.19483" lon="2.40078">
        <ele>365</ele>
        <time>2017-04-08T14:05:27Z</time>
      </trkpt>
      <trkpt lat="46.19482" lon="2.40084">
        <ele>365</ele>
        <time>2017-04-08T14:05:30Z</time>
      </trkpt>
      <trkpt lat="46.19479" lon="2.4009">
        <ele>365</ele>
        <time>2017-04-08T14:05:33Z</time>
      </trkpt>
      <trkpt lat="46.19477" lon="2.40097">
        <ele>365</ele>
        <time>2017-04-08T14:05:37Z</time>
      </trkpt>
      <trkpt lat="46.19476" lon="2.40103">
        <ele>365</ele>
        <time>2017-04-08T14:05:40Z</time>
      </trkpt>
      <trkpt lat="46.19474" lon="2.40108">
        <ele>365</ele>
        <time>2017-04-08T14:05:43Z</time>
      </trkpt>
      <trkpt lat="46.19473" lon="2.40113">
        <ele>365</ele>
        <time>2017-04-08T14:05:46Z</time>
      </trkpt>
      <trkpt lat="46.19472" lon="2.40119">
        <ele>366</ele>
        <time>2017-04-08T14:05:49Z</time>
      </trkpt>
      <trkpt lat="46.19471" lon="2.40124">
        <ele>366</ele>
        <time>2017-04-08T14:05:52Z</time>
      </trkpt>
      <trkpt lat="46.19469" lon="2.40129">
        <ele>366</ele>
        <time>2017-04-08T14:05:55Z</time>
      </trkpt>
      <trkpt lat="46.19468" lon="2.40134">
        <ele>366</ele>
        <time>2017-04-08T14:05:58Z</time>
      </trkpt>
      <trkpt lat="46.19465" lon="2.40142">
        <ele>366</ele>
        <time>2017-04-08T14:06:02Z</time>
      </trkpt>
      <trkpt lat="46.19464" lon="2.40147">
        <ele>366</ele>
        <time>2017-04-08T14:06:05Z</time>
      </trkpt>
      <trkpt lat="46.19462" lon="2.40152">
        <ele>366</ele>
        <time>2017-04-08T14:06:08Z</time>
      </trkpt>
      <trkpt lat="46.19459" lon="2.40159">
        <ele>368</ele>
        <time>2017-04-08T14:06:13Z</time>
      </trkpt>
      <trkpt lat="46.19457" lon="2.40164">
        <ele>369</ele>
        <time>2017-04-08T14:06:17Z</time>
      </trkpt>
      <trkpt lat="46.19455" lon="2.40169">
        <ele>370</ele>
        <time>2017-04-08T14:06:20Z</time>
      </trkpt>
      <trkpt lat="46.19453" lon="2.40175">
        <ele>370</ele>
        <time>2017-04-08T14:06:23Z</time>
      </trkpt>
      <trkpt lat="46.1945" lon="2.4018">
        <ele>370</ele>
        <time>2017-04-08T14:06:26Z</time>
      </trkpt>
      <trkpt lat="46.19447" lon="2.40185">
        <ele>370</ele>
        <time>2017-04-08T14:06:29Z</time>
      </trkpt>
      <trkpt lat="46.19443" lon="2.40192">
        <ele>370</ele>
        <time>2017-04-08T14:06:33Z</time>
      </trkpt>
      <trkpt lat="46.19439" lon="2.40197">
        <ele>370</ele>
        <time>2017-04-08T14:06:36Z</time>
      </trkpt>
      <trkpt lat="46.19436" lon="2.40202">
        <ele>370</ele>
        <time>2017-04-08T14:06:39Z</time>
      </trkpt>
      <trkpt lat="46.19433" lon="2.40206">
        <ele>370</ele>
        <time>2017-04-08T14:06:42Z</time>
      </trkpt>
      <trkpt lat="46.1943" lon="2.4021">
        <ele>370</ele>
        <time>2017-04-08T14:06:45Z</time>
      </trkpt>
      <trkpt lat="46.19427" lon="2.40216">
        <ele>370</ele>
        <time>2017-04-08T14:06:48Z</time>
      </trkpt>
      <trkpt lat="46.19421" lon="2.40224">
        <ele>370</ele>
        <time>2017-04-08T14:06:53Z</time>
      </trkpt>
      <trkpt lat="46.19418" lon="2.40229">
        <ele>370</ele>
        <time>2017-04-08T14:06:57Z</time>
      </trkpt>
      <trkpt lat="46.19415" lon="2.40234">
        <ele>370</ele>
        <time>2017-04-08T14:07:00Z</time>
      </trkpt>
      <trkpt lat="46.19412" lon="2.40241">
        <ele>370</ele>
        <time>2017-04-08T14:07:03Z</time>
      </trkpt>
      <trkpt lat="46.19409" lon="2.40246">
        <ele>370</ele>
        <time>2017-04-08T14:07:06Z</time>
      </trkpt>
      <trkpt lat="46.19407" lon="2.40253">
        <ele>371</ele>
        <time>2017-04-08T14:07:10Z</time>
      </trkpt>
      <trkpt lat="46.19404" lon="2.40259">
        <ele>373</ele>
        <time>2017-04-08T14:07:14Z</time>
      </trkpt>
      <trkpt lat="46.19403" lon="2.40264">
        <ele>374</ele>
        <time>2017-04-08T14:07:17Z</time>
      </trkpt>
      <trkpt lat="46.19402" lon="2.40268">
        <ele>374</ele>
        <time>2017-04-08T14:07:20Z</time>
      </trkpt>
      <trkpt lat="46.194" lon="2.40273">
        <ele>374</ele>
        <time>2017-04-08T14:07:23Z</time>
      </trkpt>
      <trkpt lat="46.19398" lon="2.40279">
        <ele>374</ele>
        <time>2017-04-08T14:07:27Z</time>
      </trkpt>
      <trkpt lat="46.19397" lon="2.40283">
        <ele>374</ele>
        <time>2017-04-08T14:07:30Z</time>
      </trkpt>
      <trkpt lat="46.19394" lon="2.4029">
        <ele>374</ele>
        <time>2017-04-08T14:07:34Z</time>
      </trkpt>
      <trkpt lat="46.19392" lon="2.40298">
        <ele>375</ele>
        <time>2017-04-08T14:07:38Z</time>
      </trkpt>
      <trkpt lat="46.1939" lon="2.40306">
        <ele>375</ele>
        <time>2017-04-08T14:07:42Z</time>
      </trkpt>
      <trkpt lat="46.19388" lon="2.40313">
        <ele>376</ele>
        <time>2017-04-08T14:07:45Z</time>
      </trkpt>
      <trkpt lat="46.19385" lon="2.40321">
        <ele>377</ele>
        <time>2017-04-08T14:07:49Z</time>
      </trkpt>
      <trkpt lat="46.19383" lon="2.40325">
        <ele>378</ele>
        <time>2017-04-08T14:07:52Z</time>
      </trkpt>
      <trkpt lat="46.1938" lon="2.40329">
        <ele>379</ele>
        <time>2017-04-08T14:07:55Z</time>
      </trkpt>
      <trkpt lat="46.19376" lon="2.40332">
        <ele>379</ele>
        <time>2017-04-08T14:07:58Z</time>
      </trkpt>
      <trkpt lat="46.19371" lon="2.40336">
        <ele>380</ele>
        <time>2017-04-08T14:08:02Z</time>
      </trkpt>
      <trkpt lat="46.19367" lon="2.4034">
        <ele>380</ele>
        <time>2017-04-08T14:08:06Z</time>
      </trkpt>
      <trkpt lat="46.19363" lon="2.40345">
        <ele>381</ele>
        <time>2017-04-08T14:08:11Z</time>
      </trkpt>
      <trkpt lat="46.19358" lon="2.40349">
        <ele>381</ele>
        <time>2017-04-08T14:08:15Z</time>
      </trkpt>
      <trkpt lat="46.19355" lon="2.40352">
        <ele>381</ele>
        <time>2017-04-08T14:08:18Z</time>
      </trkpt>
      <trkpt lat="46.19351" lon="2.40354">
        <ele>383</ele>
        <time>2017-04-08T14:08:21Z</time>
      </trkpt>
      <trkpt lat="46.19346" lon="2.40356">
        <ele>385</ele>
        <time>2017-04-08T14:08:25Z</time>
      </trkpt>
      <trkpt lat="46.19342" lon="2.4036">
        <ele>387</ele>
        <time>2017-04-08T14:08:29Z</time>
      </trkpt>
      <trkpt lat="46.19339" lon="2.40365">
        <ele>387</ele>
        <time>2017-04-08T14:08:33Z</time>
      </trkpt>
      <trkpt lat="46.19337" lon="2.4037">
        <ele>387</ele>
        <time>2017-04-08T14:08:37Z</time>
      </trkpt>
      <trkpt lat="46.19333" lon="2.40377">
        <ele>387</ele>
        <time>2017-04-08T14:08:40Z</time>
      </trkpt>
      <trkpt lat="46.19331" lon="2.40381">
        <ele>387</ele>
        <time>2017-04-08T14:08:43Z</time>
      </trkpt>
      <trkpt lat="46.19329" lon="2.40387">
        <ele>387</ele>
        <time>2017-04-08T14:08:46Z</time>
      </trkpt>
      <trkpt lat="46.19329" lon="2.40392">
        <ele>388</ele>
        <time>2017-04-08T14:08:49Z</time>
      </trkpt>
      <trkpt lat="46.19328" lon="2.404">
        <ele>388</ele>
        <time>2017-04-08T14:08:53Z</time>
      </trkpt>
      <trkpt lat="46.19329" lon="2.40405">
        <ele>388</ele>
        <time>2017-04-08T14:08:56Z</time>
      </trkpt>
      <trkpt lat="46.1933" lon="2.40412">
        <ele>388</ele>
        <time>2017-04-08T14:09:00Z</time>
      </trkpt>
      <trkpt lat="46.19331" lon="2.40419">
        <ele>388</ele>
        <time>2017-04-08T14:09:03Z</time>
      </trkpt>
      <trkpt lat="46.19331" lon="2.40425">
        <ele>388</ele>
        <time>2017-04-08T14:09:06Z</time>
      </trkpt>
      <trkpt lat="46.19332" lon="2.40433">
        <ele>388</ele>
        <time>2017-04-08T14:09:10Z</time>
      </trkpt>
      <trkpt lat="46.19334" lon="2.4044">
        <ele>388</ele>
        <time>2017-04-08T14:09:14Z</time>
      </trkpt>
      <trkpt lat="46.19334" lon="2.40446">
        <ele>388</ele>
        <time>2017-04-08T14:09:17Z</time>
      </trkpt>
      <trkpt lat="46.19335" lon="2.40451">
        <ele>388</ele>
        <time>2017-04-08T14:09:20Z</time>
      </trkpt>
      <trkpt lat="46.19336" lon="2.40459">
        <ele>388</ele>
        <time>2017-04-08T14:09:24Z</time>
      </trkpt>
      <trkpt lat="46.19337" lon="2.40464">
        <ele>388</ele>
        <time>2017-04-08T14:09:27Z</time>
      </trkpt>
      <trkpt lat="46.19337" lon="2.40469">
        <ele>388</ele>
        <time>2017-04-08T14:09:30Z</time>
      </trkpt>
      <trkpt lat="46.19338" lon="2.40473">
        <ele>388</ele>
        <time>2017-04-08T14:09:33Z</time>
      </trkpt>
      <trkpt lat="46.19339" lon="2.40478">
        <ele>388</ele>
        <time>2017-04-08T14:09:36Z</time>
      </trkpt>
      <trkpt lat="46.19339" lon="2.40486">
        <ele>388</ele>
        <time>2017-04-08T14:09:39Z</time>
      </trkpt>
      <trkpt lat="46.19339" lon="2.40491">
        <ele>388</ele>
        <time>2017-04-08T14:09:42Z</time>
      </trkpt>
      <trkpt lat="46.19339" lon="2.40499">
        <ele>388</ele>
        <time>2017-04-08T14:09:46Z</time>
      </trkpt>
      <trkpt lat="46.1934" lon="2.40505">
        <ele>388</ele>
        <time>2017-04-08T14:09:49Z</time>
      </trkpt>
      <trkpt lat="46.19341" lon="2.4051">
        <ele>388</ele>
        <time>2017-04-08T14:09:52Z</time>
      </trkpt>
      <trkpt lat="46.19342" lon="2.40515">
        <ele>388</ele>
        <time>2017-04-08T14:09:55Z</time>
      </trkpt>
      <trkpt lat="46.19342" lon="2.4052">
        <ele>388</ele>
        <time>2017-04-08T14:09:58Z</time>
      </trkpt>
      <trkpt lat="46.19343" lon="2.40526">
        <ele>388</ele>
        <time>2017-04-08T14:10:01Z</time>
      </trkpt>
      <trkpt lat="46.19343" lon="2.40531">
        <ele>388</ele>
        <time>2017-04-08T14:10:04Z</time>
      </trkpt>
      <trkpt lat="46.19343" lon="2.40539">
        <ele>388</ele>
        <time>2017-04-08T14:10:08Z</time>
      </trkpt>
      <trkpt lat="46.19344" lon="2.40545">
        <ele>388</ele>
        <time>2017-04-08T14:10:11Z</time>
      </trkpt>
      <trkpt lat="46.19344" lon="2.4055">
        <ele>388</ele>
        <time>2017-04-08T14:10:14Z</time>
      </trkpt>
      <trkpt lat="46.19344" lon="2.40557">
        <ele>388</ele>
        <time>2017-04-08T14:10:18Z</time>
      </trkpt>
      <trkpt lat="46.19344" lon="2.40562">
        <ele>388</ele>
        <time>2017-04-08T14:10:21Z</time>
      </trkpt>
      <trkpt lat="46.19344" lon="2.40569">
        <ele>388</ele>
        <time>2017-04-08T14:10:25Z</time>
      </trkpt>
      <trkpt lat="46.19342" lon="2.40576">
        <ele>389</ele>
        <time>2017-04-08T14:10:29Z</time>
      </trkpt>
      <trkpt lat="46.19341" lon="2.40583">
        <ele>389</ele>
        <time>2017-04-08T14:10:32Z</time>
      </trkpt>
      <trkpt lat="46.19339" lon="2.40591">
        <ele>389</ele>
        <time>2017-04-08T14:10:36Z</time>
      </trkpt>
      <trkpt lat="46.19337" lon="2.40596">
        <ele>389</ele>
        <time>2017-04-08T14:10:39Z</time>
      </trkpt>
      <trkpt lat="46.19335" lon="2.406">
        <ele>389</ele>
        <time>2017-04-08T14:10:42Z</time>
      </trkpt>
      <trkpt lat="46.19334" lon="2.40605">
        <ele>390</ele>
        <time>2017-04-08T14:10:46Z</time>
      </trkpt>
      <trkpt lat="46.19333" lon="2.40609">
        <ele>390</ele>
        <time>2017-04-08T14:10:50Z</time>
      </trkpt>
      <trkpt lat="46.19334" lon="2.40616">
        <ele>390</ele>
        <time>2017-04-08T14:10:54Z</time>
      </trkpt>
      <trkpt lat="46.19336" lon="2.40622">
        <ele>390</ele>
        <time>2017-04-08T14:10:58Z</time>
      </trkpt>
      <trkpt lat="46.19337" lon="2.40629">
        <ele>390</ele>
        <time>2017-04-08T14:11:02Z</time>
      </trkpt>
      <trkpt lat="46.19337" lon="2.40631">
        <ele>390</ele>
        <time>2017-04-08T14:11:08Z</time>
      </trkpt>
      <trkpt lat="46.19338" lon="2.40633">
        <ele>390</ele>
        <time>2017-04-08T14:11:11Z</time>
      </trkpt>
      <trkpt lat="46.19339" lon="2.40637">
        <ele>390</ele>
        <time>2017-04-08T14:11:14Z</time>
      </trkpt>
      <trkpt lat="46.19341" lon="2.40643">
        <ele>390</ele>
        <time>2017-04-08T14:11:17Z</time>
      </trkpt>
      <trkpt lat="46.19342" lon="2.40648">
        <ele>390</ele>
        <time>2017-04-08T14:11:20Z</time>
      </trkpt>
      <trkpt lat="46.19344" lon="2.40655">
        <ele>390</ele>
        <time>2017-04-08T14:11:24Z</time>
      </trkpt>
      <trkpt lat="46.19345" lon="2.40662">
        <ele>390</ele>
        <time>2017-04-08T14:11:27Z</time>
      </trkpt>
      <trkpt lat="46.19347" lon="2.40668">
        <ele>390</ele>
        <time>2017-04-08T14:11:30Z</time>
      </trkpt>
      <trkpt lat="46.19348" lon="2.40676">
        <ele>390</ele>
        <time>2017-04-08T14:11:34Z</time>
      </trkpt>
      <trkpt lat="46.19349" lon="2.40684">
        <ele>390</ele>
        <time>2017-04-08T14:11:38Z</time>
      </trkpt>
      <trkpt lat="46.1935" lon="2.40692">
        <ele>390</ele>
        <time>2017-04-08T14:11:42Z</time>
      </trkpt>
      <trkpt lat="46.1935" lon="2.40699">
        <ele>390</ele>
        <time>2017-04-08T14:11:45Z</time>
      </trkpt>
      <trkpt lat="46.1935" lon="2.40705">
        <ele>390</ele>
        <time>2017-04-08T14:11:48Z</time>
      </trkpt>
      <trkpt lat="46.19351" lon="2.40711">
        <ele>390</ele>
        <time>2017-04-08T14:11:51Z</time>
      </trkpt>
      <trkpt lat="46.19352" lon="2.40717">
        <ele>390</ele>
        <time>2017-04-08T14:11:54Z</time>
      </trkpt>
      <trkpt lat="46.19352" lon="2.40723">
        <ele>390</ele>
        <time>2017-04-08T14:11:57Z</time>
      </trkpt>
      <trkpt lat="46.19352" lon="2.40729">
        <ele>390</ele>
        <time>2017-04-08T14:12:00Z</time>
      </trkpt>
      <trkpt lat="46.19352" lon="2.40736">
        <ele>390</ele>
        <time>2017-04-08T14:12:03Z</time>
      </trkpt>
      <trkpt lat="46.19353" lon="2.40743">
        <ele>390</ele>
        <time>2017-04-08T14:12:06Z</time>
      </trkpt>
      <trkpt lat="46.19353" lon="2.40752">
        <ele>390</ele>
        <time>2017-04-08T14:12:10Z</time>
      </trkpt>
      <trkpt lat="46.19353" lon="2.40758">
        <ele>390</ele>
        <time>2017-04-08T14:12:13Z</time>
      </trkpt>
      <trkpt lat="46.19353" lon="2.40764">
        <ele>390</ele>
        <time>2017-04-08T14:12:16Z</time>
      </trkpt>
      <trkpt lat="46.19354" lon="2.40773">
        <ele>390</ele>
        <time>2017-04-08T14:12:20Z</time>
      </trkpt>
      <trkpt lat="46.19355" lon="2.40782">
        <ele>390</ele>
        <time>2017-04-08T14:12:24Z</time>
      </trkpt>
      <trkpt lat="46.19355" lon="2.40788">
        <ele>390</ele>
        <time>2017-04-08T14:12:27Z</time>
      </trkpt>
      <trkpt lat="46.19355" lon="2.40797">
        <ele>390</ele>
        <time>2017-04-08T14:12:31Z</time>
      </trkpt>
      <trkpt lat="46.19356" lon="2.40803">
        <ele>391</ele>
        <time>2017-04-08T14:12:34Z</time>
      </trkpt>
      <trkpt lat="46.19356" lon="2.40809">
        <ele>391</ele>
        <time>2017-04-08T14:12:37Z</time>
      </trkpt>
      <trkpt lat="46.19356" lon="2.40817">
        <ele>391</ele>
        <time>2017-04-08T14:12:40Z</time>
      </trkpt>
      <trkpt lat="46.19356" lon="2.40824">
        <ele>391</ele>
        <time>2017-04-08T14:12:43Z</time>
      </trkpt>
      <trkpt lat="46.19357" lon="2.4083">
        <ele>391</ele>
        <time>2017-04-08T14:12:46Z</time>
      </trkpt>
      <trkpt lat="46.19357" lon="2.40836">
        <ele>391</ele>
        <time>2017-04-08T14:12:49Z</time>
      </trkpt>
      <trkpt lat="46.19358" lon="2.40843">
        <ele>391</ele>
        <time>2017-04-08T14:12:52Z</time>
      </trkpt>
      <trkpt lat="46.19358" lon="2.40851">
        <ele>391</ele>
        <time>2017-04-08T14:12:56Z</time>
      </trkpt>
      <trkpt lat="46.19358" lon="2.40858">
        <ele>391</ele>
        <time>2017-04-08T14:12:59Z</time>
      </trkpt>
      <trkpt lat="46.19359" lon="2.40864">
        <ele>391</ele>
        <time>2017-04-08T14:13:02Z</time>
      </trkpt>
      <trkpt lat="46.19359" lon="2.40871">
        <ele>391</ele>
        <time>2017-04-08T14:13:05Z</time>
      </trkpt>
      <trkpt lat="46.19359" lon="2.4088">
        <ele>391</ele>
        <time>2017-04-08T14:13:09Z</time>
      </trkpt>
      <trkpt lat="46.19359" lon="2.40886">
        <ele>391</ele>
        <time>2017-04-08T14:13:12Z</time>
      </trkpt>
      <trkpt lat="46.19358" lon="2.40895">
        <ele>391</ele>
        <time>2017-04-08T14:13:16Z</time>
      </trkpt>
      <trkpt lat="46.19358" lon="2.40901">
        <ele>391</ele>
        <time>2017-04-08T14:13:19Z</time>
      </trkpt>
      <trkpt lat="46.19358" lon="2.40908">
        <ele>391</ele>
        <time>2017-04-08T14:13:22Z</time>
      </trkpt>
      <trkpt lat="46.19359" lon="2.40914">
        <ele>391</ele>
        <time>2017-04-08T14:13:25Z</time>
      </trkpt>
      <trkpt lat="46.19359" lon="2.4092">
        <ele>391</ele>
        <time>2017-04-08T14:13:28Z</time>
      </trkpt>
      <trkpt lat="46.19359" lon="2.40929">
        <ele>391</ele>
        <time>2017-04-08T14:13:32Z</time>
      </trkpt>
      <trkpt lat="46.19359" lon="2.40935">
        <ele>391</ele>
        <time>2017-04-08T14:13:35Z</time>
      </trkpt>
      <trkpt lat="46.19358" lon="2.40942">
        <ele>391</ele>
        <time>2017-04-08T14:13:38Z</time>
      </trkpt>
      <trkpt lat="46.19359" lon="2.40948">
        <ele>391</ele>
        <time>2017-04-08T14:13:41Z</time>
      </trkpt>
      <trkpt lat="46.19359" lon="2.40954">
        <ele>391</ele>
        <time>2017-04-08T14:13:44Z</time>
      </trkpt>
      <trkpt lat="46.19358" lon="2.40961">
        <ele>391</ele>
        <time>2017-04-08T14:13:47Z</time>
      </trkpt>
      <trkpt lat="46.19358" lon="2.40971">
        <ele>391</ele>
        <time>2017-04-08T14:13:51Z</time>
      </trkpt>
      <trkpt lat="46.19358" lon="2.40977">
        <ele>391</ele>
        <time>2017-04-08T14:13:54Z</time>
      </trkpt>
      <trkpt lat="46.19357" lon="2.40986">
        <ele>391</ele>
        <time>2017-04-08T14:13:58Z</time>
      </trkpt>
      <trkpt lat="46.19356" lon="2.40992">
        <ele>392</ele>
        <time>2017-04-08T14:14:01Z</time>
      </trkpt>
      <trkpt lat="46.19354" lon="2.41001">
        <ele>393</ele>
        <time>2017-04-08T14:14:05Z</time>
      </trkpt>
      <trkpt lat="46.19354" lon="2.41008">
        <ele>393</ele>
        <time>2017-04-08T14:14:08Z</time>
      </trkpt>
      <trkpt lat="46.19353" lon="2.41014">
        <ele>393</ele>
        <time>2017-04-08T14:14:11Z</time>
      </trkpt>
      <trkpt lat="46.19353" lon="2.41021">
        <ele>393</ele>
        <time>2017-04-08T14:14:14Z</time>
      </trkpt>
      <trkpt lat="46.19352" lon="2.41027">
        <ele>393</ele>
        <time>2017-04-08T14:14:17Z</time>
      </trkpt>
      <trkpt lat="46.19352" lon="2.41033">
        <ele>393</ele>
        <time>2017-04-08T14:14:20Z</time>
      </trkpt>
      <trkpt lat="46.19352" lon="2.41039">
        <ele>393</ele>
        <time>2017-04-08T14:14:23Z</time>
      </trkpt>
      <trkpt lat="46.19351" lon="2.41045">
        <ele>393</ele>
        <time>2017-04-08T14:14:26Z</time>
      </trkpt>
      <trkpt lat="46.19351" lon="2.41052">
        <ele>393</ele>
        <time>2017-04-08T14:14:29Z</time>
      </trkpt>
      <trkpt lat="46.1935" lon="2.4106">
        <ele>393</ele>
        <time>2017-04-08T14:14:33Z</time>
      </trkpt>
      <trkpt lat="46.1935" lon="2.41067">
        <ele>393</ele>
        <time>2017-04-08T14:14:36Z</time>
      </trkpt>
      <trkpt lat="46.19349" lon="2.41073">
        <ele>393</ele>
        <time>2017-04-08T14:14:39Z</time>
      </trkpt>
      <trkpt lat="46.19347" lon="2.41083">
        <ele>393</ele>
        <time>2017-04-08T14:14:42Z</time>
      </trkpt>
      <trkpt lat="46.19346" lon="2.4109">
        <ele>393</ele>
        <time>2017-04-08T14:14:45Z</time>
      </trkpt>
      <trkpt lat="46.19345" lon="2.41096">
        <ele>393</ele>
        <time>2017-04-08T14:14:48Z</time>
      </trkpt>
      <trkpt lat="46.19344" lon="2.41104">
        <ele>393</ele>
        <time>2017-04-08T14:14:51Z</time>
      </trkpt>
      <trkpt lat="46.19343" lon="2.41112">
        <ele>393</ele>
        <time>2017-04-08T14:14:55Z</time>
      </trkpt>
      <trkpt lat="46.19342" lon="2.4112">
        <ele>393</ele>
        <time>2017-04-08T14:14:59Z</time>
      </trkpt>
      <trkpt lat="46.19338" lon="2.41125">
        <ele>392</ele>
        <time>2017-04-08T14:15:03Z</time>
      </trkpt>
      <trkpt lat="46.19336" lon="2.4113">
        <ele>392</ele>
        <time>2017-04-08T14:15:06Z</time>
      </trkpt>
      <trkpt lat="46.19334" lon="2.41135">
        <ele>391</ele>
        <time>2017-04-08T14:15:09Z</time>
      </trkpt>
      <trkpt lat="46.19333" lon="2.4114">
        <ele>391</ele>
        <time>2017-04-08T14:15:12Z</time>
      </trkpt>
      <trkpt lat="46.19331" lon="2.41146">
        <ele>391</ele>
        <time>2017-04-08T14:15:15Z</time>
      </trkpt>
      <trkpt lat="46.1933" lon="2.41152">
        <ele>391</ele>
        <time>2017-04-08T14:15:18Z</time>
      </trkpt>
      <trkpt lat="46.19329" lon="2.4116">
        <ele>391</ele>
        <time>2017-04-08T14:15:22Z</time>
      </trkpt>
      <trkpt lat="46.19328" lon="2.41166">
        <ele>390</ele>
        <time>2017-04-08T14:15:25Z</time>
      </trkpt>
      <trkpt lat="46.19327" lon="2.41172">
        <ele>390</ele>
        <time>2017-04-08T14:15:28Z</time>
      </trkpt>
      <trkpt lat="46.19326" lon="2.41177">
        <ele>389</ele>
        <time>2017-04-08T14:15:31Z</time>
      </trkpt>
      <trkpt lat="46.19324" lon="2.41183">
        <ele>389</ele>
        <time>2017-04-08T14:15:34Z</time>
      </trkpt>
      <trkpt lat="46.19322" lon="2.41188">
        <ele>389</ele>
        <time>2017-04-08T14:15:37Z</time>
      </trkpt>
      <trkpt lat="46.19317" lon="2.41194">
        <ele>389</ele>
        <time>2017-04-08T14:15:41Z</time>
      </trkpt>
      <trkpt lat="46.19312" lon="2.41195">
        <ele>388</ele>
        <time>2017-04-08T14:15:45Z</time>
      </trkpt>
      <trkpt lat="46.19306" lon="2.41195">
        <ele>387</ele>
        <time>2017-04-08T14:15:49Z</time>
      </trkpt>
      <trkpt lat="46.19302" lon="2.41196">
        <ele>386</ele>
        <time>2017-04-08T14:15:52Z</time>
      </trkpt>
      <trkpt lat="46.19298" lon="2.41197">
        <ele>384</ele>
        <time>2017-04-08T14:15:55Z</time>
      </trkpt>
      <trkpt lat="46.19293" lon="2.41199">
        <ele>382</ele>
        <time>2017-04-08T14:15:59Z</time>
      </trkpt>
      <trkpt lat="46.19287" lon="2.41201">
        <ele>381</ele>
        <time>2017-04-08T14:16:03Z</time>
      </trkpt>
      <trkpt lat="46.19282" lon="2.41204">
        <ele>381</ele>
        <time>2017-04-08T14:16:06Z</time>
      </trkpt>
      <trkpt lat="46.19278" lon="2.41205">
        <ele>381</ele>
        <time>2017-04-08T14:16:09Z</time>
      </trkpt>
      <trkpt lat="46.19272" lon="2.41204">
        <ele>381</ele>
        <time>2017-04-08T14:16:13Z</time>
      </trkpt>
      <trkpt lat="46.19267" lon="2.41204">
        <ele>381</ele>
        <time>2017-04-08T14:16:16Z</time>
      </trkpt>
      <trkpt lat="46.19264" lon="2.41203">
        <ele>381</ele>
        <time>2017-04-08T14:16:19Z</time>
      </trkpt>
      <trkpt lat="46.19259" lon="2.41203">
        <ele>381</ele>
        <time>2017-04-08T14:16:22Z</time>
      </trkpt>
      <trkpt lat="46.19255" lon="2.41203">
        <ele>381</ele>
        <time>2017-04-08T14:16:25Z</time>
      </trkpt>
      <trkpt lat="46.19249" lon="2.412">
        <ele>381</ele>
        <time>2017-04-08T14:16:29Z</time>
      </trkpt>
      <trkpt lat="46.19242" lon="2.41198">
        <ele>381</ele>
        <time>2017-04-08T14:16:33Z</time>
      </trkpt>
      <trkpt lat="46.19235" lon="2.41198">
        <ele>380</ele>
        <time>2017-04-08T14:16:37Z</time>
      </trkpt>
      <trkpt lat="46.19231" lon="2.41197">
        <ele>380</ele>
        <time>2017-04-08T14:16:40Z</time>
      </trkpt>
      <trkpt lat="46.19225" lon="2.41197">
        <ele>380</ele>
        <time>2017-04-08T14:16:44Z</time>
      </trkpt>
      <trkpt lat="46.19221" lon="2.41197">
        <ele>380</ele>
        <time>2017-04-08T14:16:47Z</time>
      </trkpt>
      <trkpt lat="46.19217" lon="2.41197">
        <ele>380</ele>
        <time>2017-04-08T14:16:50Z</time>
      </trkpt>
      <trkpt lat="46.19212" lon="2.41197">
        <ele>380</ele>
        <time>2017-04-08T14:16:53Z</time>
      </trkpt>
      <trkpt lat="46.19207" lon="2.41197">
        <ele>380</ele>
        <time>2017-04-08T14:16:57Z</time>
      </trkpt>
      <trkpt lat="46.19202" lon="2.41198">
        <ele>377</ele>
        <time>2017-04-08T14:17:02Z</time>
      </trkpt>
      <trkpt lat="46.19198" lon="2.41199">
        <ele>375</ele>
        <time>2017-04-08T14:17:05Z</time>
      </trkpt>
      <trkpt lat="46.19193" lon="2.41203">
        <ele>375</ele>
        <time>2017-04-08T14:17:10Z</time>
      </trkpt>
      <trkpt lat="46.19188" lon="2.41209">
        <ele>375</ele>
        <time>2017-04-08T14:17:15Z</time>
      </trkpt>
      <trkpt lat="46.19185" lon="2.41212">
        <ele>375</ele>
        <time>2017-04-08T14:17:19Z</time>
      </trkpt>
      <trkpt lat="46.19181" lon="2.41218">
        <ele>375</ele>
        <time>2017-04-08T14:17:23Z</time>
      </trkpt>
      <trkpt lat="46.19177" lon="2.41221">
        <ele>375</ele>
        <time>2017-04-08T14:17:27Z</time>
      </trkpt>
      <trkpt lat="46.19172" lon="2.41225">
        <ele>375</ele>
        <time>2017-04-08T14:17:31Z</time>
      </trkpt>
      <trkpt lat="46.19169" lon="2.41228">
        <ele>375</ele>
        <time>2017-04-08T14:17:36Z</time>
      </trkpt>
      <trkpt lat="46.19166" lon="2.4123">
        <ele>375</ele>
        <time>2017-04-08T14:17:41Z</time>
      </trkpt>
      <trkpt lat="46.19165" lon="2.41231">
        <ele>375</ele>
        <time>2017-04-08T14:17:47Z</time>
      </trkpt>
      <trkpt lat="46.19162" lon="2.41231">
        <ele>375</ele>
        <time>2017-04-08T14:17:51Z</time>
      </trkpt>
      <trkpt lat="46.19161" lon="2.41233">
        <ele>375</ele>
        <time>2017-04-08T14:17:58Z</time>
      </trkpt>
      <trkpt lat="46.1916" lon="2.41234">
        <ele>375</ele>
        <time>2017-04-08T14:18:01Z</time>
      </trkpt>
      <trkpt lat="46.19158" lon="2.41234">
        <ele>378</ele>
        <time>2017-04-08T14:18:05Z</time>
      </trkpt>
      <trkpt lat="46.19157" lon="2.41235">
        <ele>381</ele>
        <time>2017-04-08T14:18:14Z</time>
      </trkpt>
      <trkpt lat="46.19156" lon="2.41237">
        <ele>382</ele>
        <time>2017-04-08T14:18:19Z</time>
      </trkpt>
      <trkpt lat="46.19155" lon="2.41237">
        <ele>383</ele>
        <time>2017-04-08T14:18:24Z</time>
      </trkpt>
      <trkpt lat="46.19152" lon="2.41239">
        <ele>383</ele>
        <time>2017-04-08T14:18:28Z</time>
      </trkpt>
      <trkpt lat="46.19149" lon="2.41242">
        <ele>383</ele>
        <time>2017-04-08T14:18:32Z</time>
      </trkpt>
      <trkpt lat="46.19146" lon="2.41245">
        <ele>383</ele>
        <time>2017-04-08T14:18:36Z</time>
      </trkpt>
      <trkpt lat="46.19143" lon="2.41248">
        <ele>383</ele>
        <time>2017-04-08T14:18:40Z</time>
      </trkpt>
      <trkpt lat="46.19139" lon="2.4125">
        <ele>382</ele>
        <time>2017-04-08T14:18:43Z</time>
      </trkpt>
      <trkpt lat="46.19133" lon="2.41253">
        <ele>379</ele>
        <time>2017-04-08T14:18:48Z</time>
      </trkpt>
      <trkpt lat="46.19129" lon="2.41256">
        <ele>379</ele>
        <time>2017-04-08T14:18:51Z</time>
      </trkpt>
      <trkpt lat="46.19125" lon="2.41258">
        <ele>378</ele>
        <time>2017-04-08T14:18:54Z</time>
      </trkpt>
      <trkpt lat="46.19121" lon="2.41261">
        <ele>377</ele>
        <time>2017-04-08T14:18:58Z</time>
      </trkpt>
      <trkpt lat="46.19117" lon="2.41263">
        <ele>377</ele>
        <time>2017-04-08T14:19:02Z</time>
      </trkpt>
      <trkpt lat="46.19114" lon="2.41265">
        <ele>376</ele>
        <time>2017-04-08T14:19:05Z</time>
      </trkpt>
      <trkpt lat="46.19109" lon="2.4127">
        <ele>375</ele>
        <time>2017-04-08T14:19:09Z</time>
      </trkpt>
      <trkpt lat="46.19102" lon="2.41277">
        <ele>375</ele>
        <time>2017-04-08T14:19:14Z</time>
      </trkpt>
      <trkpt lat="46.19099" lon="2.41281">
        <ele>375</ele>
        <time>2017-04-08T14:19:17Z</time>
      </trkpt>
      <trkpt lat="46.19095" lon="2.41284">
        <ele>375</ele>
        <time>2017-04-08T14:19:20Z</time>
      </trkpt>
      <trkpt lat="46.19091" lon="2.41287">
        <ele>375</ele>
        <time>2017-04-08T14:19:23Z</time>
      </trkpt>
      <trkpt lat="46.19086" lon="2.41291">
        <ele>375</ele>
        <time>2017-04-08T14:19:27Z</time>
      </trkpt>
      <trkpt lat="46.19081" lon="2.41296">
        <ele>373</ele>
        <time>2017-04-08T14:19:31Z</time>
      </trkpt>
      <trkpt lat="46.19077" lon="2.41299">
        <ele>373</ele>
        <time>2017-04-08T14:19:35Z</time>
      </trkpt>
      <trkpt lat="46.19074" lon="2.41301">
        <ele>373</ele>
        <time>2017-04-08T14:19:38Z</time>
      </trkpt>
      <trkpt lat="46.1907" lon="2.41304">
        <ele>371</ele>
        <time>2017-04-08T14:19:42Z</time>
      </trkpt>
      <trkpt lat="46.19065" lon="2.41306">
        <ele>370</ele>
        <time>2017-04-08T14:19:46Z</time>
      </trkpt>
      <trkpt lat="46.19061" lon="2.41308">
        <ele>368</ele>
        <time>2017-04-08T14:19:50Z</time>
      </trkpt>
      <trkpt lat="46.19057" lon="2.41312">
        <ele>368</ele>
        <time>2017-04-08T14:19:53Z</time>
      </trkpt>
      <trkpt lat="46.19054" lon="2.41313">
        <ele>368</ele>
        <time>2017-04-08T14:19:56Z</time>
      </trkpt>
      <trkpt lat="46.19049" lon="2.41317">
        <ele>368</ele>
        <time>2017-04-08T14:19:59Z</time>
      </trkpt>
      <trkpt lat="46.19045" lon="2.41319">
        <ele>368</ele>
        <time>2017-04-08T14:20:02Z</time>
      </trkpt>
      <trkpt lat="46.1904" lon="2.4132">
        <ele>368</ele>
        <time>2017-04-08T14:20:05Z</time>
      </trkpt>
      <trkpt lat="46.19035" lon="2.41324">
        <ele>368</ele>
        <time>2017-04-08T14:20:09Z</time>
      </trkpt>
      <trkpt lat="46.19032" lon="2.41327">
        <ele>368</ele>
        <time>2017-04-08T14:20:12Z</time>
      </trkpt>
      <trkpt lat="46.19028" lon="2.41329">
        <ele>368</ele>
        <time>2017-04-08T14:20:15Z</time>
      </trkpt>
      <trkpt lat="46.19023" lon="2.41332">
        <ele>368</ele>
        <time>2017-04-08T14:20:19Z</time>
      </trkpt>
      <trkpt lat="46.1902" lon="2.41334">
        <ele>368</ele>
        <time>2017-04-08T14:20:22Z</time>
      </trkpt>
      <trkpt lat="46.19016" lon="2.41337">
        <ele>368</ele>
        <time>2017-04-08T14:20:25Z</time>
      </trkpt>
      <trkpt lat="46.19013" lon="2.4134">
        <ele>368</ele>
        <time>2017-04-08T14:20:28Z</time>
      </trkpt>
      <trkpt lat="46.19007" lon="2.41343">
        <ele>368</ele>
        <time>2017-04-08T14:20:33Z</time>
      </trkpt>
      <trkpt lat="46.19004" lon="2.41348">
        <ele>368</ele>
        <time>2017-04-08T14:20:36Z</time>
      </trkpt>
      <trkpt lat="46.19" lon="2.4135">
        <ele>368</ele>
        <time>2017-04-08T14:20:39Z</time>
      </trkpt>
      <trkpt lat="46.18996" lon="2.41354">
        <ele>368</ele>
        <time>2017-04-08T14:20:42Z</time>
      </trkpt>
      <trkpt lat="46.1899" lon="2.4136">
        <ele>368</ele>
        <time>2017-04-08T14:20:46Z</time>
      </trkpt>
      <trkpt lat="46.18986" lon="2.41365">
        <ele>368</ele>
        <time>2017-04-08T14:20:49Z</time>
      </trkpt>
      <trkpt lat="46.18981" lon="2.4137">
        <ele>368</ele>
        <time>2017-04-08T14:20:53Z</time>
      </trkpt>
      <trkpt lat="46.18976" lon="2.41376">
        <ele>368</ele>
        <time>2017-04-08T14:20:58Z</time>
      </trkpt>
      <trkpt lat="46.18973" lon="2.4138">
        <ele>368</ele>
        <time>2017-04-08T14:21:02Z</time>
      </trkpt>
      <trkpt lat="46.18971" lon="2.41381">
        <ele>368</ele>
        <time>2017-04-08T14:21:05Z</time>
      </trkpt>
      <trkpt lat="46.18969" lon="2.41384">
        <ele>367</ele>
        <time>2017-04-08T14:21:09Z</time>
      </trkpt>
      <trkpt lat="46.18964" lon="2.41388">
        <ele>365</ele>
        <time>2017-04-08T14:21:13Z</time>
      </trkpt>
      <trkpt lat="46.18961" lon="2.41391">
        <ele>365</ele>
        <time>2017-04-08T14:21:16Z</time>
      </trkpt>
      <trkpt lat="46.18957" lon="2.41394">
        <ele>365</ele>
        <time>2017-04-08T14:21:19Z</time>
      </trkpt>
      <trkpt lat="46.18952" lon="2.41399">
        <ele>364</ele>
        <time>2017-04-08T14:21:23Z</time>
      </trkpt>
      <trkpt lat="46.18949" lon="2.41405">
        <ele>364</ele>
        <time>2017-04-08T14:21:28Z</time>
      </trkpt>
      <trkpt lat="46.18946" lon="2.41411">
        <ele>364</ele>
        <time>2017-04-08T14:21:32Z</time>
      </trkpt>
      <trkpt lat="46.18944" lon="2.41416">
        <ele>364</ele>
        <time>2017-04-08T14:21:35Z</time>
      </trkpt>
      <trkpt lat="46.18942" lon="2.41422">
        <ele>364</ele>
        <time>2017-04-08T14:21:38Z</time>
      </trkpt>
      <trkpt lat="46.18938" lon="2.41429">
        <ele>364</ele>
        <time>2017-04-08T14:21:43Z</time>
      </trkpt>
      <trkpt lat="46.18937" lon="2.41433">
        <ele>364</ele>
        <time>2017-04-08T14:21:46Z</time>
      </trkpt>
      <trkpt lat="46.18932" lon="2.41442">
        <ele>364</ele>
        <time>2017-04-08T14:21:50Z</time>
      </trkpt>
      <trkpt lat="46.18931" lon="2.41445">
        <ele>365</ele>
        <time>2017-04-08T14:21:54Z</time>
      </trkpt>
      <trkpt lat="46.18928" lon="2.41451">
        <ele>366</ele>
        <time>2017-04-08T14:21:57Z</time>
      </trkpt>
      <trkpt lat="46.18925" lon="2.41459">
        <ele>366</ele>
        <time>2017-04-08T14:22:02Z</time>
      </trkpt>
      <trkpt lat="46.18922" lon="2.41467">
        <ele>366</ele>
        <time>2017-04-08T14:22:07Z</time>
      </trkpt>
      <trkpt lat="46.18921" lon="2.41472">
        <ele>366</ele>
        <time>2017-04-08T14:22:10Z</time>
      </trkpt>
      <trkpt lat="46.18916" lon="2.4148">
        <ele>366</ele>
        <time>2017-04-08T14:22:14Z</time>
      </trkpt>
      <trkpt lat="46.18914" lon="2.41487">
        <ele>366</ele>
        <time>2017-04-08T14:22:17Z</time>
      </trkpt>
      <trkpt lat="46.18911" lon="2.4149">
        <ele>366</ele>
        <time>2017-04-08T14:22:20Z</time>
      </trkpt>
      <trkpt lat="46.18907" lon="2.41501">
        <ele>364</ele>
        <time>2017-04-08T14:22:24Z</time>
      </trkpt>
      <trkpt lat="46.18905" lon="2.41506">
        <ele>361</ele>
        <time>2017-04-08T14:22:27Z</time>
      </trkpt>
      <trkpt lat="46.18902" lon="2.41512">
        <ele>359</ele>
        <time>2017-04-08T14:22:32Z</time>
      </trkpt>
      <trkpt lat="46.18898" lon="2.41519">
        <ele>357</ele>
        <time>2017-04-08T14:22:35Z</time>
      </trkpt>
      <trkpt lat="46.18897" lon="2.41524">
        <ele>355</ele>
        <time>2017-04-08T14:22:38Z</time>
      </trkpt>
      <trkpt lat="46.18895" lon="2.41529">
        <ele>355</ele>
        <time>2017-04-08T14:22:41Z</time>
      </trkpt>
      <trkpt lat="46.18892" lon="2.41534">
        <ele>354</ele>
        <time>2017-04-08T14:22:44Z</time>
      </trkpt>
      <trkpt lat="46.1889" lon="2.41539">
        <ele>352</ele>
        <time>2017-04-08T14:22:47Z</time>
      </trkpt>
      <trkpt lat="46.18889" lon="2.41543">
        <ele>351</ele>
        <time>2017-04-08T14:22:50Z</time>
      </trkpt>
      <trkpt lat="46.18887" lon="2.41547">
        <ele>349</ele>
        <time>2017-04-08T14:22:53Z</time>
      </trkpt>
      <trkpt lat="46.18883" lon="2.41554">
        <ele>348</ele>
        <time>2017-04-08T14:22:58Z</time>
      </trkpt>
      <trkpt lat="46.18881" lon="2.41559">
        <ele>348</ele>
        <time>2017-04-08T14:23:01Z</time>
      </trkpt>
      <trkpt lat="46.18876" lon="2.41562">
        <ele>348</ele>
        <time>2017-04-08T14:23:05Z</time>
      </trkpt>
      <trkpt lat="46.18874" lon="2.41564">
        <ele>349</ele>
        <time>2017-04-08T14:23:08Z</time>
      </trkpt>
      <trkpt lat="46.18873" lon="2.41566">
        <ele>350</ele>
        <time>2017-04-08T14:23:12Z</time>
      </trkpt>
      <trkpt lat="46.18873" lon="2.41572">
        <ele>350</ele>
        <time>2017-04-08T14:23:16Z</time>
      </trkpt>
      <trkpt lat="46.18875" lon="2.41579">
        <ele>355</ele>
        <time>2017-04-08T14:23:22Z</time>
      </trkpt>
      <trkpt lat="46.18874" lon="2.41586">
        <ele>360</ele>
        <time>2017-04-08T14:23:27Z</time>
      </trkpt>
      <trkpt lat="46.18871" lon="2.41591">
        <ele>360</ele>
        <time>2017-04-08T14:23:31Z</time>
      </trkpt>
      <trkpt lat="46.18869" lon="2.41594">
        <ele>360</ele>
        <time>2017-04-08T14:23:34Z</time>
      </trkpt>
      <trkpt lat="46.18865" lon="2.41599">
        <ele>360</ele>
        <time>2017-04-08T14:23:39Z</time>
      </trkpt>
      <trkpt lat="46.18861" lon="2.41605">
        <ele>358</ele>
        <time>2017-04-08T14:23:43Z</time>
      </trkpt>
      <trkpt lat="46.18857" lon="2.41611">
        <ele>354</ele>
        <time>2017-04-08T14:23:48Z</time>
      </trkpt>
      <trkpt lat="46.18854" lon="2.41616">
        <ele>352</ele>
        <time>2017-04-08T14:23:52Z</time>
      </trkpt>
      <trkpt lat="46.18852" lon="2.41622">
        <ele>349</ele>
        <time>2017-04-08T14:23:57Z</time>
      </trkpt>
      <trkpt lat="46.18851" lon="2.41627">
        <ele>348</ele>
        <time>2017-04-08T14:24:00Z</time>
      </trkpt>
      <trkpt lat="46.1885" lon="2.41634">
        <ele>346</ele>
        <time>2017-04-08T14:24:04Z</time>
      </trkpt>
      <trkpt lat="46.18851" lon="2.4164">
        <ele>346</ele>
        <time>2017-04-08T14:24:07Z</time>
      </trkpt>
      <trkpt lat="46.18851" lon="2.41645">
        <ele>346</ele>
        <time>2017-04-08T14:24:10Z</time>
      </trkpt>
      <trkpt lat="46.18851" lon="2.41652">
        <ele>346</ele>
        <time>2017-04-08T14:24:14Z</time>
      </trkpt>
      <trkpt lat="46.1885" lon="2.41657">
        <ele>346</ele>
        <time>2017-04-08T14:24:17Z</time>
      </trkpt>
      <trkpt lat="46.18852" lon="2.41662">
        <ele>346</ele>
        <time>2017-04-08T14:24:22Z</time>
      </trkpt>
      <trkpt lat="46.18852" lon="2.41667">
        <ele>346</ele>
        <time>2017-04-08T14:24:25Z</time>
      </trkpt>
      <trkpt lat="46.18852" lon="2.41669">
        <ele>346</ele>
        <time>2017-04-08T14:24:28Z</time>
      </trkpt>
      <trkpt lat="46.18853" lon="2.41672">
        <ele>346</ele>
        <time>2017-04-08T14:24:32Z</time>
      </trkpt>
      <trkpt lat="46.18852" lon="2.41675">
        <ele>346</ele>
        <time>2017-04-08T14:24:35Z</time>
      </trkpt>
      <trkpt lat="46.1885" lon="2.41681">
        <ele>343</ele>
        <time>2017-04-08T14:24:39Z</time>
      </trkpt>
      <trkpt lat="46.18851" lon="2.41686">
        <ele>342</ele>
        <time>2017-04-08T14:24:43Z</time>
      </trkpt>
      <trkpt lat="46.18852" lon="2.41692">
        <ele>342</ele>
        <time>2017-04-08T14:24:46Z</time>
      </trkpt>
      <trkpt lat="46.18854" lon="2.41698">
        <ele>342</ele>
        <time>2017-04-08T14:24:50Z</time>
      </trkpt>
      <trkpt lat="46.18855" lon="2.41703">
        <ele>342</ele>
        <time>2017-04-08T14:24:53Z</time>
      </trkpt>
      <trkpt lat="46.18855" lon="2.41706">
        <ele>341</ele>
        <time>2017-04-08T14:24:56Z</time>
      </trkpt>
      <trkpt lat="46.18856" lon="2.41714">
        <ele>339</ele>
        <time>2017-04-08T14:25:00Z</time>
      </trkpt>
      <trkpt lat="46.18858" lon="2.41721">
        <ele>337</ele>
        <time>2017-04-08T14:25:04Z</time>
      </trkpt>
      <trkpt lat="46.18859" lon="2.41727">
        <ele>336</ele>
        <time>2017-04-08T14:25:07Z</time>
      </trkpt>
      <trkpt lat="46.1886" lon="2.41735">
        <ele>336</ele>
        <time>2017-04-08T14:25:11Z</time>
      </trkpt>
      <trkpt lat="46.18859" lon="2.41741">
        <ele>335</ele>
        <time>2017-04-08T14:25:14Z</time>
      </trkpt>
      <trkpt lat="46.18859" lon="2.41747">
        <ele>334</ele>
        <time>2017-04-08T14:25:17Z</time>
      </trkpt>
      <trkpt lat="46.18856" lon="2.4176">
        <ele>334</ele>
        <time>2017-04-08T14:25:21Z</time>
      </trkpt>
      <trkpt lat="46.18855" lon="2.41767">
        <ele>334</ele>
        <time>2017-04-08T14:25:24Z</time>
      </trkpt>
      <trkpt lat="46.18855" lon="2.41774">
        <ele>334</ele>
        <time>2017-04-08T14:25:28Z</time>
      </trkpt>
      <trkpt lat="46.18853" lon="2.41779">
        <ele>334</ele>
        <time>2017-04-08T14:25:31Z</time>
      </trkpt>
      <trkpt lat="46.18852" lon="2.41785">
        <ele>332</ele>
        <time>2017-04-08T14:25:35Z</time>
      </trkpt>
      <trkpt lat="46.18852" lon="2.41792">
        <ele>330</ele>
        <time>2017-04-08T14:25:39Z</time>
      </trkpt>
      <trkpt lat="46.18851" lon="2.41798">
        <ele>330</ele>
        <time>2017-04-08T14:25:43Z</time>
      </trkpt>
      <trkpt lat="46.18847" lon="2.418">
        <ele>330</ele>
        <time>2017-04-08T14:25:47Z</time>
      </trkpt>
      <trkpt lat="46.18842" lon="2.41805">
        <ele>327</ele>
        <time>2017-04-08T14:25:51Z</time>
      </trkpt>
      <trkpt lat="46.1884" lon="2.41809">
        <ele>326</ele>
        <time>2017-04-08T14:25:54Z</time>
      </trkpt>
      <trkpt lat="46.18839" lon="2.41815">
        <ele>325</ele>
        <time>2017-04-08T14:25:59Z</time>
      </trkpt>
      <trkpt lat="46.1884" lon="2.41821">
        <ele>325</ele>
        <time>2017-04-08T14:26:03Z</time>
      </trkpt>
      <trkpt lat="46.18842" lon="2.41828">
        <ele>325</ele>
        <time>2017-04-08T14:26:07Z</time>
      </trkpt>
      <trkpt lat="46.18844" lon="2.41831">
        <ele>325</ele>
        <time>2017-04-08T14:26:10Z</time>
      </trkpt>
      <trkpt lat="46.18847" lon="2.41839">
        <ele>325</ele>
        <time>2017-04-08T14:26:14Z</time>
      </trkpt>
      <trkpt lat="46.18847" lon="2.41846">
        <ele>325</ele>
        <time>2017-04-08T14:26:17Z</time>
      </trkpt>
      <trkpt lat="46.18849" lon="2.41854">
        <ele>325</ele>
        <time>2017-04-08T14:26:21Z</time>
      </trkpt>
      <trkpt lat="46.1885" lon="2.41861">
        <ele>325</ele>
        <time>2017-04-08T14:26:24Z</time>
      </trkpt>
      <trkpt lat="46.18853" lon="2.41869">
        <ele>325</ele>
        <time>2017-04-08T14:26:28Z</time>
      </trkpt>
      <trkpt lat="46.18855" lon="2.41875">
        <ele>325</ele>
        <time>2017-04-08T14:26:31Z</time>
      </trkpt>
      <trkpt lat="46.18857" lon="2.4188">
        <ele>325</ele>
        <time>2017-04-08T14:26:34Z</time>
      </trkpt>
      <trkpt lat="46.1886" lon="2.41887">
        <ele>325</ele>
        <time>2017-04-08T14:26:39Z</time>
      </trkpt>
      <trkpt lat="46.18862" lon="2.41894">
        <ele>325</ele>
        <time>2017-04-08T14:26:42Z</time>
      </trkpt>
      <trkpt lat="46.18866" lon="2.41903">
        <ele>325</ele>
        <time>2017-04-08T14:26:46Z</time>
      </trkpt>
      <trkpt lat="46.18867" lon="2.41908">
        <ele>326</ele>
        <time>2017-04-08T14:26:49Z</time>
      </trkpt>
      <trkpt lat="46.1887" lon="2.41915">
        <ele>327</ele>
        <time>2017-04-08T14:26:53Z</time>
      </trkpt>
      <trkpt lat="46.18872" lon="2.41922">
        <ele>327</ele>
        <time>2017-04-08T14:26:57Z</time>
      </trkpt>
      <trkpt lat="46.18872" lon="2.4193">
        <ele>328</ele>
        <time>2017-04-08T14:27:00Z</time>
      </trkpt>
      <trkpt lat="46.18873" lon="2.41935">
        <ele>329</ele>
        <time>2017-04-08T14:27:04Z</time>
      </trkpt>
      <trkpt lat="46.18875" lon="2.41943">
        <ele>329</ele>
        <time>2017-04-08T14:27:07Z</time>
      </trkpt>
      <trkpt lat="46.18876" lon="2.41949">
        <ele>329</ele>
        <time>2017-04-08T14:27:10Z</time>
      </trkpt>
      <trkpt lat="46.18879" lon="2.41957">
        <ele>329</ele>
        <time>2017-04-08T14:27:14Z</time>
      </trkpt>
      <trkpt lat="46.18881" lon="2.41962">
        <ele>329</ele>
        <time>2017-04-08T14:27:17Z</time>
      </trkpt>
      <trkpt lat="46.18882" lon="2.41968">
        <ele>329</ele>
        <time>2017-04-08T14:27:20Z</time>
      </trkpt>
      <trkpt lat="46.18884" lon="2.41975">
        <ele>329</ele>
        <time>2017-04-08T14:27:23Z</time>
      </trkpt>
      <trkpt lat="46.18885" lon="2.41981">
        <ele>329</ele>
        <time>2017-04-08T14:27:26Z</time>
      </trkpt>
      <trkpt lat="46.18888" lon="2.41987">
        <ele>329</ele>
        <time>2017-04-08T14:27:30Z</time>
      </trkpt>
      <trkpt lat="46.1889" lon="2.41992">
        <ele>329</ele>
        <time>2017-04-08T14:27:33Z</time>
      </trkpt>
      <trkpt lat="46.18892" lon="2.41997">
        <ele>329</ele>
        <time>2017-04-08T14:27:36Z</time>
      </trkpt>
      <trkpt lat="46.18894" lon="2.42002">
        <ele>329</ele>
        <time>2017-04-08T14:27:39Z</time>
      </trkpt>
      <trkpt lat="46.18896" lon="2.42008">
        <ele>329</ele>
        <time>2017-04-08T14:27:42Z</time>
      </trkpt>
      <trkpt lat="46.18898" lon="2.42014">
        <ele>329</ele>
        <time>2017-04-08T14:27:45Z</time>
      </trkpt>
      <trkpt lat="46.18898" lon="2.42023">
        <ele>329</ele>
        <time>2017-04-08T14:27:48Z</time>
      </trkpt>
      <trkpt lat="46.18899" lon="2.42028">
        <ele>329</ele>
        <time>2017-04-08T14:27:51Z</time>
      </trkpt>
      <trkpt lat="46.18902" lon="2.42036">
        <ele>330</ele>
        <time>2017-04-08T14:27:55Z</time>
      </trkpt>
      <trkpt lat="46.18903" lon="2.4204">
        <ele>331</ele>
        <time>2017-04-08T14:27:58Z</time>
      </trkpt>
      <trkpt lat="46.18903" lon="2.42044">
        <ele>331</ele>
        <time>2017-04-08T14:28:01Z</time>
      </trkpt>
      <trkpt lat="46.18902" lon="2.4205">
        <ele>331</ele>
        <time>2017-04-08T14:28:04Z</time>
      </trkpt>
      <trkpt lat="46.18902" lon="2.42056">
        <ele>331</ele>
        <time>2017-04-08T14:28:07Z</time>
      </trkpt>
      <trkpt lat="46.18901" lon="2.42064">
        <ele>331</ele>
        <time>2017-04-08T14:28:11Z</time>
      </trkpt>
      <trkpt lat="46.18901" lon="2.42068">
        <ele>331</ele>
        <time>2017-04-08T14:28:14Z</time>
      </trkpt>
      <trkpt lat="46.18902" lon="2.42072">
        <ele>331</ele>
        <time>2017-04-08T14:28:17Z</time>
      </trkpt>
      <trkpt lat="46.18906" lon="2.42074">
        <ele>331</ele>
        <time>2017-04-08T14:28:20Z</time>
      </trkpt>
      <trkpt lat="46.1891" lon="2.42075">
        <ele>330</ele>
        <time>2017-04-08T14:28:23Z</time>
      </trkpt>
      <trkpt lat="46.18916" lon="2.42077">
        <ele>330</ele>
        <time>2017-04-08T14:28:27Z</time>
      </trkpt>
      <trkpt lat="46.1892" lon="2.42077">
        <ele>329</ele>
        <time>2017-04-08T14:28:30Z</time>
      </trkpt>
      <trkpt lat="46.18923" lon="2.42077">
        <ele>329</ele>
        <time>2017-04-08T14:28:33Z</time>
      </trkpt>
      <trkpt lat="46.18928" lon="2.42076">
        <ele>328</ele>
        <time>2017-04-08T14:28:36Z</time>
      </trkpt>
      <trkpt lat="46.18936" lon="2.42081">
        <ele>328</ele>
        <time>2017-04-08T14:28:42Z</time>
      </trkpt>
      <trkpt lat="46.1894" lon="2.42081">
        <ele>328</ele>
        <time>2017-04-08T14:28:46Z</time>
      </trkpt>
      <trkpt lat="46.18945" lon="2.4208">
        <ele>328</ele>
        <time>2017-04-08T14:28:49Z</time>
      </trkpt>
      <trkpt lat="46.18948" lon="2.42081">
        <ele>328</ele>
        <time>2017-04-08T14:28:52Z</time>
      </trkpt>
      <trkpt lat="46.18952" lon="2.42083">
        <ele>327</ele>
        <time>2017-04-08T14:28:55Z</time>
      </trkpt>
      <trkpt lat="46.18956" lon="2.42083">
        <ele>326</ele>
        <time>2017-04-08T14:28:58Z</time>
      </trkpt>
      <trkpt lat="46.1896" lon="2.42084">
        <ele>326</ele>
        <time>2017-04-08T14:29:01Z</time>
      </trkpt>
      <trkpt lat="46.18964" lon="2.42084">
        <ele>325</ele>
        <time>2017-04-08T14:29:04Z</time>
      </trkpt>
      <trkpt lat="46.18968" lon="2.42085">
        <ele>325</ele>
        <time>2017-04-08T14:29:07Z</time>
      </trkpt>
      <trkpt lat="46.18972" lon="2.42086">
        <ele>325</ele>
        <time>2017-04-08T14:29:10Z</time>
      </trkpt>
      <trkpt lat="46.18979" lon="2.42086">
        <ele>325</ele>
        <time>2017-04-08T14:29:14Z</time>
      </trkpt>
      <trkpt lat="46.18982" lon="2.42088">
        <ele>324</ele>
        <time>2017-04-08T14:29:17Z</time>
      </trkpt>
      <trkpt lat="46.18985" lon="2.4209">
        <ele>323</ele>
        <time>2017-04-08T14:29:20Z</time>
      </trkpt>
      <trkpt lat="46.18991" lon="2.42093">
        <ele>322</ele>
        <time>2017-04-08T14:29:24Z</time>
      </trkpt>
      <trkpt lat="46.18994" lon="2.42098">
        <ele>322</ele>
        <time>2017-04-08T14:29:28Z</time>
      </trkpt>
      <trkpt lat="46.18996" lon="2.42102">
        <ele>321</ele>
        <time>2017-04-08T14:29:31Z</time>
      </trkpt>
      <trkpt lat="46.18998" lon="2.42107">
        <ele>320</ele>
        <time>2017-04-08T14:29:34Z</time>
      </trkpt>
      <trkpt lat="46.19001" lon="2.42112">
        <ele>319</ele>
        <time>2017-04-08T14:29:38Z</time>
      </trkpt>
      <trkpt lat="46.19004" lon="2.42115">
        <ele>319</ele>
        <time>2017-04-08T14:29:44Z</time>
      </trkpt>
      <trkpt lat="46.19006" lon="2.42117">
        <ele>319</ele>
        <time>2017-04-08T14:29:48Z</time>
      </trkpt>
      <trkpt lat="46.19007" lon="2.42119">
        <ele>319</ele>
        <time>2017-04-08T14:29:51Z</time>
      </trkpt>
      <trkpt lat="46.19009" lon="2.42121">
        <ele>322</ele>
        <time>2017-04-08T14:29:56Z</time>
      </trkpt>
      <trkpt lat="46.19011" lon="2.42121">
        <ele>323</ele>
        <time>2017-04-08T14:30:00Z</time>
      </trkpt>
      <trkpt lat="46.19012" lon="2.4212">
        <ele>323</ele>
        <time>2017-04-08T14:30:14Z</time>
      </trkpt>
      <trkpt lat="46.19013" lon="2.4212">
        <ele>323</ele>
        <time>2017-04-08T14:30:19Z</time>
      </trkpt>
      <trkpt lat="46.19015" lon="2.42123">
        <ele>323</ele>
        <time>2017-04-08T14:30:24Z</time>
      </trkpt>
      <trkpt lat="46.19016" lon="2.42123">
        <ele>323</ele>
        <time>2017-04-08T14:30:27Z</time>
      </trkpt>
      <trkpt lat="46.19017" lon="2.42123">
        <ele>321</ele>
        <time>2017-04-08T14:30:36Z</time>
      </trkpt>
      <trkpt lat="46.19019" lon="2.42122">
        <ele>320</ele>
        <time>2017-04-08T14:30:39Z</time>
      </trkpt>
      <trkpt lat="46.19019" lon="2.42123">
        <ele>320</ele>
        <time>2017-04-08T14:30:53Z</time>
      </trkpt>
      <trkpt lat="46.1902" lon="2.42124">
        <ele>319</ele>
        <time>2017-04-08T14:31:03Z</time>
      </trkpt>
      <trkpt lat="46.19022" lon="2.42124">
        <ele>319</ele>
        <time>2017-04-08T14:31:09Z</time>
      </trkpt>
      <trkpt lat="46.19023" lon="2.42123">
        <ele>319</ele>
        <time>2017-04-08T14:31:12Z</time>
      </trkpt>
      <trkpt lat="46.19026" lon="2.42124">
        <ele>319</ele>
        <time>2017-04-08T14:31:16Z</time>
      </trkpt>
      <trkpt lat="46.19027" lon="2.42129">
        <ele>319</ele>
        <time>2017-04-08T14:31:20Z</time>
      </trkpt>
      <trkpt lat="46.19028" lon="2.42135">
        <ele>319</ele>
        <time>2017-04-08T14:31:23Z</time>
      </trkpt>
      <trkpt lat="46.19029" lon="2.4214">
        <ele>319</ele>
        <time>2017-04-08T14:31:26Z</time>
      </trkpt>
      <trkpt lat="46.19028" lon="2.42146">
        <ele>319</ele>
        <time>2017-04-08T14:31:29Z</time>
      </trkpt>
      <trkpt lat="46.19027" lon="2.42154">
        <ele>319</ele>
        <time>2017-04-08T14:31:33Z</time>
      </trkpt>
      <trkpt lat="46.19027" lon="2.42159">
        <ele>319</ele>
        <time>2017-04-08T14:31:36Z</time>
      </trkpt>
      <trkpt lat="46.19026" lon="2.42165">
        <ele>319</ele>
        <time>2017-04-08T14:31:39Z</time>
      </trkpt>
      <trkpt lat="46.19025" lon="2.42169">
        <ele>319</ele>
        <time>2017-04-08T14:31:42Z</time>
      </trkpt>
      <trkpt lat="46.19023" lon="2.42173">
        <ele>319</ele>
        <time>2017-04-08T14:31:46Z</time>
      </trkpt>
      <trkpt lat="46.1902" lon="2.42176">
        <ele>319</ele>
        <time>2017-04-08T14:31:49Z</time>
      </trkpt>
      <trkpt lat="46.19018" lon="2.4218">
        <ele>319</ele>
        <time>2017-04-08T14:31:53Z</time>
      </trkpt>
      <trkpt lat="46.1902" lon="2.42184">
        <ele>319</ele>
        <time>2017-04-08T14:31:56Z</time>
      </trkpt>
      <trkpt lat="46.19022" lon="2.42189">
        <ele>321</ele>
        <time>2017-04-08T14:31:59Z</time>
      </trkpt>
      <trkpt lat="46.19023" lon="2.42194">
        <ele>322</ele>
        <time>2017-04-08T14:32:02Z</time>
      </trkpt>
      <trkpt lat="46.19024" lon="2.422">
        <ele>322</ele>
        <time>2017-04-08T14:32:05Z</time>
      </trkpt>
      <trkpt lat="46.19025" lon="2.4221">
        <ele>322</ele>
        <time>2017-04-08T14:32:11Z</time>
      </trkpt>
      <trkpt lat="46.19027" lon="2.42218">
        <ele>322</ele>
        <time>2017-04-08T14:32:15Z</time>
      </trkpt>
      <trkpt lat="46.19027" lon="2.42224">
        <ele>322</ele>
        <time>2017-04-08T14:32:19Z</time>
      </trkpt>
      <trkpt lat="46.19028" lon="2.42224">
        <ele>321</ele>
        <time>2017-04-08T14:32:22Z</time>
      </trkpt>
      <trkpt lat="46.19032" lon="2.42226">
        <ele>321</ele>
        <time>2017-04-08T14:32:26Z</time>
      </trkpt>
      <trkpt lat="46.19033" lon="2.42232">
        <ele>321</ele>
        <time>2017-04-08T14:32:29Z</time>
      </trkpt>
      <trkpt lat="46.19033" lon="2.42238">
        <ele>321</ele>
        <time>2017-04-08T14:32:32Z</time>
      </trkpt>
      <trkpt lat="46.19034" lon="2.42247">
        <ele>321</ele>
        <time>2017-04-08T14:32:36Z</time>
      </trkpt>
      <trkpt lat="46.19035" lon="2.42252">
        <ele>321</ele>
        <time>2017-04-08T14:32:39Z</time>
      </trkpt>
      <trkpt lat="46.19035" lon="2.42259">
        <ele>321</ele>
        <time>2017-04-08T14:32:43Z</time>
      </trkpt>
      <trkpt lat="46.19033" lon="2.42265">
        <ele>321</ele>
        <time>2017-04-08T14:32:46Z</time>
      </trkpt>
      <trkpt lat="46.19033" lon="2.42269">
        <ele>321</ele>
        <time>2017-04-08T14:32:49Z</time>
      </trkpt>
      <trkpt lat="46.19037" lon="2.42277">
        <ele>321</ele>
        <time>2017-04-08T14:32:53Z</time>
      </trkpt>
      <trkpt lat="46.19035" lon="2.42283">
        <ele>321</ele>
        <time>2017-04-08T14:32:57Z</time>
      </trkpt>
      <trkpt lat="46.19034" lon="2.42288">
        <ele>321</ele>
        <time>2017-04-08T14:33:00Z</time>
      </trkpt>
      <trkpt lat="46.19034" lon="2.42295">
        <ele>321</ele>
        <time>2017-04-08T14:33:04Z</time>
      </trkpt>
      <trkpt lat="46.19033" lon="2.42302">
        <ele>321</ele>
        <time>2017-04-08T14:33:07Z</time>
      </trkpt>
      <trkpt lat="46.19032" lon="2.42308">
        <ele>321</ele>
        <time>2017-04-08T14:33:10Z</time>
      </trkpt>
      <trkpt lat="46.1903" lon="2.42314">
        <ele>322</ele>
        <time>2017-04-08T14:33:13Z</time>
      </trkpt>
      <trkpt lat="46.19029" lon="2.42318">
        <ele>323</ele>
        <time>2017-04-08T14:33:16Z</time>
      </trkpt>
      <trkpt lat="46.19027" lon="2.42324">
        <ele>323</ele>
        <time>2017-04-08T14:33:20Z</time>
      </trkpt>
      <trkpt lat="46.19025" lon="2.4233">
        <ele>324</ele>
        <time>2017-04-08T14:33:23Z</time>
      </trkpt>
      <trkpt lat="46.19024" lon="2.42336">
        <ele>325</ele>
        <time>2017-04-08T14:33:26Z</time>
      </trkpt>
      <trkpt lat="46.19023" lon="2.4234">
        <ele>325</ele>
        <time>2017-04-08T14:33:29Z</time>
      </trkpt>
      <trkpt lat="46.19022" lon="2.42346">
        <ele>325</ele>
        <time>2017-04-08T14:33:32Z</time>
      </trkpt>
      <trkpt lat="46.19021" lon="2.42351">
        <ele>326</ele>
        <time>2017-04-08T14:33:35Z</time>
      </trkpt>
      <trkpt lat="46.19017" lon="2.4236">
        <ele>326</ele>
        <time>2017-04-08T14:33:39Z</time>
      </trkpt>
      <trkpt lat="46.19017" lon="2.42365">
        <ele>326</ele>
        <time>2017-04-08T14:33:42Z</time>
      </trkpt>
      <trkpt lat="46.19016" lon="2.42371">
        <ele>326</ele>
        <time>2017-04-08T14:33:46Z</time>
      </trkpt>
      <trkpt lat="46.19015" lon="2.42376">
        <ele>326</ele>
        <time>2017-04-08T14:33:49Z</time>
      </trkpt>
      <trkpt lat="46.19011" lon="2.42381">
        <ele>326</ele>
        <time>2017-04-08T14:33:52Z</time>
      </trkpt>
      <trkpt lat="46.19009" lon="2.42387">
        <ele>326</ele>
        <time>2017-04-08T14:33:56Z</time>
      </trkpt>
      <trkpt lat="46.19007" lon="2.42392">
        <ele>326</ele>
        <time>2017-04-08T14:33:59Z</time>
      </trkpt>
      <trkpt lat="46.19006" lon="2.42397">
        <ele>326</ele>
        <time>2017-04-08T14:34:02Z</time>
      </trkpt>
      <trkpt lat="46.19003" lon="2.42402">
        <ele>326</ele>
        <time>2017-04-08T14:34:05Z</time>
      </trkpt>
      <trkpt lat="46.19002" lon="2.42407">
        <ele>326</ele>
        <time>2017-04-08T14:34:08Z</time>
      </trkpt>
      <trkpt lat="46.18998" lon="2.42414">
        <ele>326</ele>
        <time>2017-04-08T14:34:11Z</time>
      </trkpt>
      <trkpt lat="46.18995" lon="2.42418">
        <ele>326</ele>
        <time>2017-04-08T14:34:14Z</time>
      </trkpt>
      <trkpt lat="46.18992" lon="2.42422">
        <ele>326</ele>
        <time>2017-04-08T14:34:17Z</time>
      </trkpt>
      <trkpt lat="46.18992" lon="2.42428">
        <ele>326</ele>
        <time>2017-04-08T14:34:20Z</time>
      </trkpt>
      <trkpt lat="46.18989" lon="2.42434">
        <ele>326</ele>
        <time>2017-04-08T14:34:24Z</time>
      </trkpt>
      <trkpt lat="46.18985" lon="2.42442">
        <ele>326</ele>
        <time>2017-04-08T14:34:28Z</time>
      </trkpt>
      <trkpt lat="46.18983" lon="2.42447">
        <ele>326</ele>
        <time>2017-04-08T14:34:31Z</time>
      </trkpt>
      <trkpt lat="46.18982" lon="2.42453">
        <ele>326</ele>
        <time>2017-04-08T14:34:34Z</time>
      </trkpt>
      <trkpt lat="46.1898" lon="2.42458">
        <ele>326</ele>
        <time>2017-04-08T14:34:37Z</time>
      </trkpt>
      <trkpt lat="46.18978" lon="2.42463">
        <ele>326</ele>
        <time>2017-04-08T14:34:40Z</time>
      </trkpt>
      <trkpt lat="46.18977" lon="2.42469">
        <ele>326</ele>
        <time>2017-04-08T14:34:43Z</time>
      </trkpt>
      <trkpt lat="46.18974" lon="2.42477">
        <ele>326</ele>
        <time>2017-04-08T14:34:47Z</time>
      </trkpt>
      <trkpt lat="46.18972" lon="2.42483">
        <ele>326</ele>
        <time>2017-04-08T14:34:50Z</time>
      </trkpt>
      <trkpt lat="46.18968" lon="2.42491">
        <ele>326</ele>
        <time>2017-04-08T14:34:55Z</time>
      </trkpt>
      <trkpt lat="46.18965" lon="2.42495">
        <ele>326</ele>
        <time>2017-04-08T14:34:58Z</time>
      </trkpt>
      <trkpt lat="46.18963" lon="2.42499">
        <ele>326</ele>
        <time>2017-04-08T14:35:01Z</time>
      </trkpt>
      <trkpt lat="46.18961" lon="2.42504">
        <ele>325</ele>
        <time>2017-04-08T14:35:04Z</time>
      </trkpt>
      <trkpt lat="46.18959" lon="2.42511">
        <ele>325</ele>
        <time>2017-04-08T14:35:08Z</time>
      </trkpt>
      <trkpt lat="46.18957" lon="2.42516">
        <ele>324</ele>
        <time>2017-04-08T14:35:11Z</time>
      </trkpt>
      <trkpt lat="46.18956" lon="2.42521">
        <ele>324</ele>
        <time>2017-04-08T14:35:14Z</time>
      </trkpt>
      <trkpt lat="46.18955" lon="2.42527">
        <ele>324</ele>
        <time>2017-04-08T14:35:17Z</time>
      </trkpt>
      <trkpt lat="46.18952" lon="2.42531">
        <ele>324</ele>
        <time>2017-04-08T14:35:20Z</time>
      </trkpt>
      <trkpt lat="46.18947" lon="2.42531">
        <ele>324</ele>
        <time>2017-04-08T14:35:23Z</time>
      </trkpt>
      <trkpt lat="46.18943" lon="2.42528">
        <ele>324</ele>
        <time>2017-04-08T14:35:26Z</time>
      </trkpt>
      <trkpt lat="46.18936" lon="2.42525">
        <ele>324</ele>
        <time>2017-04-08T14:35:30Z</time>
      </trkpt>
      <trkpt lat="46.18932" lon="2.42522">
        <ele>324</ele>
        <time>2017-04-08T14:35:33Z</time>
      </trkpt>
      <trkpt lat="46.18928" lon="2.42519">
        <ele>324</ele>
        <time>2017-04-08T14:35:37Z</time>
      </trkpt>
      <trkpt lat="46.18925" lon="2.42516">
        <ele>322</ele>
        <time>2017-04-08T14:35:40Z</time>
      </trkpt>
      <trkpt lat="46.18922" lon="2.42512">
        <ele>319</ele>
        <time>2017-04-08T14:35:44Z</time>
      </trkpt>
      <trkpt lat="46.18918" lon="2.4251">
        <ele>319</ele>
        <time>2017-04-08T14:35:47Z</time>
      </trkpt>
      <trkpt lat="46.18913" lon="2.4251">
        <ele>318</ele>
        <time>2017-04-08T14:35:51Z</time>
      </trkpt>
      <trkpt lat="46.1891" lon="2.42507">
        <ele>317</ele>
        <time>2017-04-08T14:35:55Z</time>
      </trkpt>
      <trkpt lat="46.18909" lon="2.42507">
        <ele>317</ele>
        <time>2017-04-08T14:35:56Z</time>
      </trkpt>
    </trkseg>
  </trk>
</gpx>